<?xml version="1.0" encoding="UTF-8" standalone="no" ?>
<gpx xmlns="http://www.topografix.com/GPX/1/1" xmlns:xsi="http://www.w3.org/2001/XMLSchema-instance" xsi:schemaLocation="http://www.topografix.com/GPX/1/1 http://www.topografix.com/GPX/1/1/gpx.xsd" version="1.1" creator="VisuGPX - https://www.visugpx.com">
  <metadata>
    <name>becherkopf </name>
    <desc><![CDATA[balade au becherkopf retour par le camp turenne]]></desc>
  </metadata>
  <trk>
    <name><![CDATA[trace du becherkopf 08/01/015]]></name>
    <trkseg>
      <trkpt lat="47.82624" lon="7.13763">
        <ele>416.87</ele>
        <time>2015-01-08T08:54:41Z</time>
      </trkpt>
      <trkpt lat="47.82622" lon="7.13768">
        <ele>424.08</ele>
        <time>2015-01-08T08:54:52Z</time>
      </trkpt>
      <trkpt lat="47.82621" lon="7.13764">
        <ele>422.64</ele>
        <time>2015-01-08T08:55:06Z</time>
      </trkpt>
      <trkpt lat="47.82621" lon="7.13763">
        <ele>423.6</ele>
        <time>2015-01-08T08:55:24Z</time>
      </trkpt>
      <trkpt lat="47.82625" lon="7.13764">
        <ele>426.48</ele>
        <time>2015-01-08T08:55:43Z</time>
      </trkpt>
      <trkpt lat="47.82625" lon="7.13763">
        <ele>425.04</ele>
        <time>2015-01-08T08:55:58Z</time>
      </trkpt>
      <trkpt lat="47.82621" lon="7.13761">
        <ele>421.19</ele>
        <time>2015-01-08T08:56:17Z</time>
      </trkpt>
      <trkpt lat="47.82621" lon="7.13762">
        <ele>422.16</ele>
        <time>2015-01-08T08:56:27Z</time>
      </trkpt>
      <trkpt lat="47.82622" lon="7.13763">
        <ele>424.08</ele>
        <time>2015-01-08T08:56:44Z</time>
      </trkpt>
      <trkpt lat="47.82622" lon="7.1376">
        <ele>425.52</ele>
        <time>2015-01-08T08:57:04Z</time>
      </trkpt>
      <trkpt lat="47.8262" lon="7.13763">
        <ele>424.08</ele>
        <time>2015-01-08T08:57:18Z</time>
      </trkpt>
      <trkpt lat="47.82621" lon="7.13765">
        <ele>423.12</ele>
        <time>2015-01-08T08:57:38Z</time>
      </trkpt>
      <trkpt lat="47.82622" lon="7.13767">
        <ele>423.12</ele>
        <time>2015-01-08T08:57:57Z</time>
      </trkpt>
      <trkpt lat="47.82623" lon="7.13764">
        <ele>423.6</ele>
        <time>2015-01-08T08:58:11Z</time>
      </trkpt>
      <trkpt lat="47.82624" lon="7.13763">
        <ele>422.16</ele>
        <time>2015-01-08T08:58:21Z</time>
      </trkpt>
      <trkpt lat="47.82623" lon="7.13764">
        <ele>422.16</ele>
        <time>2015-01-08T08:58:43Z</time>
      </trkpt>
      <trkpt lat="47.8262" lon="7.13766">
        <ele>421.19</ele>
        <time>2015-01-08T08:59:01Z</time>
      </trkpt>
      <trkpt lat="47.82621" lon="7.13763">
        <ele>424.08</ele>
        <time>2015-01-08T08:59:13Z</time>
      </trkpt>
      <trkpt lat="47.82623" lon="7.13762">
        <ele>423.6</ele>
        <time>2015-01-08T08:59:16Z</time>
      </trkpt>
      <trkpt lat="47.82629" lon="7.13757">
        <ele>423.12</ele>
        <time>2015-01-08T08:59:25Z</time>
      </trkpt>
      <trkpt lat="47.82634" lon="7.13755">
        <ele>423.12</ele>
        <time>2015-01-08T08:59:32Z</time>
      </trkpt>
      <trkpt lat="47.82643" lon="7.1375">
        <ele>424.08</ele>
        <time>2015-01-08T08:59:43Z</time>
      </trkpt>
      <trkpt lat="47.82644" lon="7.13746">
        <ele>425.04</ele>
        <time>2015-01-08T08:59:50Z</time>
      </trkpt>
      <trkpt lat="47.82646" lon="7.13744">
        <ele>426.96</ele>
        <time>2015-01-08T08:59:56Z</time>
      </trkpt>
      <trkpt lat="47.82647" lon="7.13744">
        <ele>427.92</ele>
        <time>2015-01-08T09:00:05Z</time>
      </trkpt>
      <trkpt lat="47.8265" lon="7.13739">
        <ele>426.96</ele>
        <time>2015-01-08T09:00:15Z</time>
      </trkpt>
      <trkpt lat="47.82653" lon="7.13731">
        <ele>429.37</ele>
        <time>2015-01-08T09:00:24Z</time>
      </trkpt>
      <trkpt lat="47.82655" lon="7.13727">
        <ele>430.81</ele>
        <time>2015-01-08T09:00:32Z</time>
      </trkpt>
      <trkpt lat="47.82651" lon="7.13728">
        <ele>432.73</ele>
        <time>2015-01-08T09:00:41Z</time>
      </trkpt>
      <trkpt lat="47.82647" lon="7.13726">
        <ele>434.65</ele>
        <time>2015-01-08T09:00:49Z</time>
      </trkpt>
      <trkpt lat="47.8265" lon="7.13723">
        <ele>436.1</ele>
        <time>2015-01-08T09:00:56Z</time>
      </trkpt>
      <trkpt lat="47.82656" lon="7.13718">
        <ele>437.06</ele>
        <time>2015-01-08T09:01:05Z</time>
      </trkpt>
      <trkpt lat="47.8266" lon="7.13716">
        <ele>439.94</ele>
        <time>2015-01-08T09:01:12Z</time>
      </trkpt>
      <trkpt lat="47.8266" lon="7.13712">
        <ele>440.9</ele>
        <time>2015-01-08T09:01:19Z</time>
      </trkpt>
      <trkpt lat="47.82663" lon="7.13704">
        <ele>441.86</ele>
        <time>2015-01-08T09:01:27Z</time>
      </trkpt>
      <trkpt lat="47.82667" lon="7.13693">
        <ele>443.79</ele>
        <time>2015-01-08T09:01:38Z</time>
      </trkpt>
      <trkpt lat="47.82669" lon="7.13683">
        <ele>445.71</ele>
        <time>2015-01-08T09:01:47Z</time>
      </trkpt>
      <trkpt lat="47.82672" lon="7.13676">
        <ele>447.15</ele>
        <time>2015-01-08T09:01:55Z</time>
      </trkpt>
      <trkpt lat="47.82673" lon="7.13665">
        <ele>444.75</ele>
        <time>2015-01-08T09:02:05Z</time>
      </trkpt>
      <trkpt lat="47.82675" lon="7.1366">
        <ele>445.23</ele>
        <time>2015-01-08T09:02:14Z</time>
      </trkpt>
      <trkpt lat="47.82676" lon="7.13652">
        <ele>446.67</ele>
        <time>2015-01-08T09:02:22Z</time>
      </trkpt>
      <trkpt lat="47.82678" lon="7.13644">
        <ele>447.15</ele>
        <time>2015-01-08T09:02:32Z</time>
      </trkpt>
      <trkpt lat="47.82676" lon="7.13642">
        <ele>446.67</ele>
        <time>2015-01-08T09:02:46Z</time>
      </trkpt>
      <trkpt lat="47.82677" lon="7.13636">
        <ele>447.15</ele>
        <time>2015-01-08T09:02:57Z</time>
      </trkpt>
      <trkpt lat="47.82679" lon="7.13627">
        <ele>450.03</ele>
        <time>2015-01-08T09:03:05Z</time>
      </trkpt>
      <trkpt lat="47.82682" lon="7.13622">
        <ele>451.48</ele>
        <time>2015-01-08T09:03:13Z</time>
      </trkpt>
      <trkpt lat="47.82685" lon="7.13615">
        <ele>451.96</ele>
        <time>2015-01-08T09:03:21Z</time>
      </trkpt>
      <trkpt lat="47.82682" lon="7.13615">
        <ele>453.88</ele>
        <time>2015-01-08T09:03:29Z</time>
      </trkpt>
      <trkpt lat="47.82682" lon="7.13609">
        <ele>453.88</ele>
        <time>2015-01-08T09:03:37Z</time>
      </trkpt>
      <trkpt lat="47.82683" lon="7.13601">
        <ele>453.4</ele>
        <time>2015-01-08T09:03:44Z</time>
      </trkpt>
      <trkpt lat="47.82684" lon="7.13598">
        <ele>454.36</ele>
        <time>2015-01-08T09:03:50Z</time>
      </trkpt>
      <trkpt lat="47.82685" lon="7.13587">
        <ele>455.8</ele>
        <time>2015-01-08T09:04:01Z</time>
      </trkpt>
      <trkpt lat="47.82687" lon="7.13579">
        <ele>457.24</ele>
        <time>2015-01-08T09:04:09Z</time>
      </trkpt>
      <trkpt lat="47.82685" lon="7.13581">
        <ele>457.72</ele>
        <time>2015-01-08T09:04:16Z</time>
      </trkpt>
      <trkpt lat="47.82682" lon="7.13585">
        <ele>458.69</ele>
        <time>2015-01-08T09:04:26Z</time>
      </trkpt>
      <trkpt lat="47.82678" lon="7.13592">
        <ele>457.72</ele>
        <time>2015-01-08T09:04:34Z</time>
      </trkpt>
      <trkpt lat="47.82677" lon="7.13598">
        <ele>457.24</ele>
        <time>2015-01-08T09:04:40Z</time>
      </trkpt>
      <trkpt lat="47.82672" lon="7.13604">
        <ele>457.24</ele>
        <time>2015-01-08T09:04:48Z</time>
      </trkpt>
      <trkpt lat="47.82668" lon="7.13611">
        <ele>460.13</ele>
        <time>2015-01-08T09:04:58Z</time>
      </trkpt>
      <trkpt lat="47.82664" lon="7.13615">
        <ele>462.53</ele>
        <time>2015-01-08T09:05:07Z</time>
      </trkpt>
      <trkpt lat="47.82662" lon="7.13618">
        <ele>460.61</ele>
        <time>2015-01-08T09:05:15Z</time>
      </trkpt>
      <trkpt lat="47.82662" lon="7.1362">
        <ele>458.69</ele>
        <time>2015-01-08T09:05:26Z</time>
      </trkpt>
      <trkpt lat="47.82656" lon="7.13625">
        <ele>459.17</ele>
        <time>2015-01-08T09:05:34Z</time>
      </trkpt>
      <trkpt lat="47.82652" lon="7.13629">
        <ele>459.65</ele>
        <time>2015-01-08T09:05:41Z</time>
      </trkpt>
      <trkpt lat="47.82651" lon="7.13631">
        <ele>459.65</ele>
        <time>2015-01-08T09:05:50Z</time>
      </trkpt>
      <trkpt lat="47.82647" lon="7.13632">
        <ele>461.57</ele>
        <time>2015-01-08T09:05:58Z</time>
      </trkpt>
      <trkpt lat="47.82642" lon="7.1363">
        <ele>462.05</ele>
        <time>2015-01-08T09:06:05Z</time>
      </trkpt>
      <trkpt lat="47.82644" lon="7.13622">
        <ele>462.53</ele>
        <time>2015-01-08T09:06:14Z</time>
      </trkpt>
      <trkpt lat="47.82645" lon="7.13615">
        <ele>463.49</ele>
        <time>2015-01-08T09:06:22Z</time>
      </trkpt>
      <trkpt lat="47.82646" lon="7.13611">
        <ele>463.49</ele>
        <time>2015-01-08T09:06:31Z</time>
      </trkpt>
      <trkpt lat="47.82646" lon="7.13607">
        <ele>463.49</ele>
        <time>2015-01-08T09:06:40Z</time>
      </trkpt>
      <trkpt lat="47.82646" lon="7.13602">
        <ele>463.49</ele>
        <time>2015-01-08T09:06:49Z</time>
      </trkpt>
      <trkpt lat="47.82648" lon="7.13593">
        <ele>464.45</ele>
        <time>2015-01-08T09:06:58Z</time>
      </trkpt>
      <trkpt lat="47.82651" lon="7.1359">
        <ele>465.9</ele>
        <time>2015-01-08T09:07:08Z</time>
      </trkpt>
      <trkpt lat="47.82653" lon="7.13582">
        <ele>467.82</ele>
        <time>2015-01-08T09:07:18Z</time>
      </trkpt>
      <trkpt lat="47.82655" lon="7.1358">
        <ele>469.26</ele>
        <time>2015-01-08T09:07:25Z</time>
      </trkpt>
      <trkpt lat="47.82656" lon="7.13576">
        <ele>470.7</ele>
        <time>2015-01-08T09:07:33Z</time>
      </trkpt>
      <trkpt lat="47.82659" lon="7.13566">
        <ele>473.11</ele>
        <time>2015-01-08T09:07:42Z</time>
      </trkpt>
      <trkpt lat="47.82664" lon="7.13552">
        <ele>472.63</ele>
        <time>2015-01-08T09:07:53Z</time>
      </trkpt>
      <trkpt lat="47.82664" lon="7.13546">
        <ele>473.11</ele>
        <time>2015-01-08T09:08:01Z</time>
      </trkpt>
      <trkpt lat="47.82666" lon="7.1354">
        <ele>474.07</ele>
        <time>2015-01-08T09:08:09Z</time>
      </trkpt>
      <trkpt lat="47.82666" lon="7.13534">
        <ele>474.55</ele>
        <time>2015-01-08T09:08:17Z</time>
      </trkpt>
      <trkpt lat="47.82668" lon="7.13528">
        <ele>477.43</ele>
        <time>2015-01-08T09:08:25Z</time>
      </trkpt>
      <trkpt lat="47.82669" lon="7.13522">
        <ele>477.91</ele>
        <time>2015-01-08T09:08:33Z</time>
      </trkpt>
      <trkpt lat="47.8267" lon="7.13518">
        <ele>480.32</ele>
        <time>2015-01-08T09:08:40Z</time>
      </trkpt>
      <trkpt lat="47.8267" lon="7.13515">
        <ele>480.8</ele>
        <time>2015-01-08T09:08:47Z</time>
      </trkpt>
      <trkpt lat="47.82669" lon="7.13513">
        <ele>482.72</ele>
        <time>2015-01-08T09:08:54Z</time>
      </trkpt>
      <trkpt lat="47.82671" lon="7.13507">
        <ele>483.2</ele>
        <time>2015-01-08T09:09:01Z</time>
      </trkpt>
      <trkpt lat="47.82672" lon="7.13501">
        <ele>484.16</ele>
        <time>2015-01-08T09:09:08Z</time>
      </trkpt>
      <trkpt lat="47.82672" lon="7.13496">
        <ele>485.12</ele>
        <time>2015-01-08T09:09:17Z</time>
      </trkpt>
      <trkpt lat="47.82672" lon="7.13491">
        <ele>486.56</ele>
        <time>2015-01-08T09:09:24Z</time>
      </trkpt>
      <trkpt lat="47.82672" lon="7.13487">
        <ele>484.64</ele>
        <time>2015-01-08T09:09:30Z</time>
      </trkpt>
      <trkpt lat="47.82673" lon="7.13481">
        <ele>485.6</ele>
        <time>2015-01-08T09:09:37Z</time>
      </trkpt>
      <trkpt lat="47.82675" lon="7.13477">
        <ele>486.08</ele>
        <time>2015-01-08T09:09:45Z</time>
      </trkpt>
      <trkpt lat="47.82674" lon="7.13478">
        <ele>486.56</ele>
        <time>2015-01-08T09:09:53Z</time>
      </trkpt>
      <trkpt lat="47.82671" lon="7.13481">
        <ele>486.08</ele>
        <time>2015-01-08T09:09:59Z</time>
      </trkpt>
      <trkpt lat="47.82667" lon="7.13485">
        <ele>486.56</ele>
        <time>2015-01-08T09:10:06Z</time>
      </trkpt>
      <trkpt lat="47.82663" lon="7.1349">
        <ele>486.08</ele>
        <time>2015-01-08T09:10:16Z</time>
      </trkpt>
      <trkpt lat="47.82659" lon="7.13498">
        <ele>485.6</ele>
        <time>2015-01-08T09:10:24Z</time>
      </trkpt>
      <trkpt lat="47.82657" lon="7.13502">
        <ele>486.56</ele>
        <time>2015-01-08T09:10:32Z</time>
      </trkpt>
      <trkpt lat="47.82653" lon="7.13507">
        <ele>488.01</ele>
        <time>2015-01-08T09:10:41Z</time>
      </trkpt>
      <trkpt lat="47.82651" lon="7.13509">
        <ele>489.45</ele>
        <time>2015-01-08T09:10:50Z</time>
      </trkpt>
      <trkpt lat="47.82647" lon="7.13511">
        <ele>490.41</ele>
        <time>2015-01-08T09:10:57Z</time>
      </trkpt>
      <trkpt lat="47.82646" lon="7.13513">
        <ele>490.89</ele>
        <time>2015-01-08T09:11:03Z</time>
      </trkpt>
      <trkpt lat="47.82644" lon="7.13518">
        <ele>490.89</ele>
        <time>2015-01-08T09:11:11Z</time>
      </trkpt>
      <trkpt lat="47.82642" lon="7.13523">
        <ele>490.41</ele>
        <time>2015-01-08T09:11:19Z</time>
      </trkpt>
      <trkpt lat="47.82643" lon="7.13523">
        <ele>489.45</ele>
        <time>2015-01-08T09:11:28Z</time>
      </trkpt>
      <trkpt lat="47.82641" lon="7.13527">
        <ele>488.01</ele>
        <time>2015-01-08T09:11:36Z</time>
      </trkpt>
      <trkpt lat="47.82641" lon="7.13532">
        <ele>487.53</ele>
        <time>2015-01-08T09:11:50Z</time>
      </trkpt>
      <trkpt lat="47.82637" lon="7.13532">
        <ele>488.97</ele>
        <time>2015-01-08T09:11:59Z</time>
      </trkpt>
      <trkpt lat="47.82637" lon="7.13532">
        <ele>489.45</ele>
        <time>2015-01-08T09:12:08Z</time>
      </trkpt>
      <trkpt lat="47.82637" lon="7.13531">
        <ele>489.93</ele>
        <time>2015-01-08T09:12:17Z</time>
      </trkpt>
      <trkpt lat="47.82638" lon="7.13532">
        <ele>489.93</ele>
        <time>2015-01-08T09:12:28Z</time>
      </trkpt>
      <trkpt lat="47.82636" lon="7.1353">
        <ele>489.93</ele>
        <time>2015-01-08T09:12:40Z</time>
      </trkpt>
      <trkpt lat="47.82634" lon="7.13528">
        <ele>489.93</ele>
        <time>2015-01-08T09:12:53Z</time>
      </trkpt>
      <trkpt lat="47.82635" lon="7.13528">
        <ele>491.85</ele>
        <time>2015-01-08T09:13:09Z</time>
      </trkpt>
      <trkpt lat="47.82636" lon="7.13529">
        <ele>492.81</ele>
        <time>2015-01-08T09:13:16Z</time>
      </trkpt>
      <trkpt lat="47.82639" lon="7.13528">
        <ele>493.29</ele>
        <time>2015-01-08T09:13:23Z</time>
      </trkpt>
      <trkpt lat="47.82641" lon="7.13526">
        <ele>493.77</ele>
        <time>2015-01-08T09:13:32Z</time>
      </trkpt>
      <trkpt lat="47.82639" lon="7.13518">
        <ele>493.29</ele>
        <time>2015-01-08T09:13:40Z</time>
      </trkpt>
      <trkpt lat="47.82641" lon="7.1351">
        <ele>494.26</ele>
        <time>2015-01-08T09:13:47Z</time>
      </trkpt>
      <trkpt lat="47.82643" lon="7.13504">
        <ele>496.66</ele>
        <time>2015-01-08T09:13:55Z</time>
      </trkpt>
      <trkpt lat="47.82646" lon="7.13497">
        <ele>497.14</ele>
        <time>2015-01-08T09:14:03Z</time>
      </trkpt>
      <trkpt lat="47.82648" lon="7.13489">
        <ele>497.62</ele>
        <time>2015-01-08T09:14:11Z</time>
      </trkpt>
      <trkpt lat="47.82647" lon="7.1348">
        <ele>499.06</ele>
        <time>2015-01-08T09:14:19Z</time>
      </trkpt>
      <trkpt lat="47.82649" lon="7.13476">
        <ele>500.02</ele>
        <time>2015-01-08T09:14:26Z</time>
      </trkpt>
      <trkpt lat="47.82653" lon="7.13465">
        <ele>500.02</ele>
        <time>2015-01-08T09:14:37Z</time>
      </trkpt>
      <trkpt lat="47.82653" lon="7.13462">
        <ele>500.98</ele>
        <time>2015-01-08T09:14:47Z</time>
      </trkpt>
      <trkpt lat="47.82654" lon="7.13457">
        <ele>502.91</ele>
        <time>2015-01-08T09:14:56Z</time>
      </trkpt>
      <trkpt lat="47.82655" lon="7.13453">
        <ele>503.39</ele>
        <time>2015-01-08T09:15:03Z</time>
      </trkpt>
      <trkpt lat="47.82656" lon="7.13448">
        <ele>504.35</ele>
        <time>2015-01-08T09:15:12Z</time>
      </trkpt>
      <trkpt lat="47.82656" lon="7.13443">
        <ele>507.23</ele>
        <time>2015-01-08T09:15:20Z</time>
      </trkpt>
      <trkpt lat="47.82657" lon="7.13438">
        <ele>507.71</ele>
        <time>2015-01-08T09:15:28Z</time>
      </trkpt>
      <trkpt lat="47.82658" lon="7.13431">
        <ele>507.71</ele>
        <time>2015-01-08T09:15:37Z</time>
      </trkpt>
      <trkpt lat="47.8266" lon="7.13425">
        <ele>507.71</ele>
        <time>2015-01-08T09:15:47Z</time>
      </trkpt>
      <trkpt lat="47.82661" lon="7.13417">
        <ele>507.23</ele>
        <time>2015-01-08T09:15:57Z</time>
      </trkpt>
      <trkpt lat="47.82662" lon="7.13407">
        <ele>508.19</ele>
        <time>2015-01-08T09:16:10Z</time>
      </trkpt>
      <trkpt lat="47.82661" lon="7.134">
        <ele>509.64</ele>
        <time>2015-01-08T09:16:19Z</time>
      </trkpt>
      <trkpt lat="47.82661" lon="7.13394">
        <ele>511.08</ele>
        <time>2015-01-08T09:16:28Z</time>
      </trkpt>
      <trkpt lat="47.82662" lon="7.13389">
        <ele>512.04</ele>
        <time>2015-01-08T09:16:34Z</time>
      </trkpt>
      <trkpt lat="47.82663" lon="7.1338">
        <ele>512.04</ele>
        <time>2015-01-08T09:16:43Z</time>
      </trkpt>
      <trkpt lat="47.82662" lon="7.13372">
        <ele>511.56</ele>
        <time>2015-01-08T09:16:53Z</time>
      </trkpt>
      <trkpt lat="47.8266" lon="7.13369">
        <ele>511.08</ele>
        <time>2015-01-08T09:17:01Z</time>
      </trkpt>
      <trkpt lat="47.8266" lon="7.13362">
        <ele>512.04</ele>
        <time>2015-01-08T09:17:09Z</time>
      </trkpt>
      <trkpt lat="47.8266" lon="7.13354">
        <ele>513</ele>
        <time>2015-01-08T09:17:17Z</time>
      </trkpt>
      <trkpt lat="47.82661" lon="7.13345">
        <ele>513.48</ele>
        <time>2015-01-08T09:17:26Z</time>
      </trkpt>
      <trkpt lat="47.8266" lon="7.13335">
        <ele>513.48</ele>
        <time>2015-01-08T09:17:36Z</time>
      </trkpt>
      <trkpt lat="47.82659" lon="7.13329">
        <ele>514.44</ele>
        <time>2015-01-08T09:17:45Z</time>
      </trkpt>
      <trkpt lat="47.82659" lon="7.13326">
        <ele>515.4</ele>
        <time>2015-01-08T09:17:52Z</time>
      </trkpt>
      <trkpt lat="47.82658" lon="7.13319">
        <ele>515.88</ele>
        <time>2015-01-08T09:18:00Z</time>
      </trkpt>
      <trkpt lat="47.82658" lon="7.13315">
        <ele>517.33</ele>
        <time>2015-01-08T09:18:08Z</time>
      </trkpt>
      <trkpt lat="47.82659" lon="7.13314">
        <ele>519.25</ele>
        <time>2015-01-08T09:18:19Z</time>
      </trkpt>
      <trkpt lat="47.82659" lon="7.1331">
        <ele>522.61</ele>
        <time>2015-01-08T09:18:26Z</time>
      </trkpt>
      <trkpt lat="47.82658" lon="7.13313">
        <ele>522.61</ele>
        <time>2015-01-08T09:18:32Z</time>
      </trkpt>
      <trkpt lat="47.82656" lon="7.1332">
        <ele>523.09</ele>
        <time>2015-01-08T09:18:40Z</time>
      </trkpt>
      <trkpt lat="47.82653" lon="7.1333">
        <ele>523.58</ele>
        <time>2015-01-08T09:18:50Z</time>
      </trkpt>
      <trkpt lat="47.82653" lon="7.13336">
        <ele>525.02</ele>
        <time>2015-01-08T09:18:59Z</time>
      </trkpt>
      <trkpt lat="47.82651" lon="7.13343">
        <ele>524.54</ele>
        <time>2015-01-08T09:19:06Z</time>
      </trkpt>
      <trkpt lat="47.82647" lon="7.13351">
        <ele>524.54</ele>
        <time>2015-01-08T09:19:15Z</time>
      </trkpt>
      <trkpt lat="47.82644" lon="7.13359">
        <ele>525.02</ele>
        <time>2015-01-08T09:19:22Z</time>
      </trkpt>
      <trkpt lat="47.82642" lon="7.13367">
        <ele>525.98</ele>
        <time>2015-01-08T09:19:30Z</time>
      </trkpt>
      <trkpt lat="47.82639" lon="7.13375">
        <ele>525.98</ele>
        <time>2015-01-08T09:19:38Z</time>
      </trkpt>
      <trkpt lat="47.82636" lon="7.1338">
        <ele>526.94</ele>
        <time>2015-01-08T09:19:45Z</time>
      </trkpt>
      <trkpt lat="47.82633" lon="7.13388">
        <ele>527.9</ele>
        <time>2015-01-08T09:19:53Z</time>
      </trkpt>
      <trkpt lat="47.82631" lon="7.13395">
        <ele>527.9</ele>
        <time>2015-01-08T09:20:00Z</time>
      </trkpt>
      <trkpt lat="47.82627" lon="7.13403">
        <ele>527.9</ele>
        <time>2015-01-08T09:20:08Z</time>
      </trkpt>
      <trkpt lat="47.82624" lon="7.13405">
        <ele>527.42</ele>
        <time>2015-01-08T09:20:16Z</time>
      </trkpt>
      <trkpt lat="47.82621" lon="7.13411">
        <ele>527.42</ele>
        <time>2015-01-08T09:20:22Z</time>
      </trkpt>
      <trkpt lat="47.82618" lon="7.13419">
        <ele>528.38</ele>
        <time>2015-01-08T09:20:30Z</time>
      </trkpt>
      <trkpt lat="47.82613" lon="7.1343">
        <ele>528.86</ele>
        <time>2015-01-08T09:20:40Z</time>
      </trkpt>
      <trkpt lat="47.82606" lon="7.13436">
        <ele>530.3</ele>
        <time>2015-01-08T09:20:49Z</time>
      </trkpt>
      <trkpt lat="47.82601" lon="7.13439">
        <ele>531.27</ele>
        <time>2015-01-08T09:20:56Z</time>
      </trkpt>
      <trkpt lat="47.82596" lon="7.13439">
        <ele>532.71</ele>
        <time>2015-01-08T09:21:03Z</time>
      </trkpt>
      <trkpt lat="47.82591" lon="7.13438">
        <ele>533.19</ele>
        <time>2015-01-08T09:21:11Z</time>
      </trkpt>
      <trkpt lat="47.82585" lon="7.13435">
        <ele>533.67</ele>
        <time>2015-01-08T09:21:19Z</time>
      </trkpt>
      <trkpt lat="47.82579" lon="7.13433">
        <ele>532.71</ele>
        <time>2015-01-08T09:21:27Z</time>
      </trkpt>
      <trkpt lat="47.82572" lon="7.13427">
        <ele>533.19</ele>
        <time>2015-01-08T09:21:35Z</time>
      </trkpt>
      <trkpt lat="47.82567" lon="7.1342">
        <ele>533.19</ele>
        <time>2015-01-08T09:21:44Z</time>
      </trkpt>
      <trkpt lat="47.82562" lon="7.13415">
        <ele>535.11</ele>
        <time>2015-01-08T09:21:52Z</time>
      </trkpt>
      <trkpt lat="47.82559" lon="7.1341">
        <ele>535.11</ele>
        <time>2015-01-08T09:21:59Z</time>
      </trkpt>
      <trkpt lat="47.82555" lon="7.13403">
        <ele>535.11</ele>
        <time>2015-01-08T09:22:08Z</time>
      </trkpt>
      <trkpt lat="47.82552" lon="7.13397">
        <ele>536.55</ele>
        <time>2015-01-08T09:22:16Z</time>
      </trkpt>
      <trkpt lat="47.82551" lon="7.13396">
        <ele>536.07</ele>
        <time>2015-01-08T09:22:23Z</time>
      </trkpt>
      <trkpt lat="47.82549" lon="7.13389">
        <ele>537.03</ele>
        <time>2015-01-08T09:22:29Z</time>
      </trkpt>
      <trkpt lat="47.82546" lon="7.13382">
        <ele>536.55</ele>
        <time>2015-01-08T09:22:36Z</time>
      </trkpt>
      <trkpt lat="47.82544" lon="7.13374">
        <ele>537.03</ele>
        <time>2015-01-08T09:22:43Z</time>
      </trkpt>
      <trkpt lat="47.82544" lon="7.13365">
        <ele>536.55</ele>
        <time>2015-01-08T09:22:51Z</time>
      </trkpt>
      <trkpt lat="47.82542" lon="7.13356">
        <ele>536.55</ele>
        <time>2015-01-08T09:22:59Z</time>
      </trkpt>
      <trkpt lat="47.82541" lon="7.13347">
        <ele>536.55</ele>
        <time>2015-01-08T09:23:08Z</time>
      </trkpt>
      <trkpt lat="47.8254" lon="7.13344">
        <ele>537.03</ele>
        <time>2015-01-08T09:23:16Z</time>
      </trkpt>
      <trkpt lat="47.8254" lon="7.13337">
        <ele>537.99</ele>
        <time>2015-01-08T09:23:25Z</time>
      </trkpt>
      <trkpt lat="47.82538" lon="7.13325">
        <ele>538.96</ele>
        <time>2015-01-08T09:23:34Z</time>
      </trkpt>
      <trkpt lat="47.82538" lon="7.13318">
        <ele>539.92</ele>
        <time>2015-01-08T09:23:41Z</time>
      </trkpt>
      <trkpt lat="47.82536" lon="7.13312">
        <ele>542.32</ele>
        <time>2015-01-08T09:23:47Z</time>
      </trkpt>
      <trkpt lat="47.82535" lon="7.13304">
        <ele>543.28</ele>
        <time>2015-01-08T09:23:56Z</time>
      </trkpt>
      <trkpt lat="47.82531" lon="7.13293">
        <ele>547.13</ele>
        <time>2015-01-08T09:24:04Z</time>
      </trkpt>
      <trkpt lat="47.82532" lon="7.13289">
        <ele>547.61</ele>
        <time>2015-01-08T09:24:11Z</time>
      </trkpt>
      <trkpt lat="47.82529" lon="7.13279">
        <ele>548.57</ele>
        <time>2015-01-08T09:24:21Z</time>
      </trkpt>
      <trkpt lat="47.82526" lon="7.13271">
        <ele>550.97</ele>
        <time>2015-01-08T09:24:30Z</time>
      </trkpt>
      <trkpt lat="47.82521" lon="7.13263">
        <ele>552.41</ele>
        <time>2015-01-08T09:24:39Z</time>
      </trkpt>
      <trkpt lat="47.82518" lon="7.13255">
        <ele>552.41</ele>
        <time>2015-01-08T09:24:49Z</time>
      </trkpt>
      <trkpt lat="47.82513" lon="7.13252">
        <ele>554.82</ele>
        <time>2015-01-08T09:24:57Z</time>
      </trkpt>
      <trkpt lat="47.82509" lon="7.13246">
        <ele>555.3</ele>
        <time>2015-01-08T09:25:05Z</time>
      </trkpt>
      <trkpt lat="47.82505" lon="7.1324">
        <ele>556.26</ele>
        <time>2015-01-08T09:25:16Z</time>
      </trkpt>
      <trkpt lat="47.82502" lon="7.13233">
        <ele>556.26</ele>
        <time>2015-01-08T09:25:24Z</time>
      </trkpt>
      <trkpt lat="47.82497" lon="7.13224">
        <ele>557.22</ele>
        <time>2015-01-08T09:25:33Z</time>
      </trkpt>
      <trkpt lat="47.82493" lon="7.13219">
        <ele>556.74</ele>
        <time>2015-01-08T09:25:40Z</time>
      </trkpt>
      <trkpt lat="47.82487" lon="7.13213">
        <ele>559.62</ele>
        <time>2015-01-08T09:25:48Z</time>
      </trkpt>
      <trkpt lat="47.82481" lon="7.13206">
        <ele>560.59</ele>
        <time>2015-01-08T09:25:59Z</time>
      </trkpt>
      <trkpt lat="47.82478" lon="7.13201">
        <ele>560.11</ele>
        <time>2015-01-08T09:26:05Z</time>
      </trkpt>
      <trkpt lat="47.82476" lon="7.13198">
        <ele>560.11</ele>
        <time>2015-01-08T09:26:11Z</time>
      </trkpt>
      <trkpt lat="47.82471" lon="7.13193">
        <ele>559.62</ele>
        <time>2015-01-08T09:26:18Z</time>
      </trkpt>
      <trkpt lat="47.82468" lon="7.13188">
        <ele>561.07</ele>
        <time>2015-01-08T09:26:26Z</time>
      </trkpt>
      <trkpt lat="47.82463" lon="7.13184">
        <ele>562.51</ele>
        <time>2015-01-08T09:26:33Z</time>
      </trkpt>
      <trkpt lat="47.82459" lon="7.13179">
        <ele>563.47</ele>
        <time>2015-01-08T09:26:40Z</time>
      </trkpt>
      <trkpt lat="47.82456" lon="7.13176">
        <ele>563.95</ele>
        <time>2015-01-08T09:26:47Z</time>
      </trkpt>
      <trkpt lat="47.82452" lon="7.1317">
        <ele>564.43</ele>
        <time>2015-01-08T09:26:54Z</time>
      </trkpt>
      <trkpt lat="47.82449" lon="7.13164">
        <ele>563.47</ele>
        <time>2015-01-08T09:27:01Z</time>
      </trkpt>
      <trkpt lat="47.82446" lon="7.13158">
        <ele>563.47</ele>
        <time>2015-01-08T09:27:11Z</time>
      </trkpt>
      <trkpt lat="47.82441" lon="7.13149">
        <ele>565.39</ele>
        <time>2015-01-08T09:27:19Z</time>
      </trkpt>
      <trkpt lat="47.82435" lon="7.13143">
        <ele>569.72</ele>
        <time>2015-01-08T09:27:28Z</time>
      </trkpt>
      <trkpt lat="47.82431" lon="7.13134">
        <ele>571.64</ele>
        <time>2015-01-08T09:27:36Z</time>
      </trkpt>
      <trkpt lat="47.82431" lon="7.13125">
        <ele>572.6</ele>
        <time>2015-01-08T09:27:45Z</time>
      </trkpt>
      <trkpt lat="47.82431" lon="7.13116">
        <ele>572.6</ele>
        <time>2015-01-08T09:27:53Z</time>
      </trkpt>
      <trkpt lat="47.82432" lon="7.13108">
        <ele>572.12</ele>
        <time>2015-01-08T09:28:00Z</time>
      </trkpt>
      <trkpt lat="47.82433" lon="7.13108">
        <ele>571.64</ele>
        <time>2015-01-08T09:28:08Z</time>
      </trkpt>
      <trkpt lat="47.82434" lon="7.13107">
        <ele>570.68</ele>
        <time>2015-01-08T09:28:19Z</time>
      </trkpt>
      <trkpt lat="47.82436" lon="7.13103">
        <ele>570.68</ele>
        <time>2015-01-08T09:28:26Z</time>
      </trkpt>
      <trkpt lat="47.82441" lon="7.13096">
        <ele>569.72</ele>
        <time>2015-01-08T09:28:36Z</time>
      </trkpt>
      <trkpt lat="47.82447" lon="7.13089">
        <ele>570.68</ele>
        <time>2015-01-08T09:28:46Z</time>
      </trkpt>
      <trkpt lat="47.8245" lon="7.13084">
        <ele>572.6</ele>
        <time>2015-01-08T09:28:54Z</time>
      </trkpt>
      <trkpt lat="47.82454" lon="7.13078">
        <ele>574.04</ele>
        <time>2015-01-08T09:29:03Z</time>
      </trkpt>
      <trkpt lat="47.82458" lon="7.13073">
        <ele>575.49</ele>
        <time>2015-01-08T09:29:12Z</time>
      </trkpt>
      <trkpt lat="47.8246" lon="7.13067">
        <ele>576.93</ele>
        <time>2015-01-08T09:29:24Z</time>
      </trkpt>
      <trkpt lat="47.82464" lon="7.13061">
        <ele>579.81</ele>
        <time>2015-01-08T09:29:32Z</time>
      </trkpt>
      <trkpt lat="47.82468" lon="7.13056">
        <ele>579.81</ele>
        <time>2015-01-08T09:29:41Z</time>
      </trkpt>
      <trkpt lat="47.82474" lon="7.13046">
        <ele>580.77</ele>
        <time>2015-01-08T09:29:52Z</time>
      </trkpt>
      <trkpt lat="47.82477" lon="7.13042">
        <ele>581.25</ele>
        <time>2015-01-08T09:29:59Z</time>
      </trkpt>
      <trkpt lat="47.8248" lon="7.13037">
        <ele>582.22</ele>
        <time>2015-01-08T09:30:07Z</time>
      </trkpt>
      <trkpt lat="47.82484" lon="7.13033">
        <ele>583.66</ele>
        <time>2015-01-08T09:30:16Z</time>
      </trkpt>
      <trkpt lat="47.82487" lon="7.13029">
        <ele>584.62</ele>
        <time>2015-01-08T09:30:23Z</time>
      </trkpt>
      <trkpt lat="47.82492" lon="7.13025">
        <ele>586.06</ele>
        <time>2015-01-08T09:30:32Z</time>
      </trkpt>
      <trkpt lat="47.82498" lon="7.13022">
        <ele>587.02</ele>
        <time>2015-01-08T09:30:40Z</time>
      </trkpt>
      <trkpt lat="47.82504" lon="7.13023">
        <ele>587.98</ele>
        <time>2015-01-08T09:30:48Z</time>
      </trkpt>
      <trkpt lat="47.82512" lon="7.13023">
        <ele>589.43</ele>
        <time>2015-01-08T09:30:57Z</time>
      </trkpt>
      <trkpt lat="47.82516" lon="7.13022">
        <ele>588.95</ele>
        <time>2015-01-08T09:31:04Z</time>
      </trkpt>
      <trkpt lat="47.8252" lon="7.1302">
        <ele>590.39</ele>
        <time>2015-01-08T09:31:10Z</time>
      </trkpt>
      <trkpt lat="47.82523" lon="7.13017">
        <ele>591.35</ele>
        <time>2015-01-08T09:31:17Z</time>
      </trkpt>
      <trkpt lat="47.82527" lon="7.13014">
        <ele>591.35</ele>
        <time>2015-01-08T09:31:25Z</time>
      </trkpt>
      <trkpt lat="47.82531" lon="7.13012">
        <ele>592.31</ele>
        <time>2015-01-08T09:31:33Z</time>
      </trkpt>
      <trkpt lat="47.82533" lon="7.13009">
        <ele>591.83</ele>
        <time>2015-01-08T09:31:40Z</time>
      </trkpt>
      <trkpt lat="47.82538" lon="7.13004">
        <ele>593.27</ele>
        <time>2015-01-08T09:31:49Z</time>
      </trkpt>
      <trkpt lat="47.82541" lon="7.13001">
        <ele>594.23</ele>
        <time>2015-01-08T09:31:56Z</time>
      </trkpt>
      <trkpt lat="47.82544" lon="7.12998">
        <ele>595.19</ele>
        <time>2015-01-08T09:32:02Z</time>
      </trkpt>
      <trkpt lat="47.82546" lon="7.12996">
        <ele>595.67</ele>
        <time>2015-01-08T09:32:10Z</time>
      </trkpt>
      <trkpt lat="47.8255" lon="7.12992">
        <ele>594.71</ele>
        <time>2015-01-08T09:32:17Z</time>
      </trkpt>
      <trkpt lat="47.82553" lon="7.12987">
        <ele>593.75</ele>
        <time>2015-01-08T09:32:26Z</time>
      </trkpt>
      <trkpt lat="47.82556" lon="7.12982">
        <ele>594.71</ele>
        <time>2015-01-08T09:32:34Z</time>
      </trkpt>
      <trkpt lat="47.82559" lon="7.12975">
        <ele>596.15</ele>
        <time>2015-01-08T09:32:43Z</time>
      </trkpt>
      <trkpt lat="47.82562" lon="7.12966">
        <ele>598.08</ele>
        <time>2015-01-08T09:32:53Z</time>
      </trkpt>
      <trkpt lat="47.82563" lon="7.12963">
        <ele>599.04</ele>
        <time>2015-01-08T09:32:59Z</time>
      </trkpt>
      <trkpt lat="47.82565" lon="7.12956">
        <ele>599.04</ele>
        <time>2015-01-08T09:33:07Z</time>
      </trkpt>
      <trkpt lat="47.82568" lon="7.1295">
        <ele>599.52</ele>
        <time>2015-01-08T09:33:15Z</time>
      </trkpt>
      <trkpt lat="47.8257" lon="7.12945">
        <ele>600.96</ele>
        <time>2015-01-08T09:33:22Z</time>
      </trkpt>
      <trkpt lat="47.82571" lon="7.12939">
        <ele>601.44</ele>
        <time>2015-01-08T09:33:29Z</time>
      </trkpt>
      <trkpt lat="47.82573" lon="7.12932">
        <ele>602.4</ele>
        <time>2015-01-08T09:33:37Z</time>
      </trkpt>
      <trkpt lat="47.82574" lon="7.12926">
        <ele>603.85</ele>
        <time>2015-01-08T09:33:46Z</time>
      </trkpt>
      <trkpt lat="47.82576" lon="7.12924">
        <ele>604.33</ele>
        <time>2015-01-08T09:34:00Z</time>
      </trkpt>
      <trkpt lat="47.82579" lon="7.1292">
        <ele>605.29</ele>
        <time>2015-01-08T09:34:08Z</time>
      </trkpt>
      <trkpt lat="47.82581" lon="7.12913">
        <ele>606.25</ele>
        <time>2015-01-08T09:34:17Z</time>
      </trkpt>
      <trkpt lat="47.82582" lon="7.12907">
        <ele>606.73</ele>
        <time>2015-01-08T09:34:25Z</time>
      </trkpt>
      <trkpt lat="47.82585" lon="7.129">
        <ele>606.25</ele>
        <time>2015-01-08T09:34:33Z</time>
      </trkpt>
      <trkpt lat="47.82588" lon="7.12892">
        <ele>607.21</ele>
        <time>2015-01-08T09:34:41Z</time>
      </trkpt>
      <trkpt lat="47.8259" lon="7.12883">
        <ele>608.65</ele>
        <time>2015-01-08T09:34:50Z</time>
      </trkpt>
      <trkpt lat="47.82592" lon="7.12877">
        <ele>610.57</ele>
        <time>2015-01-08T09:34:57Z</time>
      </trkpt>
      <trkpt lat="47.82595" lon="7.12868">
        <ele>612.98</ele>
        <time>2015-01-08T09:35:06Z</time>
      </trkpt>
      <trkpt lat="47.82598" lon="7.12863">
        <ele>613.46</ele>
        <time>2015-01-08T09:35:12Z</time>
      </trkpt>
      <trkpt lat="47.826" lon="7.12855">
        <ele>614.42</ele>
        <time>2015-01-08T09:35:21Z</time>
      </trkpt>
      <trkpt lat="47.82603" lon="7.12848">
        <ele>614.9</ele>
        <time>2015-01-08T09:35:28Z</time>
      </trkpt>
      <trkpt lat="47.82607" lon="7.12839">
        <ele>614.9</ele>
        <time>2015-01-08T09:35:38Z</time>
      </trkpt>
      <trkpt lat="47.8261" lon="7.12833">
        <ele>615.38</ele>
        <time>2015-01-08T09:35:46Z</time>
      </trkpt>
      <trkpt lat="47.82614" lon="7.12828">
        <ele>616.34</ele>
        <time>2015-01-08T09:35:54Z</time>
      </trkpt>
      <trkpt lat="47.82616" lon="7.12823">
        <ele>617.3</ele>
        <time>2015-01-08T09:36:01Z</time>
      </trkpt>
      <trkpt lat="47.82618" lon="7.12818">
        <ele>618.26</ele>
        <time>2015-01-08T09:36:08Z</time>
      </trkpt>
      <trkpt lat="47.82621" lon="7.12811">
        <ele>620.19</ele>
        <time>2015-01-08T09:36:17Z</time>
      </trkpt>
      <trkpt lat="47.82623" lon="7.12806">
        <ele>622.11</ele>
        <time>2015-01-08T09:36:25Z</time>
      </trkpt>
      <trkpt lat="47.82626" lon="7.12797">
        <ele>624.03</ele>
        <time>2015-01-08T09:36:36Z</time>
      </trkpt>
      <trkpt lat="47.82629" lon="7.12792">
        <ele>624.03</ele>
        <time>2015-01-08T09:36:43Z</time>
      </trkpt>
      <trkpt lat="47.82633" lon="7.12784">
        <ele>623.07</ele>
        <time>2015-01-08T09:36:51Z</time>
      </trkpt>
      <trkpt lat="47.82636" lon="7.12777">
        <ele>622.11</ele>
        <time>2015-01-08T09:36:59Z</time>
      </trkpt>
      <trkpt lat="47.82638" lon="7.12771">
        <ele>623.55</ele>
        <time>2015-01-08T09:37:07Z</time>
      </trkpt>
      <trkpt lat="47.82639" lon="7.12764">
        <ele>624.51</ele>
        <time>2015-01-08T09:37:14Z</time>
      </trkpt>
      <trkpt lat="47.82638" lon="7.12754">
        <ele>627.4</ele>
        <time>2015-01-08T09:37:22Z</time>
      </trkpt>
      <trkpt lat="47.8264" lon="7.12749">
        <ele>627.88</ele>
        <time>2015-01-08T09:37:29Z</time>
      </trkpt>
      <trkpt lat="47.8264" lon="7.12746">
        <ele>627.4</ele>
        <time>2015-01-08T09:37:36Z</time>
      </trkpt>
      <trkpt lat="47.82641" lon="7.12745">
        <ele>628.84</ele>
        <time>2015-01-08T09:37:46Z</time>
      </trkpt>
      <trkpt lat="47.82643" lon="7.12737">
        <ele>627.88</ele>
        <time>2015-01-08T09:37:55Z</time>
      </trkpt>
      <trkpt lat="47.82645" lon="7.12729">
        <ele>627.88</ele>
        <time>2015-01-08T09:38:04Z</time>
      </trkpt>
      <trkpt lat="47.82646" lon="7.12722">
        <ele>627.88</ele>
        <time>2015-01-08T09:38:12Z</time>
      </trkpt>
      <trkpt lat="47.82647" lon="7.12712">
        <ele>628.84</ele>
        <time>2015-01-08T09:38:21Z</time>
      </trkpt>
      <trkpt lat="47.82646" lon="7.12704">
        <ele>630.28</ele>
        <time>2015-01-08T09:38:30Z</time>
      </trkpt>
      <trkpt lat="47.82646" lon="7.12694">
        <ele>631.24</ele>
        <time>2015-01-08T09:38:40Z</time>
      </trkpt>
      <trkpt lat="47.82646" lon="7.12691">
        <ele>632.68</ele>
        <time>2015-01-08T09:38:49Z</time>
      </trkpt>
      <trkpt lat="47.82648" lon="7.12686">
        <ele>632.2</ele>
        <time>2015-01-08T09:38:58Z</time>
      </trkpt>
      <trkpt lat="47.82648" lon="7.12684">
        <ele>633.65</ele>
        <time>2015-01-08T09:39:04Z</time>
      </trkpt>
      <trkpt lat="47.82648" lon="7.1268">
        <ele>633.65</ele>
        <time>2015-01-08T09:39:11Z</time>
      </trkpt>
      <trkpt lat="47.82649" lon="7.12677">
        <ele>633.17</ele>
        <time>2015-01-08T09:39:17Z</time>
      </trkpt>
      <trkpt lat="47.82649" lon="7.12677">
        <ele>633.17</ele>
        <time>2015-01-08T09:39:25Z</time>
      </trkpt>
      <trkpt lat="47.82648" lon="7.12676">
        <ele>632.68</ele>
        <time>2015-01-08T09:39:32Z</time>
      </trkpt>
      <trkpt lat="47.82648" lon="7.12672">
        <ele>633.65</ele>
        <time>2015-01-08T09:39:38Z</time>
      </trkpt>
      <trkpt lat="47.82649" lon="7.12669">
        <ele>634.61</ele>
        <time>2015-01-08T09:39:46Z</time>
      </trkpt>
      <trkpt lat="47.82648" lon="7.12661">
        <ele>636.53</ele>
        <time>2015-01-08T09:39:54Z</time>
      </trkpt>
      <trkpt lat="47.82648" lon="7.12654">
        <ele>636.53</ele>
        <time>2015-01-08T09:40:01Z</time>
      </trkpt>
      <trkpt lat="47.82647" lon="7.12647">
        <ele>637.01</ele>
        <time>2015-01-08T09:40:10Z</time>
      </trkpt>
      <trkpt lat="47.82647" lon="7.1264">
        <ele>637.01</ele>
        <time>2015-01-08T09:40:19Z</time>
      </trkpt>
      <trkpt lat="47.82649" lon="7.12639">
        <ele>637.49</ele>
        <time>2015-01-08T09:40:28Z</time>
      </trkpt>
      <trkpt lat="47.8265" lon="7.12634">
        <ele>637.49</ele>
        <time>2015-01-08T09:40:34Z</time>
      </trkpt>
      <trkpt lat="47.82649" lon="7.12625">
        <ele>637.01</ele>
        <time>2015-01-08T09:40:41Z</time>
      </trkpt>
      <trkpt lat="47.82649" lon="7.12616">
        <ele>638.45</ele>
        <time>2015-01-08T09:40:49Z</time>
      </trkpt>
      <trkpt lat="47.8265" lon="7.12614">
        <ele>638.93</ele>
        <time>2015-01-08T09:40:59Z</time>
      </trkpt>
      <trkpt lat="47.8265" lon="7.12607">
        <ele>640.38</ele>
        <time>2015-01-08T09:41:06Z</time>
      </trkpt>
      <trkpt lat="47.82649" lon="7.126">
        <ele>642.3</ele>
        <time>2015-01-08T09:41:14Z</time>
      </trkpt>
      <trkpt lat="47.82648" lon="7.12594">
        <ele>643.74</ele>
        <time>2015-01-08T09:41:22Z</time>
      </trkpt>
      <trkpt lat="47.82648" lon="7.12588">
        <ele>645.18</ele>
        <time>2015-01-08T09:41:31Z</time>
      </trkpt>
      <trkpt lat="47.82647" lon="7.1258">
        <ele>646.14</ele>
        <time>2015-01-08T09:41:39Z</time>
      </trkpt>
      <trkpt lat="47.82647" lon="7.12576">
        <ele>647.1</ele>
        <time>2015-01-08T09:41:44Z</time>
      </trkpt>
      <trkpt lat="47.82647" lon="7.12568">
        <ele>649.51</ele>
        <time>2015-01-08T09:41:53Z</time>
      </trkpt>
      <trkpt lat="47.82646" lon="7.12565">
        <ele>651.91</ele>
        <time>2015-01-08T09:42:02Z</time>
      </trkpt>
      <trkpt lat="47.82645" lon="7.12563">
        <ele>654.8</ele>
        <time>2015-01-08T09:42:14Z</time>
      </trkpt>
      <trkpt lat="47.82647" lon="7.1256">
        <ele>655.76</ele>
        <time>2015-01-08T09:42:23Z</time>
      </trkpt>
      <trkpt lat="47.82648" lon="7.1255">
        <ele>655.28</ele>
        <time>2015-01-08T09:42:33Z</time>
      </trkpt>
      <trkpt lat="47.8265" lon="7.12542">
        <ele>654.8</ele>
        <time>2015-01-08T09:42:42Z</time>
      </trkpt>
      <trkpt lat="47.82651" lon="7.12535">
        <ele>656.72</ele>
        <time>2015-01-08T09:42:51Z</time>
      </trkpt>
      <trkpt lat="47.8265" lon="7.12526">
        <ele>657.2</ele>
        <time>2015-01-08T09:43:00Z</time>
      </trkpt>
      <trkpt lat="47.82651" lon="7.1252">
        <ele>657.68</ele>
        <time>2015-01-08T09:43:06Z</time>
      </trkpt>
      <trkpt lat="47.82651" lon="7.12514">
        <ele>658.64</ele>
        <time>2015-01-08T09:43:13Z</time>
      </trkpt>
      <trkpt lat="47.82652" lon="7.12507">
        <ele>658.64</ele>
        <time>2015-01-08T09:43:21Z</time>
      </trkpt>
      <trkpt lat="47.82653" lon="7.12497">
        <ele>658.16</ele>
        <time>2015-01-08T09:43:31Z</time>
      </trkpt>
      <trkpt lat="47.82653" lon="7.12491">
        <ele>658.64</ele>
        <time>2015-01-08T09:43:38Z</time>
      </trkpt>
      <trkpt lat="47.82653" lon="7.12486">
        <ele>659.6</ele>
        <time>2015-01-08T09:43:45Z</time>
      </trkpt>
      <trkpt lat="47.82656" lon="7.12477">
        <ele>660.08</ele>
        <time>2015-01-08T09:43:54Z</time>
      </trkpt>
      <trkpt lat="47.82658" lon="7.12471">
        <ele>659.6</ele>
        <time>2015-01-08T09:44:03Z</time>
      </trkpt>
      <trkpt lat="47.8266" lon="7.12466">
        <ele>658.16</ele>
        <time>2015-01-08T09:44:12Z</time>
      </trkpt>
      <trkpt lat="47.82661" lon="7.12464">
        <ele>657.2</ele>
        <time>2015-01-08T09:44:23Z</time>
      </trkpt>
      <trkpt lat="47.82661" lon="7.12466">
        <ele>656.72</ele>
        <time>2015-01-08T09:44:34Z</time>
      </trkpt>
      <trkpt lat="47.82663" lon="7.12471">
        <ele>656.72</ele>
        <time>2015-01-08T09:44:43Z</time>
      </trkpt>
      <trkpt lat="47.82665" lon="7.1248">
        <ele>656.24</ele>
        <time>2015-01-08T09:44:53Z</time>
      </trkpt>
      <trkpt lat="47.82667" lon="7.12487">
        <ele>657.68</ele>
        <time>2015-01-08T09:45:02Z</time>
      </trkpt>
      <trkpt lat="47.82669" lon="7.12494">
        <ele>658.16</ele>
        <time>2015-01-08T09:45:09Z</time>
      </trkpt>
      <trkpt lat="47.82671" lon="7.12505">
        <ele>658.64</ele>
        <time>2015-01-08T09:45:19Z</time>
      </trkpt>
      <trkpt lat="47.82672" lon="7.12512">
        <ele>659.6</ele>
        <time>2015-01-08T09:45:26Z</time>
      </trkpt>
      <trkpt lat="47.82675" lon="7.1252">
        <ele>660.08</ele>
        <time>2015-01-08T09:45:35Z</time>
      </trkpt>
      <trkpt lat="47.82677" lon="7.12529">
        <ele>659.6</ele>
        <time>2015-01-08T09:45:43Z</time>
      </trkpt>
      <trkpt lat="47.82681" lon="7.12538">
        <ele>659.6</ele>
        <time>2015-01-08T09:45:52Z</time>
      </trkpt>
      <trkpt lat="47.82685" lon="7.12548">
        <ele>659.6</ele>
        <time>2015-01-08T09:46:02Z</time>
      </trkpt>
      <trkpt lat="47.82689" lon="7.12558">
        <ele>660.56</ele>
        <time>2015-01-08T09:46:11Z</time>
      </trkpt>
      <trkpt lat="47.82692" lon="7.12566">
        <ele>663.45</ele>
        <time>2015-01-08T09:46:19Z</time>
      </trkpt>
      <trkpt lat="47.82696" lon="7.12576">
        <ele>663.93</ele>
        <time>2015-01-08T09:46:29Z</time>
      </trkpt>
      <trkpt lat="47.82698" lon="7.12584">
        <ele>663.93</ele>
        <time>2015-01-08T09:46:38Z</time>
      </trkpt>
      <trkpt lat="47.827" lon="7.12588">
        <ele>665.37</ele>
        <time>2015-01-08T09:46:48Z</time>
      </trkpt>
      <trkpt lat="47.82701" lon="7.12589">
        <ele>666.81</ele>
        <time>2015-01-08T09:47:01Z</time>
      </trkpt>
      <trkpt lat="47.82706" lon="7.12593">
        <ele>666.33</ele>
        <time>2015-01-08T09:47:09Z</time>
      </trkpt>
      <trkpt lat="47.8271" lon="7.12597">
        <ele>666.81</ele>
        <time>2015-01-08T09:47:16Z</time>
      </trkpt>
      <trkpt lat="47.82715" lon="7.12604">
        <ele>667.77</ele>
        <time>2015-01-08T09:47:24Z</time>
      </trkpt>
      <trkpt lat="47.82719" lon="7.12609">
        <ele>669.22</ele>
        <time>2015-01-08T09:47:31Z</time>
      </trkpt>
      <trkpt lat="47.82723" lon="7.12614">
        <ele>669.22</ele>
        <time>2015-01-08T09:47:39Z</time>
      </trkpt>
      <trkpt lat="47.82725" lon="7.12616">
        <ele>668.73</ele>
        <time>2015-01-08T09:47:48Z</time>
      </trkpt>
      <trkpt lat="47.82729" lon="7.12619">
        <ele>668.25</ele>
        <time>2015-01-08T09:47:56Z</time>
      </trkpt>
      <trkpt lat="47.82731" lon="7.12623">
        <ele>668.73</ele>
        <time>2015-01-08T09:48:06Z</time>
      </trkpt>
      <trkpt lat="47.82732" lon="7.12624">
        <ele>669.7</ele>
        <time>2015-01-08T09:48:22Z</time>
      </trkpt>
      <trkpt lat="47.82741" lon="7.12627">
        <ele>669.7</ele>
        <time>2015-01-08T09:48:32Z</time>
      </trkpt>
      <trkpt lat="47.82744" lon="7.12628">
        <ele>671.62</ele>
        <time>2015-01-08T09:48:39Z</time>
      </trkpt>
      <trkpt lat="47.82745" lon="7.12631">
        <ele>671.62</ele>
        <time>2015-01-08T09:48:50Z</time>
      </trkpt>
      <trkpt lat="47.82749" lon="7.12634">
        <ele>672.1</ele>
        <time>2015-01-08T09:48:57Z</time>
      </trkpt>
      <trkpt lat="47.82752" lon="7.12636">
        <ele>672.58</ele>
        <time>2015-01-08T09:49:03Z</time>
      </trkpt>
      <trkpt lat="47.82753" lon="7.12634">
        <ele>673.54</ele>
        <time>2015-01-08T09:49:10Z</time>
      </trkpt>
      <trkpt lat="47.82755" lon="7.12637">
        <ele>674.02</ele>
        <time>2015-01-08T09:49:19Z</time>
      </trkpt>
      <trkpt lat="47.82757" lon="7.12636">
        <ele>673.54</ele>
        <time>2015-01-08T09:49:24Z</time>
      </trkpt>
      <trkpt lat="47.82762" lon="7.12634">
        <ele>674.5</ele>
        <time>2015-01-08T09:49:32Z</time>
      </trkpt>
      <trkpt lat="47.82767" lon="7.12634">
        <ele>674.02</ele>
        <time>2015-01-08T09:49:40Z</time>
      </trkpt>
      <trkpt lat="47.82773" lon="7.12629">
        <ele>674.5</ele>
        <time>2015-01-08T09:49:48Z</time>
      </trkpt>
      <trkpt lat="47.82773" lon="7.12625">
        <ele>674.98</ele>
        <time>2015-01-08T09:49:56Z</time>
      </trkpt>
      <trkpt lat="47.82774" lon="7.12624">
        <ele>674.02</ele>
        <time>2015-01-08T09:50:04Z</time>
      </trkpt>
      <trkpt lat="47.82779" lon="7.12619">
        <ele>674.5</ele>
        <time>2015-01-08T09:50:13Z</time>
      </trkpt>
      <trkpt lat="47.82782" lon="7.12611">
        <ele>674.98</ele>
        <time>2015-01-08T09:50:21Z</time>
      </trkpt>
      <trkpt lat="47.82783" lon="7.12601">
        <ele>674.98</ele>
        <time>2015-01-08T09:50:29Z</time>
      </trkpt>
      <trkpt lat="47.82783" lon="7.12599">
        <ele>675.46</ele>
        <time>2015-01-08T09:50:36Z</time>
      </trkpt>
      <trkpt lat="47.82784" lon="7.12597">
        <ele>676.42</ele>
        <time>2015-01-08T09:50:50Z</time>
      </trkpt>
      <trkpt lat="47.82786" lon="7.12597">
        <ele>677.39</ele>
        <time>2015-01-08T09:51:07Z</time>
      </trkpt>
      <trkpt lat="47.82786" lon="7.126">
        <ele>677.87</ele>
        <time>2015-01-08T09:51:30Z</time>
      </trkpt>
      <trkpt lat="47.82785" lon="7.12599">
        <ele>678.83</ele>
        <time>2015-01-08T09:51:55Z</time>
      </trkpt>
      <trkpt lat="47.82784" lon="7.12597">
        <ele>677.39</ele>
        <time>2015-01-08T09:52:18Z</time>
      </trkpt>
      <trkpt lat="47.82788" lon="7.1259">
        <ele>675.46</ele>
        <time>2015-01-08T09:52:27Z</time>
      </trkpt>
      <trkpt lat="47.8279" lon="7.12577">
        <ele>674.02</ele>
        <time>2015-01-08T09:52:36Z</time>
      </trkpt>
      <trkpt lat="47.8279" lon="7.12575">
        <ele>673.54</ele>
        <time>2015-01-08T09:52:37Z</time>
      </trkpt>
      <trkpt lat="47.8279" lon="7.12571">
        <ele>673.06</ele>
        <time>2015-01-08T09:52:40Z</time>
      </trkpt>
      <trkpt lat="47.82792" lon="7.12557">
        <ele>673.54</ele>
        <time>2015-01-08T09:52:49Z</time>
      </trkpt>
      <trkpt lat="47.82793" lon="7.12546">
        <ele>673.54</ele>
        <time>2015-01-08T09:52:56Z</time>
      </trkpt>
      <trkpt lat="47.82795" lon="7.12538">
        <ele>673.06</ele>
        <time>2015-01-08T09:53:01Z</time>
      </trkpt>
      <trkpt lat="47.82796" lon="7.1253">
        <ele>672.58</ele>
        <time>2015-01-08T09:53:07Z</time>
      </trkpt>
      <trkpt lat="47.82797" lon="7.12518">
        <ele>672.58</ele>
        <time>2015-01-08T09:53:14Z</time>
      </trkpt>
      <trkpt lat="47.82797" lon="7.12516">
        <ele>672.58</ele>
        <time>2015-01-08T09:53:15Z</time>
      </trkpt>
      <trkpt lat="47.82797" lon="7.12506">
        <ele>672.58</ele>
        <time>2015-01-08T09:53:22Z</time>
      </trkpt>
      <trkpt lat="47.82798" lon="7.12496">
        <ele>673.54</ele>
        <time>2015-01-08T09:53:29Z</time>
      </trkpt>
      <trkpt lat="47.82799" lon="7.12485">
        <ele>673.06</ele>
        <time>2015-01-08T09:53:36Z</time>
      </trkpt>
      <trkpt lat="47.828" lon="7.12477">
        <ele>672.1</ele>
        <time>2015-01-08T09:53:42Z</time>
      </trkpt>
      <trkpt lat="47.82801" lon="7.12466">
        <ele>672.58</ele>
        <time>2015-01-08T09:53:49Z</time>
      </trkpt>
      <trkpt lat="47.82801" lon="7.12465">
        <ele>672.58</ele>
        <time>2015-01-08T09:53:50Z</time>
      </trkpt>
      <trkpt lat="47.82803" lon="7.12457">
        <ele>673.06</ele>
        <time>2015-01-08T09:53:55Z</time>
      </trkpt>
      <trkpt lat="47.82804" lon="7.12445">
        <ele>673.06</ele>
        <time>2015-01-08T09:54:03Z</time>
      </trkpt>
      <trkpt lat="47.82805" lon="7.12438">
        <ele>673.54</ele>
        <time>2015-01-08T09:54:09Z</time>
      </trkpt>
      <trkpt lat="47.82805" lon="7.1243">
        <ele>674.5</ele>
        <time>2015-01-08T09:54:15Z</time>
      </trkpt>
      <trkpt lat="47.82805" lon="7.12428">
        <ele>674.98</ele>
        <time>2015-01-08T09:54:17Z</time>
      </trkpt>
      <trkpt lat="47.82807" lon="7.12419">
        <ele>675.94</ele>
        <time>2015-01-08T09:54:24Z</time>
      </trkpt>
      <trkpt lat="47.82809" lon="7.1241">
        <ele>676.91</ele>
        <time>2015-01-08T09:54:30Z</time>
      </trkpt>
      <trkpt lat="47.8281" lon="7.12402">
        <ele>678.83</ele>
        <time>2015-01-08T09:54:36Z</time>
      </trkpt>
      <trkpt lat="47.82812" lon="7.12393">
        <ele>679.79</ele>
        <time>2015-01-08T09:54:42Z</time>
      </trkpt>
      <trkpt lat="47.82815" lon="7.12384">
        <ele>681.23</ele>
        <time>2015-01-08T09:54:49Z</time>
      </trkpt>
      <trkpt lat="47.82816" lon="7.12376">
        <ele>682.19</ele>
        <time>2015-01-08T09:54:55Z</time>
      </trkpt>
      <trkpt lat="47.82819" lon="7.12366">
        <ele>682.67</ele>
        <time>2015-01-08T09:55:03Z</time>
      </trkpt>
      <trkpt lat="47.8282" lon="7.12357">
        <ele>683.63</ele>
        <time>2015-01-08T09:55:10Z</time>
      </trkpt>
      <trkpt lat="47.82822" lon="7.12347">
        <ele>684.6</ele>
        <time>2015-01-08T09:55:17Z</time>
      </trkpt>
      <trkpt lat="47.82823" lon="7.12337">
        <ele>686.04</ele>
        <time>2015-01-08T09:55:24Z</time>
      </trkpt>
      <trkpt lat="47.82823" lon="7.12326">
        <ele>686.52</ele>
        <time>2015-01-08T09:55:32Z</time>
      </trkpt>
      <trkpt lat="47.82827" lon="7.12315">
        <ele>684.6</ele>
        <time>2015-01-08T09:55:41Z</time>
      </trkpt>
      <trkpt lat="47.8283" lon="7.12308">
        <ele>682.67</ele>
        <time>2015-01-08T09:55:48Z</time>
      </trkpt>
      <trkpt lat="47.82834" lon="7.12301">
        <ele>682.19</ele>
        <time>2015-01-08T09:55:57Z</time>
      </trkpt>
      <trkpt lat="47.82837" lon="7.12297">
        <ele>682.19</ele>
        <time>2015-01-08T09:56:01Z</time>
      </trkpt>
      <trkpt lat="47.82841" lon="7.12289">
        <ele>681.71</ele>
        <time>2015-01-08T09:56:08Z</time>
      </trkpt>
      <trkpt lat="47.82845" lon="7.12285">
        <ele>681.71</ele>
        <time>2015-01-08T09:56:15Z</time>
      </trkpt>
      <trkpt lat="47.82849" lon="7.1228">
        <ele>682.19</ele>
        <time>2015-01-08T09:56:22Z</time>
      </trkpt>
      <trkpt lat="47.82852" lon="7.12274">
        <ele>682.67</ele>
        <time>2015-01-08T09:56:31Z</time>
      </trkpt>
      <trkpt lat="47.82856" lon="7.12271">
        <ele>682.67</ele>
        <time>2015-01-08T09:56:38Z</time>
      </trkpt>
      <trkpt lat="47.82858" lon="7.1227">
        <ele>683.15</ele>
        <time>2015-01-08T09:56:48Z</time>
      </trkpt>
      <trkpt lat="47.82863" lon="7.12269">
        <ele>684.12</ele>
        <time>2015-01-08T09:56:57Z</time>
      </trkpt>
      <trkpt lat="47.82867" lon="7.1227">
        <ele>685.08</ele>
        <time>2015-01-08T09:57:04Z</time>
      </trkpt>
      <trkpt lat="47.82872" lon="7.12271">
        <ele>687.96</ele>
        <time>2015-01-08T09:57:11Z</time>
      </trkpt>
      <trkpt lat="47.82877" lon="7.1227">
        <ele>691.33</ele>
        <time>2015-01-08T09:57:19Z</time>
      </trkpt>
      <trkpt lat="47.8288" lon="7.12268">
        <ele>694.69</ele>
        <time>2015-01-08T09:57:29Z</time>
      </trkpt>
      <trkpt lat="47.82884" lon="7.12268">
        <ele>695.65</ele>
        <time>2015-01-08T09:57:37Z</time>
      </trkpt>
      <trkpt lat="47.82889" lon="7.12265">
        <ele>697.57</ele>
        <time>2015-01-08T09:57:43Z</time>
      </trkpt>
      <trkpt lat="47.82892" lon="7.12263">
        <ele>698.53</ele>
        <time>2015-01-08T09:57:51Z</time>
      </trkpt>
      <trkpt lat="47.82893" lon="7.1226">
        <ele>698.05</ele>
        <time>2015-01-08T09:58:01Z</time>
      </trkpt>
      <trkpt lat="47.82897" lon="7.12257">
        <ele>698.53</ele>
        <time>2015-01-08T09:58:09Z</time>
      </trkpt>
      <trkpt lat="47.82901" lon="7.12253">
        <ele>698.53</ele>
        <time>2015-01-08T09:58:16Z</time>
      </trkpt>
      <trkpt lat="47.82905" lon="7.1225">
        <ele>698.05</ele>
        <time>2015-01-08T09:58:25Z</time>
      </trkpt>
      <trkpt lat="47.82911" lon="7.12245">
        <ele>697.57</ele>
        <time>2015-01-08T09:58:32Z</time>
      </trkpt>
      <trkpt lat="47.82918" lon="7.12241">
        <ele>697.57</ele>
        <time>2015-01-08T09:58:41Z</time>
      </trkpt>
      <trkpt lat="47.82924" lon="7.12234">
        <ele>696.61</ele>
        <time>2015-01-08T09:58:50Z</time>
      </trkpt>
      <trkpt lat="47.82928" lon="7.12226">
        <ele>695.17</ele>
        <time>2015-01-08T09:58:59Z</time>
      </trkpt>
      <trkpt lat="47.82931" lon="7.1222">
        <ele>694.69</ele>
        <time>2015-01-08T09:59:06Z</time>
      </trkpt>
      <trkpt lat="47.82932" lon="7.12213">
        <ele>693.25</ele>
        <time>2015-01-08T09:59:13Z</time>
      </trkpt>
      <trkpt lat="47.82935" lon="7.12212">
        <ele>693.25</ele>
        <time>2015-01-08T09:59:23Z</time>
      </trkpt>
      <trkpt lat="47.82935" lon="7.12207">
        <ele>693.25</ele>
        <time>2015-01-08T09:59:35Z</time>
      </trkpt>
      <trkpt lat="47.82939" lon="7.12203">
        <ele>693.25</ele>
        <time>2015-01-08T09:59:42Z</time>
      </trkpt>
      <trkpt lat="47.82941" lon="7.12199">
        <ele>693.73</ele>
        <time>2015-01-08T09:59:49Z</time>
      </trkpt>
      <trkpt lat="47.82944" lon="7.12195">
        <ele>693.25</ele>
        <time>2015-01-08T09:59:56Z</time>
      </trkpt>
      <trkpt lat="47.82947" lon="7.12192">
        <ele>693.73</ele>
        <time>2015-01-08T10:00:06Z</time>
      </trkpt>
      <trkpt lat="47.8295" lon="7.12186">
        <ele>694.69</ele>
        <time>2015-01-08T10:00:14Z</time>
      </trkpt>
      <trkpt lat="47.82955" lon="7.12182">
        <ele>697.09</ele>
        <time>2015-01-08T10:00:22Z</time>
      </trkpt>
      <trkpt lat="47.82958" lon="7.12178">
        <ele>696.13</ele>
        <time>2015-01-08T10:00:28Z</time>
      </trkpt>
      <trkpt lat="47.82961" lon="7.12173">
        <ele>695.65</ele>
        <time>2015-01-08T10:00:36Z</time>
      </trkpt>
      <trkpt lat="47.82964" lon="7.12167">
        <ele>695.65</ele>
        <time>2015-01-08T10:00:43Z</time>
      </trkpt>
      <trkpt lat="47.82967" lon="7.12162">
        <ele>695.65</ele>
        <time>2015-01-08T10:00:51Z</time>
      </trkpt>
      <trkpt lat="47.82968" lon="7.1216">
        <ele>696.13</ele>
        <time>2015-01-08T10:00:59Z</time>
      </trkpt>
      <trkpt lat="47.8297" lon="7.12157">
        <ele>696.61</ele>
        <time>2015-01-08T10:01:06Z</time>
      </trkpt>
      <trkpt lat="47.82973" lon="7.12154">
        <ele>696.61</ele>
        <time>2015-01-08T10:01:14Z</time>
      </trkpt>
      <trkpt lat="47.82979" lon="7.12154">
        <ele>698.05</ele>
        <time>2015-01-08T10:01:24Z</time>
      </trkpt>
      <trkpt lat="47.82984" lon="7.12154">
        <ele>698.53</ele>
        <time>2015-01-08T10:01:30Z</time>
      </trkpt>
      <trkpt lat="47.82988" lon="7.12154">
        <ele>699.02</ele>
        <time>2015-01-08T10:01:37Z</time>
      </trkpt>
      <trkpt lat="47.82993" lon="7.12156">
        <ele>700.46</ele>
        <time>2015-01-08T10:01:44Z</time>
      </trkpt>
      <trkpt lat="47.82998" lon="7.12155">
        <ele>702.38</ele>
        <time>2015-01-08T10:01:51Z</time>
      </trkpt>
      <trkpt lat="47.83003" lon="7.12156">
        <ele>704.78</ele>
        <time>2015-01-08T10:02:00Z</time>
      </trkpt>
      <trkpt lat="47.83008" lon="7.12154">
        <ele>706.23</ele>
        <time>2015-01-08T10:02:07Z</time>
      </trkpt>
      <trkpt lat="47.83011" lon="7.12153">
        <ele>706.71</ele>
        <time>2015-01-08T10:02:12Z</time>
      </trkpt>
      <trkpt lat="47.83015" lon="7.12148">
        <ele>708.15</ele>
        <time>2015-01-08T10:02:19Z</time>
      </trkpt>
      <trkpt lat="47.8302" lon="7.12145">
        <ele>709.11</ele>
        <time>2015-01-08T10:02:26Z</time>
      </trkpt>
      <trkpt lat="47.83026" lon="7.12139">
        <ele>710.07</ele>
        <time>2015-01-08T10:02:33Z</time>
      </trkpt>
      <trkpt lat="47.83031" lon="7.12132">
        <ele>710.07</ele>
        <time>2015-01-08T10:02:40Z</time>
      </trkpt>
      <trkpt lat="47.83035" lon="7.12128">
        <ele>710.07</ele>
        <time>2015-01-08T10:02:46Z</time>
      </trkpt>
      <trkpt lat="47.83038" lon="7.12122">
        <ele>710.07</ele>
        <time>2015-01-08T10:02:53Z</time>
      </trkpt>
      <trkpt lat="47.83043" lon="7.12114">
        <ele>711.51</ele>
        <time>2015-01-08T10:03:02Z</time>
      </trkpt>
      <trkpt lat="47.83047" lon="7.12107">
        <ele>712.95</ele>
        <time>2015-01-08T10:03:10Z</time>
      </trkpt>
      <trkpt lat="47.83051" lon="7.12099">
        <ele>712.95</ele>
        <time>2015-01-08T10:03:21Z</time>
      </trkpt>
      <trkpt lat="47.83054" lon="7.12092">
        <ele>712.47</ele>
        <time>2015-01-08T10:03:30Z</time>
      </trkpt>
      <trkpt lat="47.83056" lon="7.12087">
        <ele>713.44</ele>
        <time>2015-01-08T10:03:38Z</time>
      </trkpt>
      <trkpt lat="47.8306" lon="7.12082">
        <ele>714.88</ele>
        <time>2015-01-08T10:03:47Z</time>
      </trkpt>
      <trkpt lat="47.83064" lon="7.12078">
        <ele>715.84</ele>
        <time>2015-01-08T10:03:56Z</time>
      </trkpt>
      <trkpt lat="47.83069" lon="7.12079">
        <ele>717.28</ele>
        <time>2015-01-08T10:04:03Z</time>
      </trkpt>
      <trkpt lat="47.83071" lon="7.12079">
        <ele>717.76</ele>
        <time>2015-01-08T10:04:09Z</time>
      </trkpt>
      <trkpt lat="47.83074" lon="7.12076">
        <ele>718.24</ele>
        <time>2015-01-08T10:04:19Z</time>
      </trkpt>
      <trkpt lat="47.83079" lon="7.12075">
        <ele>718.72</ele>
        <time>2015-01-08T10:04:32Z</time>
      </trkpt>
      <trkpt lat="47.83082" lon="7.12074">
        <ele>718.24</ele>
        <time>2015-01-08T10:04:40Z</time>
      </trkpt>
      <trkpt lat="47.83086" lon="7.12074">
        <ele>718.24</ele>
        <time>2015-01-08T10:04:48Z</time>
      </trkpt>
      <trkpt lat="47.83089" lon="7.1207">
        <ele>720.65</ele>
        <time>2015-01-08T10:04:56Z</time>
      </trkpt>
      <trkpt lat="47.8309" lon="7.12071">
        <ele>723.05</ele>
        <time>2015-01-08T10:05:08Z</time>
      </trkpt>
      <trkpt lat="47.8309" lon="7.12069">
        <ele>723.53</ele>
        <time>2015-01-08T10:05:24Z</time>
      </trkpt>
      <trkpt lat="47.83091" lon="7.12069">
        <ele>724.01</ele>
        <time>2015-01-08T10:05:39Z</time>
      </trkpt>
      <trkpt lat="47.83096" lon="7.1207">
        <ele>724.49</ele>
        <time>2015-01-08T10:05:48Z</time>
      </trkpt>
      <trkpt lat="47.83103" lon="7.1207">
        <ele>723.05</ele>
        <time>2015-01-08T10:05:57Z</time>
      </trkpt>
      <trkpt lat="47.8311" lon="7.1207">
        <ele>721.13</ele>
        <time>2015-01-08T10:06:07Z</time>
      </trkpt>
      <trkpt lat="47.83116" lon="7.12069">
        <ele>721.13</ele>
        <time>2015-01-08T10:06:16Z</time>
      </trkpt>
      <trkpt lat="47.83123" lon="7.12069">
        <ele>720.65</ele>
        <time>2015-01-08T10:06:23Z</time>
      </trkpt>
      <trkpt lat="47.83128" lon="7.12066">
        <ele>718.24</ele>
        <time>2015-01-08T10:06:32Z</time>
      </trkpt>
      <trkpt lat="47.83133" lon="7.12063">
        <ele>717.28</ele>
        <time>2015-01-08T10:06:41Z</time>
      </trkpt>
      <trkpt lat="47.83139" lon="7.12057">
        <ele>717.76</ele>
        <time>2015-01-08T10:06:47Z</time>
      </trkpt>
      <trkpt lat="47.83142" lon="7.12053">
        <ele>719.2</ele>
        <time>2015-01-08T10:06:55Z</time>
      </trkpt>
      <trkpt lat="47.83143" lon="7.1205">
        <ele>722.09</ele>
        <time>2015-01-08T10:07:07Z</time>
      </trkpt>
      <trkpt lat="47.83147" lon="7.12046">
        <ele>724.01</ele>
        <time>2015-01-08T10:07:15Z</time>
      </trkpt>
      <trkpt lat="47.83154" lon="7.12041">
        <ele>725.45</ele>
        <time>2015-01-08T10:07:26Z</time>
      </trkpt>
      <trkpt lat="47.83159" lon="7.12034">
        <ele>726.41</ele>
        <time>2015-01-08T10:07:35Z</time>
      </trkpt>
      <trkpt lat="47.83164" lon="7.12029">
        <ele>726.41</ele>
        <time>2015-01-08T10:07:44Z</time>
      </trkpt>
      <trkpt lat="47.8317" lon="7.12024">
        <ele>727.37</ele>
        <time>2015-01-08T10:07:53Z</time>
      </trkpt>
      <trkpt lat="47.83175" lon="7.1202">
        <ele>728.34</ele>
        <time>2015-01-08T10:08:02Z</time>
      </trkpt>
      <trkpt lat="47.83179" lon="7.12016">
        <ele>728.34</ele>
        <time>2015-01-08T10:08:10Z</time>
      </trkpt>
      <trkpt lat="47.83183" lon="7.12015">
        <ele>728.82</ele>
        <time>2015-01-08T10:08:15Z</time>
      </trkpt>
      <trkpt lat="47.83187" lon="7.12013">
        <ele>728.82</ele>
        <time>2015-01-08T10:08:21Z</time>
      </trkpt>
      <trkpt lat="47.83192" lon="7.12009">
        <ele>728.82</ele>
        <time>2015-01-08T10:08:29Z</time>
      </trkpt>
      <trkpt lat="47.83197" lon="7.12008">
        <ele>730.26</ele>
        <time>2015-01-08T10:08:35Z</time>
      </trkpt>
      <trkpt lat="47.832" lon="7.12006">
        <ele>731.7</ele>
        <time>2015-01-08T10:08:45Z</time>
      </trkpt>
      <trkpt lat="47.83205" lon="7.12006">
        <ele>732.66</ele>
        <time>2015-01-08T10:08:53Z</time>
      </trkpt>
      <trkpt lat="47.83208" lon="7.12005">
        <ele>733.14</ele>
        <time>2015-01-08T10:08:56Z</time>
      </trkpt>
      <trkpt lat="47.83215" lon="7.12002">
        <ele>733.14</ele>
        <time>2015-01-08T10:09:04Z</time>
      </trkpt>
      <trkpt lat="47.83221" lon="7.12">
        <ele>733.14</ele>
        <time>2015-01-08T10:09:12Z</time>
      </trkpt>
      <trkpt lat="47.83226" lon="7.11999">
        <ele>733.14</ele>
        <time>2015-01-08T10:09:21Z</time>
      </trkpt>
      <trkpt lat="47.83236" lon="7.11998">
        <ele>734.1</ele>
        <time>2015-01-08T10:09:31Z</time>
      </trkpt>
      <trkpt lat="47.83243" lon="7.12">
        <ele>734.58</ele>
        <time>2015-01-08T10:09:40Z</time>
      </trkpt>
      <trkpt lat="47.83253" lon="7.12002">
        <ele>735.55</ele>
        <time>2015-01-08T10:09:50Z</time>
      </trkpt>
      <trkpt lat="47.83255" lon="7.12002">
        <ele>736.51</ele>
        <time>2015-01-08T10:09:59Z</time>
      </trkpt>
      <trkpt lat="47.83261" lon="7.12005">
        <ele>736.51</ele>
        <time>2015-01-08T10:10:08Z</time>
      </trkpt>
      <trkpt lat="47.83269" lon="7.12009">
        <ele>739.39</ele>
        <time>2015-01-08T10:10:17Z</time>
      </trkpt>
      <trkpt lat="47.83276" lon="7.12011">
        <ele>740.83</ele>
        <time>2015-01-08T10:10:25Z</time>
      </trkpt>
      <trkpt lat="47.83283" lon="7.12012">
        <ele>740.83</ele>
        <time>2015-01-08T10:10:33Z</time>
      </trkpt>
      <trkpt lat="47.83292" lon="7.12015">
        <ele>742.28</ele>
        <time>2015-01-08T10:10:43Z</time>
      </trkpt>
      <trkpt lat="47.83296" lon="7.12016">
        <ele>742.76</ele>
        <time>2015-01-08T10:10:50Z</time>
      </trkpt>
      <trkpt lat="47.83303" lon="7.1202">
        <ele>742.28</ele>
        <time>2015-01-08T10:10:57Z</time>
      </trkpt>
      <trkpt lat="47.83311" lon="7.12024">
        <ele>742.28</ele>
        <time>2015-01-08T10:11:08Z</time>
      </trkpt>
      <trkpt lat="47.83315" lon="7.12025">
        <ele>742.76</ele>
        <time>2015-01-08T10:11:15Z</time>
      </trkpt>
      <trkpt lat="47.83318" lon="7.12026">
        <ele>743.24</ele>
        <time>2015-01-08T10:11:23Z</time>
      </trkpt>
      <trkpt lat="47.83317" lon="7.12024">
        <ele>742.76</ele>
        <time>2015-01-08T10:11:30Z</time>
      </trkpt>
      <trkpt lat="47.83319" lon="7.12022">
        <ele>742.76</ele>
        <time>2015-01-08T10:11:42Z</time>
      </trkpt>
      <trkpt lat="47.83322" lon="7.12023">
        <ele>741.79</ele>
        <time>2015-01-08T10:11:58Z</time>
      </trkpt>
      <trkpt lat="47.83325" lon="7.12026">
        <ele>739.87</ele>
        <time>2015-01-08T10:12:07Z</time>
      </trkpt>
      <trkpt lat="47.83323" lon="7.12028">
        <ele>741.31</ele>
        <time>2015-01-08T10:12:23Z</time>
      </trkpt>
      <trkpt lat="47.8332" lon="7.12026">
        <ele>739.87</ele>
        <time>2015-01-08T10:12:31Z</time>
      </trkpt>
      <trkpt lat="47.83317" lon="7.12021">
        <ele>738.43</ele>
        <time>2015-01-08T10:12:39Z</time>
      </trkpt>
      <trkpt lat="47.83318" lon="7.12018">
        <ele>737.47</ele>
        <time>2015-01-08T10:12:47Z</time>
      </trkpt>
      <trkpt lat="47.83322" lon="7.12017">
        <ele>738.91</ele>
        <time>2015-01-08T10:12:57Z</time>
      </trkpt>
      <trkpt lat="47.83326" lon="7.12018">
        <ele>738.91</ele>
        <time>2015-01-08T10:13:04Z</time>
      </trkpt>
      <trkpt lat="47.8333" lon="7.12017">
        <ele>738.43</ele>
        <time>2015-01-08T10:13:12Z</time>
      </trkpt>
      <trkpt lat="47.83334" lon="7.12014">
        <ele>738.91</ele>
        <time>2015-01-08T10:13:22Z</time>
      </trkpt>
      <trkpt lat="47.83337" lon="7.12011">
        <ele>738.91</ele>
        <time>2015-01-08T10:13:30Z</time>
      </trkpt>
      <trkpt lat="47.83341" lon="7.12009">
        <ele>739.39</ele>
        <time>2015-01-08T10:13:38Z</time>
      </trkpt>
      <trkpt lat="47.83343" lon="7.12006">
        <ele>739.39</ele>
        <time>2015-01-08T10:13:46Z</time>
      </trkpt>
      <trkpt lat="47.83343" lon="7.12003">
        <ele>740.83</ele>
        <time>2015-01-08T10:13:56Z</time>
      </trkpt>
      <trkpt lat="47.83348" lon="7.12001">
        <ele>740.83</ele>
        <time>2015-01-08T10:14:04Z</time>
      </trkpt>
      <trkpt lat="47.83351" lon="7.12">
        <ele>742.28</ele>
        <time>2015-01-08T10:14:12Z</time>
      </trkpt>
      <trkpt lat="47.83356" lon="7.11996">
        <ele>742.76</ele>
        <time>2015-01-08T10:14:21Z</time>
      </trkpt>
      <trkpt lat="47.83359" lon="7.11992">
        <ele>742.76</ele>
        <time>2015-01-08T10:14:26Z</time>
      </trkpt>
      <trkpt lat="47.83362" lon="7.11987">
        <ele>743.24</ele>
        <time>2015-01-08T10:14:34Z</time>
      </trkpt>
      <trkpt lat="47.83365" lon="7.11983">
        <ele>746.6</ele>
        <time>2015-01-08T10:14:42Z</time>
      </trkpt>
      <trkpt lat="47.83368" lon="7.11979">
        <ele>750.93</ele>
        <time>2015-01-08T10:14:50Z</time>
      </trkpt>
      <trkpt lat="47.83371" lon="7.11976">
        <ele>751.41</ele>
        <time>2015-01-08T10:14:59Z</time>
      </trkpt>
      <trkpt lat="47.83374" lon="7.11975">
        <ele>751.89</ele>
        <time>2015-01-08T10:15:07Z</time>
      </trkpt>
      <trkpt lat="47.83378" lon="7.11972">
        <ele>752.37</ele>
        <time>2015-01-08T10:15:16Z</time>
      </trkpt>
      <trkpt lat="47.83383" lon="7.11965">
        <ele>753.33</ele>
        <time>2015-01-08T10:15:26Z</time>
      </trkpt>
      <trkpt lat="47.83387" lon="7.11958">
        <ele>755.25</ele>
        <time>2015-01-08T10:15:36Z</time>
      </trkpt>
      <trkpt lat="47.83389" lon="7.11954">
        <ele>754.77</ele>
        <time>2015-01-08T10:15:42Z</time>
      </trkpt>
      <trkpt lat="47.83392" lon="7.11947">
        <ele>753.81</ele>
        <time>2015-01-08T10:15:50Z</time>
      </trkpt>
      <trkpt lat="47.83395" lon="7.1194">
        <ele>755.25</ele>
        <time>2015-01-08T10:15:58Z</time>
      </trkpt>
      <trkpt lat="47.83397" lon="7.11937">
        <ele>756.69</ele>
        <time>2015-01-08T10:16:05Z</time>
      </trkpt>
      <trkpt lat="47.834" lon="7.11929">
        <ele>759.1</ele>
        <time>2015-01-08T10:16:14Z</time>
      </trkpt>
      <trkpt lat="47.83402" lon="7.11921">
        <ele>760.54</ele>
        <time>2015-01-08T10:16:23Z</time>
      </trkpt>
      <trkpt lat="47.83406" lon="7.11916">
        <ele>761.02</ele>
        <time>2015-01-08T10:16:32Z</time>
      </trkpt>
      <trkpt lat="47.8341" lon="7.11908">
        <ele>763.42</ele>
        <time>2015-01-08T10:16:42Z</time>
      </trkpt>
      <trkpt lat="47.83412" lon="7.11903">
        <ele>764.87</ele>
        <time>2015-01-08T10:16:49Z</time>
      </trkpt>
      <trkpt lat="47.83415" lon="7.11898">
        <ele>764.87</ele>
        <time>2015-01-08T10:16:56Z</time>
      </trkpt>
      <trkpt lat="47.83417" lon="7.11893">
        <ele>767.27</ele>
        <time>2015-01-08T10:17:04Z</time>
      </trkpt>
      <trkpt lat="47.8342" lon="7.11887">
        <ele>767.75</ele>
        <time>2015-01-08T10:17:10Z</time>
      </trkpt>
      <trkpt lat="47.83424" lon="7.11879">
        <ele>768.71</ele>
        <time>2015-01-08T10:17:19Z</time>
      </trkpt>
      <trkpt lat="47.83427" lon="7.11874">
        <ele>768.23</ele>
        <time>2015-01-08T10:17:27Z</time>
      </trkpt>
      <trkpt lat="47.83431" lon="7.11867">
        <ele>769.19</ele>
        <time>2015-01-08T10:17:36Z</time>
      </trkpt>
      <trkpt lat="47.83433" lon="7.11864">
        <ele>769.19</ele>
        <time>2015-01-08T10:17:42Z</time>
      </trkpt>
      <trkpt lat="47.83436" lon="7.11862">
        <ele>768.71</ele>
        <time>2015-01-08T10:17:48Z</time>
      </trkpt>
      <trkpt lat="47.83441" lon="7.11858">
        <ele>768.23</ele>
        <time>2015-01-08T10:17:56Z</time>
      </trkpt>
      <trkpt lat="47.83445" lon="7.11853">
        <ele>769.19</ele>
        <time>2015-01-08T10:18:04Z</time>
      </trkpt>
      <trkpt lat="47.83447" lon="7.11851">
        <ele>769.67</ele>
        <time>2015-01-08T10:18:11Z</time>
      </trkpt>
      <trkpt lat="47.83449" lon="7.11848">
        <ele>769.67</ele>
        <time>2015-01-08T10:18:19Z</time>
      </trkpt>
      <trkpt lat="47.83451" lon="7.11843">
        <ele>768.71</ele>
        <time>2015-01-08T10:18:25Z</time>
      </trkpt>
      <trkpt lat="47.83454" lon="7.11838">
        <ele>768.71</ele>
        <time>2015-01-08T10:18:32Z</time>
      </trkpt>
      <trkpt lat="47.83456" lon="7.11837">
        <ele>769.19</ele>
        <time>2015-01-08T10:18:41Z</time>
      </trkpt>
      <trkpt lat="47.83458" lon="7.11834">
        <ele>769.19</ele>
        <time>2015-01-08T10:18:49Z</time>
      </trkpt>
      <trkpt lat="47.8346" lon="7.1183">
        <ele>769.19</ele>
        <time>2015-01-08T10:18:56Z</time>
      </trkpt>
      <trkpt lat="47.83463" lon="7.11825">
        <ele>771.6</ele>
        <time>2015-01-08T10:19:04Z</time>
      </trkpt>
      <trkpt lat="47.83465" lon="7.11821">
        <ele>773.04</ele>
        <time>2015-01-08T10:19:11Z</time>
      </trkpt>
      <trkpt lat="47.83467" lon="7.11819">
        <ele>772.56</ele>
        <time>2015-01-08T10:19:15Z</time>
      </trkpt>
      <trkpt lat="47.83469" lon="7.11818">
        <ele>772.56</ele>
        <time>2015-01-08T10:19:22Z</time>
      </trkpt>
      <trkpt lat="47.83474" lon="7.11815">
        <ele>772.56</ele>
        <time>2015-01-08T10:19:29Z</time>
      </trkpt>
      <trkpt lat="47.83476" lon="7.11811">
        <ele>774.96</ele>
        <time>2015-01-08T10:19:37Z</time>
      </trkpt>
      <trkpt lat="47.83476" lon="7.11809">
        <ele>775.92</ele>
        <time>2015-01-08T10:19:51Z</time>
      </trkpt>
      <trkpt lat="47.83481" lon="7.11807">
        <ele>776.4</ele>
        <time>2015-01-08T10:19:57Z</time>
      </trkpt>
      <trkpt lat="47.83487" lon="7.11803">
        <ele>776.4</ele>
        <time>2015-01-08T10:20:06Z</time>
      </trkpt>
      <trkpt lat="47.83492" lon="7.11799">
        <ele>775.92</ele>
        <time>2015-01-08T10:20:12Z</time>
      </trkpt>
      <trkpt lat="47.83499" lon="7.11796">
        <ele>774.48</ele>
        <time>2015-01-08T10:20:19Z</time>
      </trkpt>
      <trkpt lat="47.83504" lon="7.11793">
        <ele>773.52</ele>
        <time>2015-01-08T10:20:28Z</time>
      </trkpt>
      <trkpt lat="47.83506" lon="7.1179">
        <ele>773.04</ele>
        <time>2015-01-08T10:20:34Z</time>
      </trkpt>
      <trkpt lat="47.83509" lon="7.11785">
        <ele>772.56</ele>
        <time>2015-01-08T10:20:44Z</time>
      </trkpt>
      <trkpt lat="47.83513" lon="7.11781">
        <ele>772.08</ele>
        <time>2015-01-08T10:20:51Z</time>
      </trkpt>
      <trkpt lat="47.83514" lon="7.1178">
        <ele>772.08</ele>
        <time>2015-01-08T10:20:52Z</time>
      </trkpt>
      <trkpt lat="47.83518" lon="7.11772">
        <ele>769.67</ele>
        <time>2015-01-08T10:21:00Z</time>
      </trkpt>
      <trkpt lat="47.83523" lon="7.11766">
        <ele>768.23</ele>
        <time>2015-01-08T10:21:06Z</time>
      </trkpt>
      <trkpt lat="47.83526" lon="7.11758">
        <ele>768.23</ele>
        <time>2015-01-08T10:21:14Z</time>
      </trkpt>
      <trkpt lat="47.83529" lon="7.11751">
        <ele>770.63</ele>
        <time>2015-01-08T10:21:21Z</time>
      </trkpt>
      <trkpt lat="47.83533" lon="7.11745">
        <ele>771.11</ele>
        <time>2015-01-08T10:21:30Z</time>
      </trkpt>
      <trkpt lat="47.83536" lon="7.11742">
        <ele>771.6</ele>
        <time>2015-01-08T10:21:37Z</time>
      </trkpt>
      <trkpt lat="47.83538" lon="7.11738">
        <ele>772.08</ele>
        <time>2015-01-08T10:21:48Z</time>
      </trkpt>
      <trkpt lat="47.83541" lon="7.11732">
        <ele>773.52</ele>
        <time>2015-01-08T10:21:54Z</time>
      </trkpt>
      <trkpt lat="47.83545" lon="7.11728">
        <ele>774</ele>
        <time>2015-01-08T10:22:01Z</time>
      </trkpt>
      <trkpt lat="47.8355" lon="7.11726">
        <ele>774.96</ele>
        <time>2015-01-08T10:22:08Z</time>
      </trkpt>
      <trkpt lat="47.83554" lon="7.11724">
        <ele>778.32</ele>
        <time>2015-01-08T10:22:15Z</time>
      </trkpt>
      <trkpt lat="47.83558" lon="7.11721">
        <ele>781.21</ele>
        <time>2015-01-08T10:22:23Z</time>
      </trkpt>
      <trkpt lat="47.83561" lon="7.11715">
        <ele>784.09</ele>
        <time>2015-01-08T10:22:30Z</time>
      </trkpt>
      <trkpt lat="47.83566" lon="7.11711">
        <ele>787.94</ele>
        <time>2015-01-08T10:22:39Z</time>
      </trkpt>
      <trkpt lat="47.83573" lon="7.11706">
        <ele>788.9</ele>
        <time>2015-01-08T10:22:50Z</time>
      </trkpt>
      <trkpt lat="47.83579" lon="7.11701">
        <ele>789.86</ele>
        <time>2015-01-08T10:23:00Z</time>
      </trkpt>
      <trkpt lat="47.83583" lon="7.11698">
        <ele>790.82</ele>
        <time>2015-01-08T10:23:07Z</time>
      </trkpt>
      <trkpt lat="47.8359" lon="7.11698">
        <ele>791.3</ele>
        <time>2015-01-08T10:23:17Z</time>
      </trkpt>
      <trkpt lat="47.83597" lon="7.11696">
        <ele>792.26</ele>
        <time>2015-01-08T10:23:27Z</time>
      </trkpt>
      <trkpt lat="47.836" lon="7.11695">
        <ele>792.26</ele>
        <time>2015-01-08T10:23:35Z</time>
      </trkpt>
      <trkpt lat="47.83604" lon="7.11693">
        <ele>792.26</ele>
        <time>2015-01-08T10:23:43Z</time>
      </trkpt>
      <trkpt lat="47.83608" lon="7.11692">
        <ele>792.74</ele>
        <time>2015-01-08T10:23:53Z</time>
      </trkpt>
      <trkpt lat="47.83612" lon="7.11692">
        <ele>793.71</ele>
        <time>2015-01-08T10:24:00Z</time>
      </trkpt>
      <trkpt lat="47.83617" lon="7.11689">
        <ele>795.63</ele>
        <time>2015-01-08T10:24:09Z</time>
      </trkpt>
      <trkpt lat="47.83625" lon="7.11685">
        <ele>796.59</ele>
        <time>2015-01-08T10:24:20Z</time>
      </trkpt>
      <trkpt lat="47.83631" lon="7.11682">
        <ele>797.07</ele>
        <time>2015-01-08T10:24:30Z</time>
      </trkpt>
      <trkpt lat="47.83638" lon="7.11678">
        <ele>797.55</ele>
        <time>2015-01-08T10:24:39Z</time>
      </trkpt>
      <trkpt lat="47.83644" lon="7.11674">
        <ele>798.03</ele>
        <time>2015-01-08T10:24:47Z</time>
      </trkpt>
      <trkpt lat="47.8365" lon="7.1167">
        <ele>798.03</ele>
        <time>2015-01-08T10:24:54Z</time>
      </trkpt>
      <trkpt lat="47.83657" lon="7.11667">
        <ele>797.55</ele>
        <time>2015-01-08T10:25:01Z</time>
      </trkpt>
      <trkpt lat="47.83663" lon="7.11663">
        <ele>796.59</ele>
        <time>2015-01-08T10:25:09Z</time>
      </trkpt>
      <trkpt lat="47.83667" lon="7.11662">
        <ele>797.07</ele>
        <time>2015-01-08T10:25:17Z</time>
      </trkpt>
      <trkpt lat="47.83673" lon="7.1166">
        <ele>798.51</ele>
        <time>2015-01-08T10:25:25Z</time>
      </trkpt>
      <trkpt lat="47.83678" lon="7.11659">
        <ele>799.95</ele>
        <time>2015-01-08T10:25:34Z</time>
      </trkpt>
      <trkpt lat="47.83684" lon="7.11659">
        <ele>801.88</ele>
        <time>2015-01-08T10:25:44Z</time>
      </trkpt>
      <trkpt lat="47.83689" lon="7.11663">
        <ele>803.32</ele>
        <time>2015-01-08T10:25:51Z</time>
      </trkpt>
      <trkpt lat="47.83693" lon="7.11666">
        <ele>802.84</ele>
        <time>2015-01-08T10:25:58Z</time>
      </trkpt>
      <trkpt lat="47.83694" lon="7.11667">
        <ele>802.36</ele>
        <time>2015-01-08T10:26:08Z</time>
      </trkpt>
      <trkpt lat="47.83697" lon="7.11673">
        <ele>803.32</ele>
        <time>2015-01-08T10:26:16Z</time>
      </trkpt>
      <trkpt lat="47.83699" lon="7.11678">
        <ele>805.24</ele>
        <time>2015-01-08T10:26:24Z</time>
      </trkpt>
      <trkpt lat="47.83701" lon="7.11687">
        <ele>805.24</ele>
        <time>2015-01-08T10:26:33Z</time>
      </trkpt>
      <trkpt lat="47.83703" lon="7.11694">
        <ele>805.72</ele>
        <time>2015-01-08T10:26:41Z</time>
      </trkpt>
      <trkpt lat="47.83709" lon="7.11701">
        <ele>806.2</ele>
        <time>2015-01-08T10:26:50Z</time>
      </trkpt>
      <trkpt lat="47.83712" lon="7.11708">
        <ele>806.2</ele>
        <time>2015-01-08T10:26:58Z</time>
      </trkpt>
      <trkpt lat="47.83716" lon="7.11715">
        <ele>805.24</ele>
        <time>2015-01-08T10:27:05Z</time>
      </trkpt>
      <trkpt lat="47.8372" lon="7.11723">
        <ele>803.8</ele>
        <time>2015-01-08T10:27:13Z</time>
      </trkpt>
      <trkpt lat="47.83721" lon="7.11729">
        <ele>804.76</ele>
        <time>2015-01-08T10:27:21Z</time>
      </trkpt>
      <trkpt lat="47.83722" lon="7.11739">
        <ele>806.2</ele>
        <time>2015-01-08T10:27:30Z</time>
      </trkpt>
      <trkpt lat="47.83722" lon="7.1175">
        <ele>807.64</ele>
        <time>2015-01-08T10:27:38Z</time>
      </trkpt>
      <trkpt lat="47.83722" lon="7.11754">
        <ele>808.13</ele>
        <time>2015-01-08T10:27:41Z</time>
      </trkpt>
      <trkpt lat="47.83722" lon="7.11765">
        <ele>810.53</ele>
        <time>2015-01-08T10:27:49Z</time>
      </trkpt>
      <trkpt lat="47.83721" lon="7.11779">
        <ele>811.97</ele>
        <time>2015-01-08T10:27:58Z</time>
      </trkpt>
      <trkpt lat="47.83721" lon="7.11788">
        <ele>811.49</ele>
        <time>2015-01-08T10:28:06Z</time>
      </trkpt>
      <trkpt lat="47.83721" lon="7.11801">
        <ele>811.01</ele>
        <time>2015-01-08T10:28:15Z</time>
      </trkpt>
      <trkpt lat="47.83723" lon="7.11812">
        <ele>810.05</ele>
        <time>2015-01-08T10:28:23Z</time>
      </trkpt>
      <trkpt lat="47.83725" lon="7.11825">
        <ele>809.09</ele>
        <time>2015-01-08T10:28:31Z</time>
      </trkpt>
      <trkpt lat="47.83728" lon="7.11835">
        <ele>806.68</ele>
        <time>2015-01-08T10:28:40Z</time>
      </trkpt>
      <trkpt lat="47.8373" lon="7.11844">
        <ele>805.24</ele>
        <time>2015-01-08T10:28:49Z</time>
      </trkpt>
      <trkpt lat="47.83728" lon="7.11844">
        <ele>803.32</ele>
        <time>2015-01-08T10:29:03Z</time>
      </trkpt>
      <trkpt lat="47.83728" lon="7.11846">
        <ele>801.88</ele>
        <time>2015-01-08T10:29:23Z</time>
      </trkpt>
      <trkpt lat="47.83731" lon="7.11849">
        <ele>801.4</ele>
        <time>2015-01-08T10:29:32Z</time>
      </trkpt>
      <trkpt lat="47.83735" lon="7.1186">
        <ele>801.88</ele>
        <time>2015-01-08T10:29:40Z</time>
      </trkpt>
      <trkpt lat="47.83738" lon="7.11869">
        <ele>802.36</ele>
        <time>2015-01-08T10:29:48Z</time>
      </trkpt>
      <trkpt lat="47.83741" lon="7.11875">
        <ele>804.76</ele>
        <time>2015-01-08T10:29:56Z</time>
      </trkpt>
      <trkpt lat="47.83744" lon="7.11884">
        <ele>807.16</ele>
        <time>2015-01-08T10:30:05Z</time>
      </trkpt>
      <trkpt lat="47.83749" lon="7.11897">
        <ele>807.64</ele>
        <time>2015-01-08T10:30:14Z</time>
      </trkpt>
      <trkpt lat="47.83754" lon="7.11911">
        <ele>807.64</ele>
        <time>2015-01-08T10:30:23Z</time>
      </trkpt>
      <trkpt lat="47.83758" lon="7.11922">
        <ele>809.09</ele>
        <time>2015-01-08T10:30:31Z</time>
      </trkpt>
      <trkpt lat="47.83765" lon="7.11935">
        <ele>810.53</ele>
        <time>2015-01-08T10:30:42Z</time>
      </trkpt>
      <trkpt lat="47.83773" lon="7.11939">
        <ele>811.97</ele>
        <time>2015-01-08T10:30:50Z</time>
      </trkpt>
      <trkpt lat="47.83781" lon="7.11943">
        <ele>811.01</ele>
        <time>2015-01-08T10:30:58Z</time>
      </trkpt>
      <trkpt lat="47.83785" lon="7.11942">
        <ele>811.01</ele>
        <time>2015-01-08T10:31:04Z</time>
      </trkpt>
      <trkpt lat="47.83791" lon="7.11941">
        <ele>811.97</ele>
        <time>2015-01-08T10:31:11Z</time>
      </trkpt>
      <trkpt lat="47.83797" lon="7.11941">
        <ele>810.53</ele>
        <time>2015-01-08T10:31:17Z</time>
      </trkpt>
      <trkpt lat="47.83803" lon="7.1194">
        <ele>809.57</ele>
        <time>2015-01-08T10:31:25Z</time>
      </trkpt>
      <trkpt lat="47.83811" lon="7.11938">
        <ele>808.13</ele>
        <time>2015-01-08T10:31:32Z</time>
      </trkpt>
      <trkpt lat="47.83815" lon="7.11939">
        <ele>808.13</ele>
        <time>2015-01-08T10:31:36Z</time>
      </trkpt>
      <trkpt lat="47.83826" lon="7.11936">
        <ele>811.49</ele>
        <time>2015-01-08T10:31:46Z</time>
      </trkpt>
      <trkpt lat="47.83833" lon="7.11938">
        <ele>812.45</ele>
        <time>2015-01-08T10:31:55Z</time>
      </trkpt>
      <trkpt lat="47.83839" lon="7.11941">
        <ele>812.93</ele>
        <time>2015-01-08T10:32:02Z</time>
      </trkpt>
      <trkpt lat="47.83843" lon="7.11944">
        <ele>812.45</ele>
        <time>2015-01-08T10:32:08Z</time>
      </trkpt>
      <trkpt lat="47.83847" lon="7.11944">
        <ele>813.41</ele>
        <time>2015-01-08T10:32:14Z</time>
      </trkpt>
      <trkpt lat="47.8385" lon="7.11945">
        <ele>813.89</ele>
        <time>2015-01-08T10:32:21Z</time>
      </trkpt>
      <trkpt lat="47.83856" lon="7.11941">
        <ele>813.89</ele>
        <time>2015-01-08T10:32:30Z</time>
      </trkpt>
      <trkpt lat="47.83861" lon="7.11936">
        <ele>814.37</ele>
        <time>2015-01-08T10:32:37Z</time>
      </trkpt>
      <trkpt lat="47.83863" lon="7.11931">
        <ele>815.34</ele>
        <time>2015-01-08T10:32:45Z</time>
      </trkpt>
      <trkpt lat="47.83867" lon="7.11926">
        <ele>814.85</ele>
        <time>2015-01-08T10:32:53Z</time>
      </trkpt>
      <trkpt lat="47.8387" lon="7.11918">
        <ele>815.34</ele>
        <time>2015-01-08T10:33:00Z</time>
      </trkpt>
      <trkpt lat="47.83873" lon="7.11912">
        <ele>817.26</ele>
        <time>2015-01-08T10:33:07Z</time>
      </trkpt>
      <trkpt lat="47.83875" lon="7.11909">
        <ele>817.74</ele>
        <time>2015-01-08T10:33:10Z</time>
      </trkpt>
      <trkpt lat="47.83878" lon="7.11905">
        <ele>820.62</ele>
        <time>2015-01-08T10:33:16Z</time>
      </trkpt>
      <trkpt lat="47.8388" lon="7.11901">
        <ele>821.58</ele>
        <time>2015-01-08T10:33:22Z</time>
      </trkpt>
      <trkpt lat="47.83882" lon="7.11898">
        <ele>825.43</ele>
        <time>2015-01-08T10:33:28Z</time>
      </trkpt>
      <trkpt lat="47.83884" lon="7.11892">
        <ele>825.91</ele>
        <time>2015-01-08T10:33:40Z</time>
      </trkpt>
      <trkpt lat="47.83885" lon="7.11888">
        <ele>825.91</ele>
        <time>2015-01-08T10:33:50Z</time>
      </trkpt>
      <trkpt lat="47.83886" lon="7.11876">
        <ele>826.39</ele>
        <time>2015-01-08T10:34:02Z</time>
      </trkpt>
      <trkpt lat="47.83888" lon="7.11869">
        <ele>825.43</ele>
        <time>2015-01-08T10:34:10Z</time>
      </trkpt>
      <trkpt lat="47.8389" lon="7.11861">
        <ele>824.95</ele>
        <time>2015-01-08T10:34:19Z</time>
      </trkpt>
      <trkpt lat="47.83892" lon="7.11856">
        <ele>823.51</ele>
        <time>2015-01-08T10:34:25Z</time>
      </trkpt>
      <trkpt lat="47.83894" lon="7.1185">
        <ele>822.55</ele>
        <time>2015-01-08T10:34:31Z</time>
      </trkpt>
      <trkpt lat="47.83894" lon="7.11847">
        <ele>823.03</ele>
        <time>2015-01-08T10:34:33Z</time>
      </trkpt>
      <trkpt lat="47.83896" lon="7.1184">
        <ele>821.58</ele>
        <time>2015-01-08T10:34:40Z</time>
      </trkpt>
      <trkpt lat="47.83897" lon="7.11834">
        <ele>822.06</ele>
        <time>2015-01-08T10:34:46Z</time>
      </trkpt>
      <trkpt lat="47.83899" lon="7.11829">
        <ele>820.62</ele>
        <time>2015-01-08T10:34:54Z</time>
      </trkpt>
      <trkpt lat="47.839" lon="7.11822">
        <ele>821.1</ele>
        <time>2015-01-08T10:35:01Z</time>
      </trkpt>
      <trkpt lat="47.83901" lon="7.11816">
        <ele>820.14</ele>
        <time>2015-01-08T10:35:08Z</time>
      </trkpt>
      <trkpt lat="47.83903" lon="7.11807">
        <ele>820.62</ele>
        <time>2015-01-08T10:35:19Z</time>
      </trkpt>
      <trkpt lat="47.83903" lon="7.118">
        <ele>821.58</ele>
        <time>2015-01-08T10:35:27Z</time>
      </trkpt>
      <trkpt lat="47.83901" lon="7.11797">
        <ele>823.99</ele>
        <time>2015-01-08T10:35:34Z</time>
      </trkpt>
      <trkpt lat="47.83899" lon="7.11793">
        <ele>824.47</ele>
        <time>2015-01-08T10:35:41Z</time>
      </trkpt>
      <trkpt lat="47.83898" lon="7.11787">
        <ele>826.39</ele>
        <time>2015-01-08T10:35:48Z</time>
      </trkpt>
      <trkpt lat="47.83897" lon="7.11782">
        <ele>827.83</ele>
        <time>2015-01-08T10:35:55Z</time>
      </trkpt>
      <trkpt lat="47.83897" lon="7.11779">
        <ele>829.27</ele>
        <time>2015-01-08T10:36:02Z</time>
      </trkpt>
      <trkpt lat="47.83898" lon="7.11773">
        <ele>829.76</ele>
        <time>2015-01-08T10:36:12Z</time>
      </trkpt>
      <trkpt lat="47.83899" lon="7.11767">
        <ele>829.76</ele>
        <time>2015-01-08T10:36:20Z</time>
      </trkpt>
      <trkpt lat="47.83898" lon="7.11763">
        <ele>830.72</ele>
        <time>2015-01-08T10:36:25Z</time>
      </trkpt>
      <trkpt lat="47.839" lon="7.11758">
        <ele>832.64</ele>
        <time>2015-01-08T10:36:31Z</time>
      </trkpt>
      <trkpt lat="47.83899" lon="7.11755">
        <ele>835.52</ele>
        <time>2015-01-08T10:36:38Z</time>
      </trkpt>
      <trkpt lat="47.83901" lon="7.11751">
        <ele>834.08</ele>
        <time>2015-01-08T10:36:48Z</time>
      </trkpt>
      <trkpt lat="47.83903" lon="7.11745">
        <ele>834.08</ele>
        <time>2015-01-08T10:36:56Z</time>
      </trkpt>
      <trkpt lat="47.83903" lon="7.11738">
        <ele>834.08</ele>
        <time>2015-01-08T10:37:05Z</time>
      </trkpt>
      <trkpt lat="47.83903" lon="7.11735">
        <ele>835.04</ele>
        <time>2015-01-08T10:37:12Z</time>
      </trkpt>
      <trkpt lat="47.83903" lon="7.11731">
        <ele>835.04</ele>
        <time>2015-01-08T10:37:21Z</time>
      </trkpt>
      <trkpt lat="47.83906" lon="7.11724">
        <ele>836</ele>
        <time>2015-01-08T10:37:30Z</time>
      </trkpt>
      <trkpt lat="47.83908" lon="7.1172">
        <ele>837.93</ele>
        <time>2015-01-08T10:37:39Z</time>
      </trkpt>
      <trkpt lat="47.8391" lon="7.11714">
        <ele>838.41</ele>
        <time>2015-01-08T10:37:46Z</time>
      </trkpt>
      <trkpt lat="47.83912" lon="7.11708">
        <ele>838.41</ele>
        <time>2015-01-08T10:37:54Z</time>
      </trkpt>
      <trkpt lat="47.83916" lon="7.117">
        <ele>838.41</ele>
        <time>2015-01-08T10:38:04Z</time>
      </trkpt>
      <trkpt lat="47.83918" lon="7.11692">
        <ele>839.85</ele>
        <time>2015-01-08T10:38:14Z</time>
      </trkpt>
      <trkpt lat="47.8392" lon="7.11687">
        <ele>840.81</ele>
        <time>2015-01-08T10:38:22Z</time>
      </trkpt>
      <trkpt lat="47.83923" lon="7.11681">
        <ele>841.29</ele>
        <time>2015-01-08T10:38:30Z</time>
      </trkpt>
      <trkpt lat="47.83925" lon="7.11677">
        <ele>842.25</ele>
        <time>2015-01-08T10:38:38Z</time>
      </trkpt>
      <trkpt lat="47.83927" lon="7.11674">
        <ele>843.69</ele>
        <time>2015-01-08T10:38:47Z</time>
      </trkpt>
      <trkpt lat="47.83929" lon="7.11668">
        <ele>846.1</ele>
        <time>2015-01-08T10:38:55Z</time>
      </trkpt>
      <trkpt lat="47.83931" lon="7.11662">
        <ele>846.58</ele>
        <time>2015-01-08T10:39:04Z</time>
      </trkpt>
      <trkpt lat="47.83932" lon="7.11657">
        <ele>846.58</ele>
        <time>2015-01-08T10:39:12Z</time>
      </trkpt>
      <trkpt lat="47.83935" lon="7.1165">
        <ele>846.1</ele>
        <time>2015-01-08T10:39:20Z</time>
      </trkpt>
      <trkpt lat="47.83937" lon="7.11645">
        <ele>845.62</ele>
        <time>2015-01-08T10:39:28Z</time>
      </trkpt>
      <trkpt lat="47.83937" lon="7.11643">
        <ele>846.58</ele>
        <time>2015-01-08T10:39:37Z</time>
      </trkpt>
      <trkpt lat="47.83939" lon="7.11637">
        <ele>847.54</ele>
        <time>2015-01-08T10:39:44Z</time>
      </trkpt>
      <trkpt lat="47.83942" lon="7.11633">
        <ele>848.5</ele>
        <time>2015-01-08T10:39:51Z</time>
      </trkpt>
      <trkpt lat="47.83946" lon="7.11625">
        <ele>849.94</ele>
        <time>2015-01-08T10:40:01Z</time>
      </trkpt>
      <trkpt lat="47.83948" lon="7.11621">
        <ele>850.42</ele>
        <time>2015-01-08T10:40:07Z</time>
      </trkpt>
      <trkpt lat="47.83951" lon="7.11615">
        <ele>851.38</ele>
        <time>2015-01-08T10:40:14Z</time>
      </trkpt>
      <trkpt lat="47.83954" lon="7.1161">
        <ele>851.87</ele>
        <time>2015-01-08T10:40:22Z</time>
      </trkpt>
      <trkpt lat="47.83953" lon="7.11607">
        <ele>850.9</ele>
        <time>2015-01-08T10:40:30Z</time>
      </trkpt>
      <trkpt lat="47.83954" lon="7.11602">
        <ele>850.9</ele>
        <time>2015-01-08T10:40:40Z</time>
      </trkpt>
      <trkpt lat="47.83957" lon="7.11597">
        <ele>851.38</ele>
        <time>2015-01-08T10:40:50Z</time>
      </trkpt>
      <trkpt lat="47.83961" lon="7.11594">
        <ele>853.79</ele>
        <time>2015-01-08T10:40:58Z</time>
      </trkpt>
      <trkpt lat="47.83964" lon="7.11591">
        <ele>855.23</ele>
        <time>2015-01-08T10:41:03Z</time>
      </trkpt>
      <trkpt lat="47.83968" lon="7.11584">
        <ele>855.71</ele>
        <time>2015-01-08T10:41:11Z</time>
      </trkpt>
      <trkpt lat="47.83971" lon="7.11577">
        <ele>856.19</ele>
        <time>2015-01-08T10:41:19Z</time>
      </trkpt>
      <trkpt lat="47.83975" lon="7.1157">
        <ele>856.67</ele>
        <time>2015-01-08T10:41:26Z</time>
      </trkpt>
      <trkpt lat="47.83977" lon="7.11566">
        <ele>856.19</ele>
        <time>2015-01-08T10:41:32Z</time>
      </trkpt>
      <trkpt lat="47.83979" lon="7.11558">
        <ele>854.75</ele>
        <time>2015-01-08T10:41:40Z</time>
      </trkpt>
      <trkpt lat="47.83981" lon="7.11552">
        <ele>854.27</ele>
        <time>2015-01-08T10:41:49Z</time>
      </trkpt>
      <trkpt lat="47.83984" lon="7.11547">
        <ele>853.31</ele>
        <time>2015-01-08T10:41:55Z</time>
      </trkpt>
      <trkpt lat="47.83986" lon="7.11542">
        <ele>852.83</ele>
        <time>2015-01-08T10:42:02Z</time>
      </trkpt>
      <trkpt lat="47.83988" lon="7.11537">
        <ele>853.31</ele>
        <time>2015-01-08T10:42:09Z</time>
      </trkpt>
      <trkpt lat="47.83992" lon="7.11531">
        <ele>852.35</ele>
        <time>2015-01-08T10:42:19Z</time>
      </trkpt>
      <trkpt lat="47.83995" lon="7.11526">
        <ele>851.38</ele>
        <time>2015-01-08T10:42:25Z</time>
      </trkpt>
      <trkpt lat="47.83998" lon="7.11522">
        <ele>851.38</ele>
        <time>2015-01-08T10:42:33Z</time>
      </trkpt>
      <trkpt lat="47.84" lon="7.11519">
        <ele>852.83</ele>
        <time>2015-01-08T10:42:40Z</time>
      </trkpt>
      <trkpt lat="47.84004" lon="7.11514">
        <ele>852.83</ele>
        <time>2015-01-08T10:42:48Z</time>
      </trkpt>
      <trkpt lat="47.84006" lon="7.11511">
        <ele>853.31</ele>
        <time>2015-01-08T10:42:55Z</time>
      </trkpt>
      <trkpt lat="47.84007" lon="7.11507">
        <ele>854.27</ele>
        <time>2015-01-08T10:43:01Z</time>
      </trkpt>
      <trkpt lat="47.84011" lon="7.11501">
        <ele>855.23</ele>
        <time>2015-01-08T10:43:09Z</time>
      </trkpt>
      <trkpt lat="47.84012" lon="7.11499">
        <ele>856.67</ele>
        <time>2015-01-08T10:43:16Z</time>
      </trkpt>
      <trkpt lat="47.84013" lon="7.11498">
        <ele>856.19</ele>
        <time>2015-01-08T10:43:22Z</time>
      </trkpt>
      <trkpt lat="47.84013" lon="7.11498">
        <ele>855.71</ele>
        <time>2015-01-08T10:43:24Z</time>
      </trkpt>
      <trkpt lat="47.84018" lon="7.11494">
        <ele>854.27</ele>
        <time>2015-01-08T10:43:31Z</time>
      </trkpt>
      <trkpt lat="47.84022" lon="7.11489">
        <ele>855.71</ele>
        <time>2015-01-08T10:43:40Z</time>
      </trkpt>
      <trkpt lat="47.84024" lon="7.11487">
        <ele>856.67</ele>
        <time>2015-01-08T10:43:47Z</time>
      </trkpt>
      <trkpt lat="47.84029" lon="7.11482">
        <ele>855.71</ele>
        <time>2015-01-08T10:43:56Z</time>
      </trkpt>
      <trkpt lat="47.84031" lon="7.1148">
        <ele>855.71</ele>
        <time>2015-01-08T10:44:04Z</time>
      </trkpt>
      <trkpt lat="47.84034" lon="7.11479">
        <ele>856.19</ele>
        <time>2015-01-08T10:44:12Z</time>
      </trkpt>
      <trkpt lat="47.84037" lon="7.11477">
        <ele>855.71</ele>
        <time>2015-01-08T10:44:20Z</time>
      </trkpt>
      <trkpt lat="47.8404" lon="7.11475">
        <ele>855.71</ele>
        <time>2015-01-08T10:44:28Z</time>
      </trkpt>
      <trkpt lat="47.84045" lon="7.11471">
        <ele>857.63</ele>
        <time>2015-01-08T10:44:37Z</time>
      </trkpt>
      <trkpt lat="47.84049" lon="7.11468">
        <ele>858.11</ele>
        <time>2015-01-08T10:44:45Z</time>
      </trkpt>
      <trkpt lat="47.84051" lon="7.11467">
        <ele>858.11</ele>
        <time>2015-01-08T10:44:54Z</time>
      </trkpt>
      <trkpt lat="47.84057" lon="7.11463">
        <ele>859.08</ele>
        <time>2015-01-08T10:45:04Z</time>
      </trkpt>
      <trkpt lat="47.84061" lon="7.1146">
        <ele>860.52</ele>
        <time>2015-01-08T10:45:13Z</time>
      </trkpt>
      <trkpt lat="47.84063" lon="7.11459">
        <ele>861.48</ele>
        <time>2015-01-08T10:45:20Z</time>
      </trkpt>
      <trkpt lat="47.84067" lon="7.11459">
        <ele>862.44</ele>
        <time>2015-01-08T10:45:27Z</time>
      </trkpt>
      <trkpt lat="47.8407" lon="7.11455">
        <ele>862.44</ele>
        <time>2015-01-08T10:45:35Z</time>
      </trkpt>
      <trkpt lat="47.84074" lon="7.11454">
        <ele>861.96</ele>
        <time>2015-01-08T10:45:42Z</time>
      </trkpt>
      <trkpt lat="47.8408" lon="7.11454">
        <ele>861.96</ele>
        <time>2015-01-08T10:45:51Z</time>
      </trkpt>
      <trkpt lat="47.84085" lon="7.11451">
        <ele>862.44</ele>
        <time>2015-01-08T10:45:59Z</time>
      </trkpt>
      <trkpt lat="47.84092" lon="7.11447">
        <ele>861.96</ele>
        <time>2015-01-08T10:46:07Z</time>
      </trkpt>
      <trkpt lat="47.84096" lon="7.11447">
        <ele>862.92</ele>
        <time>2015-01-08T10:46:17Z</time>
      </trkpt>
      <trkpt lat="47.84096" lon="7.1144">
        <ele>863.88</ele>
        <time>2015-01-08T10:46:25Z</time>
      </trkpt>
      <trkpt lat="47.84098" lon="7.1144">
        <ele>863.4</ele>
        <time>2015-01-08T10:46:32Z</time>
      </trkpt>
      <trkpt lat="47.84098" lon="7.1144">
        <ele>861.96</ele>
        <time>2015-01-08T10:46:39Z</time>
      </trkpt>
      <trkpt lat="47.84098" lon="7.1144">
        <ele>860.04</ele>
        <time>2015-01-08T10:46:50Z</time>
      </trkpt>
      <trkpt lat="47.84098" lon="7.11444">
        <ele>857.15</ele>
        <time>2015-01-08T10:47:05Z</time>
      </trkpt>
      <trkpt lat="47.84099" lon="7.11449">
        <ele>855.23</ele>
        <time>2015-01-08T10:47:16Z</time>
      </trkpt>
      <trkpt lat="47.84099" lon="7.11443">
        <ele>853.79</ele>
        <time>2015-01-08T10:47:30Z</time>
      </trkpt>
      <trkpt lat="47.84097" lon="7.11443">
        <ele>851.38</ele>
        <time>2015-01-08T10:47:46Z</time>
      </trkpt>
      <trkpt lat="47.84094" lon="7.11446">
        <ele>849.46</ele>
        <time>2015-01-08T10:48:01Z</time>
      </trkpt>
      <trkpt lat="47.84095" lon="7.11444">
        <ele>849.46</ele>
        <time>2015-01-08T10:48:16Z</time>
      </trkpt>
      <trkpt lat="47.84093" lon="7.11434">
        <ele>850.9</ele>
        <time>2015-01-08T10:48:33Z</time>
      </trkpt>
      <trkpt lat="47.84092" lon="7.11433">
        <ele>853.79</ele>
        <time>2015-01-08T10:48:49Z</time>
      </trkpt>
      <trkpt lat="47.84093" lon="7.11432">
        <ele>854.27</ele>
        <time>2015-01-08T10:49:10Z</time>
      </trkpt>
      <trkpt lat="47.84093" lon="7.11431">
        <ele>854.75</ele>
        <time>2015-01-08T10:49:28Z</time>
      </trkpt>
      <trkpt lat="47.84093" lon="7.11429">
        <ele>855.71</ele>
        <time>2015-01-08T10:49:48Z</time>
      </trkpt>
      <trkpt lat="47.84093" lon="7.11432">
        <ele>857.15</ele>
        <time>2015-01-08T10:50:06Z</time>
      </trkpt>
      <trkpt lat="47.84092" lon="7.11431">
        <ele>855.71</ele>
        <time>2015-01-08T10:50:15Z</time>
      </trkpt>
      <trkpt lat="47.84092" lon="7.11432">
        <ele>851.87</ele>
        <time>2015-01-08T10:50:35Z</time>
      </trkpt>
      <trkpt lat="47.84093" lon="7.11431">
        <ele>849.94</ele>
        <time>2015-01-08T10:50:57Z</time>
      </trkpt>
      <trkpt lat="47.84091" lon="7.11433">
        <ele>846.58</ele>
        <time>2015-01-08T10:51:19Z</time>
      </trkpt>
      <trkpt lat="47.84091" lon="7.11432">
        <ele>846.1</ele>
        <time>2015-01-08T10:51:37Z</time>
      </trkpt>
      <trkpt lat="47.84097" lon="7.11429">
        <ele>840.33</ele>
        <time>2015-01-08T10:51:58Z</time>
      </trkpt>
      <trkpt lat="47.84097" lon="7.11429">
        <ele>839.37</ele>
        <time>2015-01-08T10:52:16Z</time>
      </trkpt>
      <trkpt lat="47.84096" lon="7.11429">
        <ele>841.29</ele>
        <time>2015-01-08T10:52:34Z</time>
      </trkpt>
      <trkpt lat="47.84097" lon="7.11433">
        <ele>841.29</ele>
        <time>2015-01-08T10:52:55Z</time>
      </trkpt>
      <trkpt lat="47.84097" lon="7.11434">
        <ele>840.33</ele>
        <time>2015-01-08T10:53:14Z</time>
      </trkpt>
      <trkpt lat="47.84093" lon="7.11434">
        <ele>842.73</ele>
        <time>2015-01-08T10:53:34Z</time>
      </trkpt>
      <trkpt lat="47.84093" lon="7.11433">
        <ele>842.73</ele>
        <time>2015-01-08T10:53:50Z</time>
      </trkpt>
      <trkpt lat="47.84095" lon="7.11433">
        <ele>839.85</ele>
        <time>2015-01-08T10:54:07Z</time>
      </trkpt>
      <trkpt lat="47.84096" lon="7.11433">
        <ele>841.29</ele>
        <time>2015-01-08T10:54:22Z</time>
      </trkpt>
      <trkpt lat="47.84096" lon="7.11434">
        <ele>843.69</ele>
        <time>2015-01-08T10:54:47Z</time>
      </trkpt>
      <trkpt lat="47.84097" lon="7.11434">
        <ele>845.62</ele>
        <time>2015-01-08T10:55:08Z</time>
      </trkpt>
      <trkpt lat="47.84094" lon="7.11434">
        <ele>847.06</ele>
        <time>2015-01-08T10:55:27Z</time>
      </trkpt>
      <trkpt lat="47.84096" lon="7.11433">
        <ele>848.02</ele>
        <time>2015-01-08T10:55:47Z</time>
      </trkpt>
      <trkpt lat="47.84096" lon="7.11436">
        <ele>844.66</ele>
        <time>2015-01-08T10:56:10Z</time>
      </trkpt>
      <trkpt lat="47.84095" lon="7.11432">
        <ele>846.1</ele>
        <time>2015-01-08T10:56:28Z</time>
      </trkpt>
      <trkpt lat="47.84096" lon="7.1143">
        <ele>846.1</ele>
        <time>2015-01-08T10:56:45Z</time>
      </trkpt>
      <trkpt lat="47.84097" lon="7.11428">
        <ele>847.06</ele>
        <time>2015-01-08T10:57:05Z</time>
      </trkpt>
      <trkpt lat="47.84095" lon="7.11429">
        <ele>846.1</ele>
        <time>2015-01-08T10:57:28Z</time>
      </trkpt>
      <trkpt lat="47.84095" lon="7.1143">
        <ele>847.06</ele>
        <time>2015-01-08T10:57:45Z</time>
      </trkpt>
      <trkpt lat="47.84094" lon="7.11433">
        <ele>851.38</ele>
        <time>2015-01-08T10:58:09Z</time>
      </trkpt>
      <trkpt lat="47.84088" lon="7.1143">
        <ele>852.83</ele>
        <time>2015-01-08T10:58:31Z</time>
      </trkpt>
      <trkpt lat="47.84089" lon="7.11432">
        <ele>853.31</ele>
        <time>2015-01-08T10:58:50Z</time>
      </trkpt>
      <trkpt lat="47.84094" lon="7.11432">
        <ele>853.79</ele>
        <time>2015-01-08T10:59:13Z</time>
      </trkpt>
      <trkpt lat="47.84095" lon="7.1143">
        <ele>854.75</ele>
        <time>2015-01-08T10:59:31Z</time>
      </trkpt>
      <trkpt lat="47.84093" lon="7.11432">
        <ele>849.94</ele>
        <time>2015-01-08T10:59:53Z</time>
      </trkpt>
      <trkpt lat="47.84092" lon="7.1143">
        <ele>848.02</ele>
        <time>2015-01-08T11:00:10Z</time>
      </trkpt>
      <trkpt lat="47.84089" lon="7.1143">
        <ele>848.5</ele>
        <time>2015-01-08T11:00:32Z</time>
      </trkpt>
      <trkpt lat="47.84089" lon="7.11427">
        <ele>848.02</ele>
        <time>2015-01-08T11:00:52Z</time>
      </trkpt>
      <trkpt lat="47.84096" lon="7.1143">
        <ele>849.94</ele>
        <time>2015-01-08T11:01:13Z</time>
      </trkpt>
      <trkpt lat="47.84094" lon="7.1143">
        <ele>845.14</ele>
        <time>2015-01-08T11:01:33Z</time>
      </trkpt>
      <trkpt lat="47.84092" lon="7.11431">
        <ele>842.25</ele>
        <time>2015-01-08T11:01:53Z</time>
      </trkpt>
      <trkpt lat="47.84094" lon="7.11431">
        <ele>840.33</ele>
        <time>2015-01-08T11:02:12Z</time>
      </trkpt>
      <trkpt lat="47.84094" lon="7.11431">
        <ele>843.21</ele>
        <time>2015-01-08T11:02:35Z</time>
      </trkpt>
      <trkpt lat="47.84094" lon="7.11431">
        <ele>844.18</ele>
        <time>2015-01-08T11:02:52Z</time>
      </trkpt>
      <trkpt lat="47.84094" lon="7.11431">
        <ele>846.1</ele>
        <time>2015-01-08T11:03:08Z</time>
      </trkpt>
      <trkpt lat="47.84092" lon="7.1143">
        <ele>847.54</ele>
        <time>2015-01-08T11:03:32Z</time>
      </trkpt>
      <trkpt lat="47.8409" lon="7.11431">
        <ele>847.54</ele>
        <time>2015-01-08T11:03:47Z</time>
      </trkpt>
      <trkpt lat="47.84087" lon="7.11431">
        <ele>846.1</ele>
        <time>2015-01-08T11:04:04Z</time>
      </trkpt>
      <trkpt lat="47.84089" lon="7.11431">
        <ele>845.62</ele>
        <time>2015-01-08T11:04:23Z</time>
      </trkpt>
      <trkpt lat="47.84089" lon="7.11429">
        <ele>845.14</ele>
        <time>2015-01-08T11:04:44Z</time>
      </trkpt>
      <trkpt lat="47.84089" lon="7.11428">
        <ele>842.25</ele>
        <time>2015-01-08T11:05:06Z</time>
      </trkpt>
      <trkpt lat="47.84087" lon="7.11428">
        <ele>845.62</ele>
        <time>2015-01-08T11:05:25Z</time>
      </trkpt>
      <trkpt lat="47.84087" lon="7.1143">
        <ele>845.14</ele>
        <time>2015-01-08T11:05:42Z</time>
      </trkpt>
      <trkpt lat="47.84089" lon="7.11432">
        <ele>844.18</ele>
        <time>2015-01-08T11:06:01Z</time>
      </trkpt>
      <trkpt lat="47.84087" lon="7.11433">
        <ele>847.06</ele>
        <time>2015-01-08T11:06:22Z</time>
      </trkpt>
      <trkpt lat="47.84087" lon="7.11436">
        <ele>847.54</ele>
        <time>2015-01-08T11:06:44Z</time>
      </trkpt>
      <trkpt lat="47.84089" lon="7.11439">
        <ele>848.98</ele>
        <time>2015-01-08T11:07:04Z</time>
      </trkpt>
      <trkpt lat="47.84089" lon="7.11437">
        <ele>850.9</ele>
        <time>2015-01-08T11:07:26Z</time>
      </trkpt>
      <trkpt lat="47.84091" lon="7.11434">
        <ele>851.87</ele>
        <time>2015-01-08T11:07:49Z</time>
      </trkpt>
      <trkpt lat="47.84096" lon="7.11432">
        <ele>851.87</ele>
        <time>2015-01-08T11:08:13Z</time>
      </trkpt>
      <trkpt lat="47.84094" lon="7.11431">
        <ele>853.79</ele>
        <time>2015-01-08T11:08:34Z</time>
      </trkpt>
      <trkpt lat="47.84097" lon="7.11429">
        <ele>848.5</ele>
        <time>2015-01-08T11:08:58Z</time>
      </trkpt>
      <trkpt lat="47.84095" lon="7.11431">
        <ele>848.98</ele>
        <time>2015-01-08T11:09:20Z</time>
      </trkpt>
      <trkpt lat="47.84092" lon="7.11428">
        <ele>850.42</ele>
        <time>2015-01-08T11:09:40Z</time>
      </trkpt>
      <trkpt lat="47.84091" lon="7.11423">
        <ele>848.5</ele>
        <time>2015-01-08T11:10:02Z</time>
      </trkpt>
      <trkpt lat="47.84091" lon="7.11428">
        <ele>845.14</ele>
        <time>2015-01-08T11:10:22Z</time>
      </trkpt>
      <trkpt lat="47.84089" lon="7.11427">
        <ele>846.1</ele>
        <time>2015-01-08T11:10:46Z</time>
      </trkpt>
      <trkpt lat="47.8409" lon="7.1143">
        <ele>849.46</ele>
        <time>2015-01-08T11:11:07Z</time>
      </trkpt>
      <trkpt lat="47.84089" lon="7.11428">
        <ele>849.94</ele>
        <time>2015-01-08T11:11:29Z</time>
      </trkpt>
      <trkpt lat="47.84093" lon="7.11426">
        <ele>850.9</ele>
        <time>2015-01-08T11:11:48Z</time>
      </trkpt>
      <trkpt lat="47.84092" lon="7.11427">
        <ele>848.02</ele>
        <time>2015-01-08T11:12:10Z</time>
      </trkpt>
      <trkpt lat="47.84093" lon="7.11427">
        <ele>848.02</ele>
        <time>2015-01-08T11:12:29Z</time>
      </trkpt>
      <trkpt lat="47.84091" lon="7.11428">
        <ele>846.1</ele>
        <time>2015-01-08T11:12:52Z</time>
      </trkpt>
      <trkpt lat="47.84093" lon="7.11428">
        <ele>848.98</ele>
        <time>2015-01-08T11:13:15Z</time>
      </trkpt>
      <trkpt lat="47.84092" lon="7.11425">
        <ele>847.06</ele>
        <time>2015-01-08T11:13:37Z</time>
      </trkpt>
      <trkpt lat="47.84092" lon="7.1143">
        <ele>848.5</ele>
        <time>2015-01-08T11:14:01Z</time>
      </trkpt>
      <trkpt lat="47.84093" lon="7.11428">
        <ele>848.5</ele>
        <time>2015-01-08T11:14:22Z</time>
      </trkpt>
      <trkpt lat="47.84095" lon="7.11428">
        <ele>845.62</ele>
        <time>2015-01-08T11:14:45Z</time>
      </trkpt>
      <trkpt lat="47.84094" lon="7.11426">
        <ele>844.66</ele>
        <time>2015-01-08T11:15:05Z</time>
      </trkpt>
      <trkpt lat="47.84091" lon="7.11428">
        <ele>843.21</ele>
        <time>2015-01-08T11:15:23Z</time>
      </trkpt>
      <trkpt lat="47.84091" lon="7.11429">
        <ele>843.69</ele>
        <time>2015-01-08T11:15:47Z</time>
      </trkpt>
      <trkpt lat="47.84094" lon="7.11431">
        <ele>841.29</ele>
        <time>2015-01-08T11:16:10Z</time>
      </trkpt>
      <trkpt lat="47.84095" lon="7.11432">
        <ele>841.29</ele>
        <time>2015-01-08T11:16:29Z</time>
      </trkpt>
      <trkpt lat="47.84092" lon="7.11431">
        <ele>841.77</ele>
        <time>2015-01-08T11:16:56Z</time>
      </trkpt>
      <trkpt lat="47.84087" lon="7.11429">
        <ele>844.66</ele>
        <time>2015-01-08T11:17:22Z</time>
      </trkpt>
      <trkpt lat="47.84091" lon="7.11432">
        <ele>844.18</ele>
        <time>2015-01-08T11:17:45Z</time>
      </trkpt>
      <trkpt lat="47.84092" lon="7.11429">
        <ele>844.66</ele>
        <time>2015-01-08T11:18:06Z</time>
      </trkpt>
      <trkpt lat="47.84086" lon="7.11428">
        <ele>844.66</ele>
        <time>2015-01-08T11:18:32Z</time>
      </trkpt>
      <trkpt lat="47.84088" lon="7.11428">
        <ele>842.73</ele>
        <time>2015-01-08T11:18:54Z</time>
      </trkpt>
      <trkpt lat="47.84091" lon="7.11431">
        <ele>842.25</ele>
        <time>2015-01-08T11:19:14Z</time>
      </trkpt>
      <trkpt lat="47.84093" lon="7.11431">
        <ele>841.29</ele>
        <time>2015-01-08T11:19:39Z</time>
      </trkpt>
      <trkpt lat="47.84093" lon="7.1143">
        <ele>842.25</ele>
        <time>2015-01-08T11:19:59Z</time>
      </trkpt>
      <trkpt lat="47.84088" lon="7.11426">
        <ele>844.66</ele>
        <time>2015-01-08T11:20:19Z</time>
      </trkpt>
      <trkpt lat="47.84088" lon="7.11428">
        <ele>845.62</ele>
        <time>2015-01-08T11:20:43Z</time>
      </trkpt>
      <trkpt lat="47.84089" lon="7.11428">
        <ele>848.02</ele>
        <time>2015-01-08T11:21:04Z</time>
      </trkpt>
      <trkpt lat="47.8409" lon="7.11429">
        <ele>848.98</ele>
        <time>2015-01-08T11:21:23Z</time>
      </trkpt>
      <trkpt lat="47.84091" lon="7.11431">
        <ele>849.94</ele>
        <time>2015-01-08T11:21:40Z</time>
      </trkpt>
      <trkpt lat="47.84091" lon="7.1143">
        <ele>848.5</ele>
        <time>2015-01-08T11:22:02Z</time>
      </trkpt>
      <trkpt lat="47.8409" lon="7.1143">
        <ele>847.54</ele>
        <time>2015-01-08T11:22:26Z</time>
      </trkpt>
      <trkpt lat="47.8409" lon="7.11429">
        <ele>846.58</ele>
        <time>2015-01-08T11:22:47Z</time>
      </trkpt>
      <trkpt lat="47.84092" lon="7.11429">
        <ele>846.1</ele>
        <time>2015-01-08T11:23:07Z</time>
      </trkpt>
      <trkpt lat="47.84089" lon="7.1143">
        <ele>844.66</ele>
        <time>2015-01-08T11:23:29Z</time>
      </trkpt>
      <trkpt lat="47.84088" lon="7.11431">
        <ele>845.62</ele>
        <time>2015-01-08T11:23:49Z</time>
      </trkpt>
      <trkpt lat="47.84091" lon="7.11433">
        <ele>845.62</ele>
        <time>2015-01-08T11:24:10Z</time>
      </trkpt>
      <trkpt lat="47.84091" lon="7.11435">
        <ele>844.18</ele>
        <time>2015-01-08T11:24:30Z</time>
      </trkpt>
      <trkpt lat="47.84092" lon="7.11437">
        <ele>845.62</ele>
        <time>2015-01-08T11:24:44Z</time>
      </trkpt>
      <trkpt lat="47.8409" lon="7.11433">
        <ele>847.54</ele>
        <time>2015-01-08T11:25:09Z</time>
      </trkpt>
      <trkpt lat="47.84088" lon="7.1143">
        <ele>852.35</ele>
        <time>2015-01-08T11:25:28Z</time>
      </trkpt>
      <trkpt lat="47.84085" lon="7.11428">
        <ele>852.83</ele>
        <time>2015-01-08T11:25:46Z</time>
      </trkpt>
      <trkpt lat="47.84083" lon="7.11426">
        <ele>855.23</ele>
        <time>2015-01-08T11:26:06Z</time>
      </trkpt>
      <trkpt lat="47.8408" lon="7.11425">
        <ele>857.63</ele>
        <time>2015-01-08T11:26:23Z</time>
      </trkpt>
      <trkpt lat="47.84077" lon="7.11426">
        <ele>856.67</ele>
        <time>2015-01-08T11:26:41Z</time>
      </trkpt>
      <trkpt lat="47.8408" lon="7.11428">
        <ele>853.31</ele>
        <time>2015-01-08T11:26:59Z</time>
      </trkpt>
      <trkpt lat="47.84079" lon="7.11428">
        <ele>851.87</ele>
        <time>2015-01-08T11:27:16Z</time>
      </trkpt>
      <trkpt lat="47.84078" lon="7.11426">
        <ele>848.5</ele>
        <time>2015-01-08T11:27:35Z</time>
      </trkpt>
      <trkpt lat="47.8408" lon="7.11427">
        <ele>849.94</ele>
        <time>2015-01-08T11:27:54Z</time>
      </trkpt>
      <trkpt lat="47.84084" lon="7.11428">
        <ele>851.87</ele>
        <time>2015-01-08T11:28:12Z</time>
      </trkpt>
      <trkpt lat="47.84087" lon="7.1143">
        <ele>850.9</ele>
        <time>2015-01-08T11:28:35Z</time>
      </trkpt>
      <trkpt lat="47.84085" lon="7.11428">
        <ele>849.94</ele>
        <time>2015-01-08T11:28:56Z</time>
      </trkpt>
      <trkpt lat="47.84084" lon="7.11427">
        <ele>846.58</ele>
        <time>2015-01-08T11:29:15Z</time>
      </trkpt>
      <trkpt lat="47.84082" lon="7.11428">
        <ele>844.18</ele>
        <time>2015-01-08T11:29:35Z</time>
      </trkpt>
      <trkpt lat="47.8408" lon="7.11432">
        <ele>846.58</ele>
        <time>2015-01-08T11:29:57Z</time>
      </trkpt>
      <trkpt lat="47.84083" lon="7.11432">
        <ele>847.06</ele>
        <time>2015-01-08T11:30:15Z</time>
      </trkpt>
      <trkpt lat="47.84084" lon="7.11431">
        <ele>845.62</ele>
        <time>2015-01-08T11:30:38Z</time>
      </trkpt>
      <trkpt lat="47.84084" lon="7.11426">
        <ele>845.14</ele>
        <time>2015-01-08T11:30:59Z</time>
      </trkpt>
      <trkpt lat="47.84084" lon="7.11428">
        <ele>845.14</ele>
        <time>2015-01-08T11:31:19Z</time>
      </trkpt>
      <trkpt lat="47.84086" lon="7.11431">
        <ele>841.29</ele>
        <time>2015-01-08T11:31:37Z</time>
      </trkpt>
      <trkpt lat="47.84087" lon="7.11431">
        <ele>840.81</ele>
        <time>2015-01-08T11:31:54Z</time>
      </trkpt>
      <trkpt lat="47.84088" lon="7.11427">
        <ele>839.37</ele>
        <time>2015-01-08T11:32:15Z</time>
      </trkpt>
      <trkpt lat="47.84091" lon="7.11428">
        <ele>837.45</ele>
        <time>2015-01-08T11:32:33Z</time>
      </trkpt>
      <trkpt lat="47.84091" lon="7.11429">
        <ele>836.96</ele>
        <time>2015-01-08T11:32:55Z</time>
      </trkpt>
      <trkpt lat="47.84088" lon="7.11429">
        <ele>838.41</ele>
        <time>2015-01-08T11:33:17Z</time>
      </trkpt>
      <trkpt lat="47.84088" lon="7.11425">
        <ele>836.48</ele>
        <time>2015-01-08T11:33:39Z</time>
      </trkpt>
      <trkpt lat="47.84089" lon="7.11427">
        <ele>835.04</ele>
        <time>2015-01-08T11:34:00Z</time>
      </trkpt>
      <trkpt lat="47.84091" lon="7.11429">
        <ele>835.52</ele>
        <time>2015-01-08T11:34:20Z</time>
      </trkpt>
      <trkpt lat="47.8409" lon="7.11431">
        <ele>838.41</ele>
        <time>2015-01-08T11:34:43Z</time>
      </trkpt>
      <trkpt lat="47.8409" lon="7.1143">
        <ele>836.48</ele>
        <time>2015-01-08T11:35:03Z</time>
      </trkpt>
      <trkpt lat="47.84091" lon="7.11431">
        <ele>833.6</ele>
        <time>2015-01-08T11:35:23Z</time>
      </trkpt>
      <trkpt lat="47.8409" lon="7.11428">
        <ele>832.64</ele>
        <time>2015-01-08T11:35:45Z</time>
      </trkpt>
      <trkpt lat="47.84091" lon="7.1143">
        <ele>835.52</ele>
        <time>2015-01-08T11:36:09Z</time>
      </trkpt>
      <trkpt lat="47.84089" lon="7.11431">
        <ele>836</ele>
        <time>2015-01-08T11:36:31Z</time>
      </trkpt>
      <trkpt lat="47.8409" lon="7.11431">
        <ele>836.96</ele>
        <time>2015-01-08T11:36:53Z</time>
      </trkpt>
      <trkpt lat="47.8409" lon="7.11434">
        <ele>835.52</ele>
        <time>2015-01-08T11:37:16Z</time>
      </trkpt>
      <trkpt lat="47.8409" lon="7.1143">
        <ele>835.04</ele>
        <time>2015-01-08T11:37:38Z</time>
      </trkpt>
      <trkpt lat="47.8409" lon="7.11429">
        <ele>834.56</ele>
        <time>2015-01-08T11:37:59Z</time>
      </trkpt>
      <trkpt lat="47.8409" lon="7.11429">
        <ele>832.64</ele>
        <time>2015-01-08T11:38:23Z</time>
      </trkpt>
      <trkpt lat="47.84091" lon="7.11428">
        <ele>835.04</ele>
        <time>2015-01-08T11:38:43Z</time>
      </trkpt>
      <trkpt lat="47.84091" lon="7.11429">
        <ele>835.04</ele>
        <time>2015-01-08T11:39:03Z</time>
      </trkpt>
      <trkpt lat="47.84091" lon="7.11429">
        <ele>832.16</ele>
        <time>2015-01-08T11:39:22Z</time>
      </trkpt>
      <trkpt lat="47.84091" lon="7.11432">
        <ele>824.95</ele>
        <time>2015-01-08T11:39:41Z</time>
      </trkpt>
      <trkpt lat="47.84089" lon="7.11433">
        <ele>823.51</ele>
        <time>2015-01-08T11:40:02Z</time>
      </trkpt>
      <trkpt lat="47.84088" lon="7.11432">
        <ele>825.91</ele>
        <time>2015-01-08T11:40:21Z</time>
      </trkpt>
      <trkpt lat="47.84089" lon="7.11435">
        <ele>825.91</ele>
        <time>2015-01-08T11:40:38Z</time>
      </trkpt>
      <trkpt lat="47.84088" lon="7.11435">
        <ele>826.39</ele>
        <time>2015-01-08T11:40:55Z</time>
      </trkpt>
      <trkpt lat="47.8409" lon="7.11435">
        <ele>825.91</ele>
        <time>2015-01-08T11:41:14Z</time>
      </trkpt>
      <trkpt lat="47.84094" lon="7.11435">
        <ele>827.83</ele>
        <time>2015-01-08T11:41:32Z</time>
      </trkpt>
      <trkpt lat="47.84095" lon="7.11434">
        <ele>826.87</ele>
        <time>2015-01-08T11:41:49Z</time>
      </trkpt>
      <trkpt lat="47.84096" lon="7.11434">
        <ele>823.99</ele>
        <time>2015-01-08T11:42:11Z</time>
      </trkpt>
      <trkpt lat="47.84096" lon="7.11433">
        <ele>823.03</ele>
        <time>2015-01-08T11:42:32Z</time>
      </trkpt>
      <trkpt lat="47.84096" lon="7.11432">
        <ele>822.55</ele>
        <time>2015-01-08T11:42:52Z</time>
      </trkpt>
      <trkpt lat="47.84097" lon="7.11432">
        <ele>826.39</ele>
        <time>2015-01-08T11:43:13Z</time>
      </trkpt>
      <trkpt lat="47.84095" lon="7.11432">
        <ele>828.79</ele>
        <time>2015-01-08T11:43:36Z</time>
      </trkpt>
      <trkpt lat="47.84094" lon="7.11431">
        <ele>830.24</ele>
        <time>2015-01-08T11:43:57Z</time>
      </trkpt>
      <trkpt lat="47.84094" lon="7.11428">
        <ele>832.16</ele>
        <time>2015-01-08T11:44:18Z</time>
      </trkpt>
      <trkpt lat="47.84094" lon="7.1143">
        <ele>832.64</ele>
        <time>2015-01-08T11:44:36Z</time>
      </trkpt>
      <trkpt lat="47.84094" lon="7.1143">
        <ele>831.2</ele>
        <time>2015-01-08T11:44:59Z</time>
      </trkpt>
      <trkpt lat="47.84094" lon="7.1143">
        <ele>830.24</ele>
        <time>2015-01-08T11:45:17Z</time>
      </trkpt>
      <trkpt lat="47.84094" lon="7.11429">
        <ele>832.16</ele>
        <time>2015-01-08T11:45:36Z</time>
      </trkpt>
      <trkpt lat="47.84095" lon="7.1143">
        <ele>831.2</ele>
        <time>2015-01-08T11:45:55Z</time>
      </trkpt>
      <trkpt lat="47.84096" lon="7.1143">
        <ele>831.2</ele>
        <time>2015-01-08T11:46:13Z</time>
      </trkpt>
      <trkpt lat="47.84098" lon="7.11434">
        <ele>830.72</ele>
        <time>2015-01-08T11:46:35Z</time>
      </trkpt>
      <trkpt lat="47.84096" lon="7.11434">
        <ele>834.08</ele>
        <time>2015-01-08T11:46:57Z</time>
      </trkpt>
      <trkpt lat="47.8409" lon="7.1143">
        <ele>835.04</ele>
        <time>2015-01-08T11:47:22Z</time>
      </trkpt>
      <trkpt lat="47.84085" lon="7.11426">
        <ele>834.56</ele>
        <time>2015-01-08T11:47:43Z</time>
      </trkpt>
      <trkpt lat="47.84088" lon="7.11428">
        <ele>830.72</ele>
        <time>2015-01-08T11:48:04Z</time>
      </trkpt>
      <trkpt lat="47.84091" lon="7.11429">
        <ele>831.68</ele>
        <time>2015-01-08T11:48:23Z</time>
      </trkpt>
      <trkpt lat="47.84088" lon="7.11426">
        <ele>833.6</ele>
        <time>2015-01-08T11:48:41Z</time>
      </trkpt>
      <trkpt lat="47.8409" lon="7.11426">
        <ele>834.08</ele>
        <time>2015-01-08T11:49:02Z</time>
      </trkpt>
      <trkpt lat="47.8409" lon="7.11424">
        <ele>837.45</ele>
        <time>2015-01-08T11:49:23Z</time>
      </trkpt>
      <trkpt lat="47.84092" lon="7.11426">
        <ele>836.96</ele>
        <time>2015-01-08T11:49:41Z</time>
      </trkpt>
      <trkpt lat="47.84092" lon="7.11426">
        <ele>837.45</ele>
        <time>2015-01-08T11:50:03Z</time>
      </trkpt>
      <trkpt lat="47.84089" lon="7.11427">
        <ele>838.41</ele>
        <time>2015-01-08T11:50:23Z</time>
      </trkpt>
      <trkpt lat="47.84095" lon="7.1143">
        <ele>840.81</ele>
        <time>2015-01-08T11:50:41Z</time>
      </trkpt>
      <trkpt lat="47.84094" lon="7.1143">
        <ele>845.14</ele>
        <time>2015-01-08T11:51:00Z</time>
      </trkpt>
      <trkpt lat="47.84094" lon="7.11432">
        <ele>848.98</ele>
        <time>2015-01-08T11:51:20Z</time>
      </trkpt>
      <trkpt lat="47.84092" lon="7.11429">
        <ele>848.02</ele>
        <time>2015-01-08T11:51:42Z</time>
      </trkpt>
      <trkpt lat="47.8409" lon="7.11428">
        <ele>848.98</ele>
        <time>2015-01-08T11:52:06Z</time>
      </trkpt>
      <trkpt lat="47.84088" lon="7.11428">
        <ele>845.62</ele>
        <time>2015-01-08T11:52:27Z</time>
      </trkpt>
      <trkpt lat="47.84087" lon="7.11427">
        <ele>843.69</ele>
        <time>2015-01-08T11:52:45Z</time>
      </trkpt>
      <trkpt lat="47.84086" lon="7.11425">
        <ele>842.73</ele>
        <time>2015-01-08T11:53:03Z</time>
      </trkpt>
      <trkpt lat="47.84086" lon="7.11422">
        <ele>839.37</ele>
        <time>2015-01-08T11:53:21Z</time>
      </trkpt>
      <trkpt lat="47.84084" lon="7.11424">
        <ele>838.89</ele>
        <time>2015-01-08T11:53:43Z</time>
      </trkpt>
      <trkpt lat="47.8409" lon="7.11427">
        <ele>838.41</ele>
        <time>2015-01-08T11:54:05Z</time>
      </trkpt>
      <trkpt lat="47.84093" lon="7.11427">
        <ele>837.45</ele>
        <time>2015-01-08T11:54:24Z</time>
      </trkpt>
      <trkpt lat="47.84091" lon="7.11428">
        <ele>839.37</ele>
        <time>2015-01-08T11:54:42Z</time>
      </trkpt>
      <trkpt lat="47.84089" lon="7.11429">
        <ele>842.25</ele>
        <time>2015-01-08T11:55:00Z</time>
      </trkpt>
      <trkpt lat="47.84092" lon="7.11429">
        <ele>842.73</ele>
        <time>2015-01-08T11:55:19Z</time>
      </trkpt>
      <trkpt lat="47.84092" lon="7.11426">
        <ele>845.14</ele>
        <time>2015-01-08T11:55:37Z</time>
      </trkpt>
      <trkpt lat="47.84088" lon="7.11427">
        <ele>847.06</ele>
        <time>2015-01-08T11:55:56Z</time>
      </trkpt>
      <trkpt lat="47.8409" lon="7.11431">
        <ele>846.58</ele>
        <time>2015-01-08T11:56:14Z</time>
      </trkpt>
      <trkpt lat="47.84091" lon="7.11432">
        <ele>845.14</ele>
        <time>2015-01-08T11:56:33Z</time>
      </trkpt>
      <trkpt lat="47.84088" lon="7.11431">
        <ele>845.14</ele>
        <time>2015-01-08T11:56:52Z</time>
      </trkpt>
      <trkpt lat="47.84087" lon="7.11431">
        <ele>845.14</ele>
        <time>2015-01-08T11:57:09Z</time>
      </trkpt>
      <trkpt lat="47.8409" lon="7.11435">
        <ele>841.29</ele>
        <time>2015-01-08T11:57:30Z</time>
      </trkpt>
      <trkpt lat="47.84092" lon="7.11436">
        <ele>841.77</ele>
        <time>2015-01-08T11:57:48Z</time>
      </trkpt>
      <trkpt lat="47.84091" lon="7.11438">
        <ele>841.77</ele>
        <time>2015-01-08T11:58:08Z</time>
      </trkpt>
      <trkpt lat="47.84089" lon="7.11437">
        <ele>840.33</ele>
        <time>2015-01-08T11:58:26Z</time>
      </trkpt>
      <trkpt lat="47.84085" lon="7.11435">
        <ele>838.41</ele>
        <time>2015-01-08T11:58:45Z</time>
      </trkpt>
      <trkpt lat="47.8409" lon="7.11431">
        <ele>835.52</ele>
        <time>2015-01-08T11:59:05Z</time>
      </trkpt>
      <trkpt lat="47.84092" lon="7.11429">
        <ele>837.45</ele>
        <time>2015-01-08T11:59:24Z</time>
      </trkpt>
      <trkpt lat="47.84092" lon="7.1143">
        <ele>837.93</ele>
        <time>2015-01-08T11:59:44Z</time>
      </trkpt>
      <trkpt lat="47.84094" lon="7.11429">
        <ele>837.93</ele>
        <time>2015-01-08T12:00:03Z</time>
      </trkpt>
      <trkpt lat="47.841" lon="7.11432">
        <ele>839.37</ele>
        <time>2015-01-08T12:00:24Z</time>
      </trkpt>
      <trkpt lat="47.84094" lon="7.11428">
        <ele>837.45</ele>
        <time>2015-01-08T12:00:44Z</time>
      </trkpt>
      <trkpt lat="47.84094" lon="7.11427">
        <ele>835.04</ele>
        <time>2015-01-08T12:01:05Z</time>
      </trkpt>
      <trkpt lat="47.84092" lon="7.11428">
        <ele>834.56</ele>
        <time>2015-01-08T12:01:23Z</time>
      </trkpt>
      <trkpt lat="47.8409" lon="7.11426">
        <ele>836.48</ele>
        <time>2015-01-08T12:01:42Z</time>
      </trkpt>
      <trkpt lat="47.84092" lon="7.11426">
        <ele>835.04</ele>
        <time>2015-01-08T12:02:00Z</time>
      </trkpt>
      <trkpt lat="47.84099" lon="7.11431">
        <ele>834.56</ele>
        <time>2015-01-08T12:02:23Z</time>
      </trkpt>
      <trkpt lat="47.84099" lon="7.11431">
        <ele>834.56</ele>
        <time>2015-01-08T12:02:39Z</time>
      </trkpt>
      <trkpt lat="47.84097" lon="7.11432">
        <ele>837.45</ele>
        <time>2015-01-08T12:03:00Z</time>
      </trkpt>
      <trkpt lat="47.84097" lon="7.1143">
        <ele>842.73</ele>
        <time>2015-01-08T12:03:16Z</time>
      </trkpt>
      <trkpt lat="47.84097" lon="7.1143">
        <ele>845.14</ele>
        <time>2015-01-08T12:03:35Z</time>
      </trkpt>
      <trkpt lat="47.84094" lon="7.1143">
        <ele>845.62</ele>
        <time>2015-01-08T12:04:00Z</time>
      </trkpt>
      <trkpt lat="47.84093" lon="7.1143">
        <ele>846.1</ele>
        <time>2015-01-08T12:04:17Z</time>
      </trkpt>
      <trkpt lat="47.84094" lon="7.11429">
        <ele>845.14</ele>
        <time>2015-01-08T12:04:32Z</time>
      </trkpt>
      <trkpt lat="47.841" lon="7.1143">
        <ele>847.54</ele>
        <time>2015-01-08T12:04:50Z</time>
      </trkpt>
      <trkpt lat="47.84102" lon="7.1143">
        <ele>844.66</ele>
        <time>2015-01-08T12:05:12Z</time>
      </trkpt>
      <trkpt lat="47.84105" lon="7.11429">
        <ele>845.14</ele>
        <time>2015-01-08T12:05:36Z</time>
      </trkpt>
      <trkpt lat="47.84097" lon="7.1143">
        <ele>847.54</ele>
        <time>2015-01-08T12:05:56Z</time>
      </trkpt>
      <trkpt lat="47.84094" lon="7.11429">
        <ele>845.14</ele>
        <time>2015-01-08T12:06:17Z</time>
      </trkpt>
      <trkpt lat="47.84095" lon="7.11427">
        <ele>845.62</ele>
        <time>2015-01-08T12:06:38Z</time>
      </trkpt>
      <trkpt lat="47.8409" lon="7.11421">
        <ele>846.58</ele>
        <time>2015-01-08T12:06:59Z</time>
      </trkpt>
      <trkpt lat="47.84095" lon="7.11425">
        <ele>843.69</ele>
        <time>2015-01-08T12:07:20Z</time>
      </trkpt>
      <trkpt lat="47.84098" lon="7.11426">
        <ele>838.89</ele>
        <time>2015-01-08T12:07:39Z</time>
      </trkpt>
      <trkpt lat="47.841" lon="7.1143">
        <ele>833.6</ele>
        <time>2015-01-08T12:08:01Z</time>
      </trkpt>
      <trkpt lat="47.84101" lon="7.11433">
        <ele>831.2</ele>
        <time>2015-01-08T12:08:20Z</time>
      </trkpt>
      <trkpt lat="47.84099" lon="7.11431">
        <ele>827.83</ele>
        <time>2015-01-08T12:08:38Z</time>
      </trkpt>
      <trkpt lat="47.84098" lon="7.11431">
        <ele>828.79</ele>
        <time>2015-01-08T12:09:06Z</time>
      </trkpt>
      <trkpt lat="47.841" lon="7.11432">
        <ele>830.24</ele>
        <time>2015-01-08T12:09:28Z</time>
      </trkpt>
      <trkpt lat="47.84099" lon="7.11429">
        <ele>830.24</ele>
        <time>2015-01-08T12:09:44Z</time>
      </trkpt>
      <trkpt lat="47.84102" lon="7.11431">
        <ele>830.24</ele>
        <time>2015-01-08T12:10:06Z</time>
      </trkpt>
      <trkpt lat="47.84104" lon="7.1143">
        <ele>828.31</ele>
        <time>2015-01-08T12:10:26Z</time>
      </trkpt>
      <trkpt lat="47.84104" lon="7.11434">
        <ele>826.39</ele>
        <time>2015-01-08T12:10:48Z</time>
      </trkpt>
      <trkpt lat="47.84101" lon="7.11437">
        <ele>826.87</ele>
        <time>2015-01-08T12:11:06Z</time>
      </trkpt>
      <trkpt lat="47.841" lon="7.1143">
        <ele>826.87</ele>
        <time>2015-01-08T12:11:28Z</time>
      </trkpt>
      <trkpt lat="47.84099" lon="7.11428">
        <ele>826.87</ele>
        <time>2015-01-08T12:11:45Z</time>
      </trkpt>
      <trkpt lat="47.84096" lon="7.1143">
        <ele>825.91</ele>
        <time>2015-01-08T12:12:05Z</time>
      </trkpt>
      <trkpt lat="47.84095" lon="7.11433">
        <ele>825.91</ele>
        <time>2015-01-08T12:12:25Z</time>
      </trkpt>
      <trkpt lat="47.84094" lon="7.11431">
        <ele>825.43</ele>
        <time>2015-01-08T12:12:44Z</time>
      </trkpt>
      <trkpt lat="47.84095" lon="7.11428">
        <ele>826.39</ele>
        <time>2015-01-08T12:13:06Z</time>
      </trkpt>
      <trkpt lat="47.84099" lon="7.1143">
        <ele>829.27</ele>
        <time>2015-01-08T12:13:28Z</time>
      </trkpt>
      <trkpt lat="47.84098" lon="7.11429">
        <ele>830.24</ele>
        <time>2015-01-08T12:13:48Z</time>
      </trkpt>
      <trkpt lat="47.84098" lon="7.11428">
        <ele>830.72</ele>
        <time>2015-01-08T12:14:14Z</time>
      </trkpt>
      <trkpt lat="47.84096" lon="7.11427">
        <ele>828.31</ele>
        <time>2015-01-08T12:14:32Z</time>
      </trkpt>
      <trkpt lat="47.84096" lon="7.1143">
        <ele>826.87</ele>
        <time>2015-01-08T12:14:53Z</time>
      </trkpt>
      <trkpt lat="47.84096" lon="7.11434">
        <ele>829.76</ele>
        <time>2015-01-08T12:15:10Z</time>
      </trkpt>
      <trkpt lat="47.84097" lon="7.11434">
        <ele>833.6</ele>
        <time>2015-01-08T12:15:30Z</time>
      </trkpt>
      <trkpt lat="47.84096" lon="7.11438">
        <ele>832.64</ele>
        <time>2015-01-08T12:15:53Z</time>
      </trkpt>
      <trkpt lat="47.84096" lon="7.11435">
        <ele>835.52</ele>
        <time>2015-01-08T12:16:13Z</time>
      </trkpt>
      <trkpt lat="47.84099" lon="7.11434">
        <ele>836</ele>
        <time>2015-01-08T12:16:34Z</time>
      </trkpt>
      <trkpt lat="47.84098" lon="7.11433">
        <ele>840.33</ele>
        <time>2015-01-08T12:16:54Z</time>
      </trkpt>
      <trkpt lat="47.84097" lon="7.11435">
        <ele>839.85</ele>
        <time>2015-01-08T12:17:16Z</time>
      </trkpt>
      <trkpt lat="47.84095" lon="7.11432">
        <ele>838.89</ele>
        <time>2015-01-08T12:17:38Z</time>
      </trkpt>
      <trkpt lat="47.841" lon="7.11434">
        <ele>839.85</ele>
        <time>2015-01-08T12:18:01Z</time>
      </trkpt>
      <trkpt lat="47.84101" lon="7.11434">
        <ele>839.85</ele>
        <time>2015-01-08T12:18:20Z</time>
      </trkpt>
      <trkpt lat="47.841" lon="7.11437">
        <ele>840.81</ele>
        <time>2015-01-08T12:18:41Z</time>
      </trkpt>
      <trkpt lat="47.84103" lon="7.11438">
        <ele>839.85</ele>
        <time>2015-01-08T12:19:01Z</time>
      </trkpt>
      <trkpt lat="47.84101" lon="7.11437">
        <ele>839.37</ele>
        <time>2015-01-08T12:19:22Z</time>
      </trkpt>
      <trkpt lat="47.841" lon="7.11437">
        <ele>837.93</ele>
        <time>2015-01-08T12:19:44Z</time>
      </trkpt>
      <trkpt lat="47.84102" lon="7.11436">
        <ele>839.37</ele>
        <time>2015-01-08T12:20:04Z</time>
      </trkpt>
      <trkpt lat="47.841" lon="7.11434">
        <ele>837.45</ele>
        <time>2015-01-08T12:20:22Z</time>
      </trkpt>
      <trkpt lat="47.841" lon="7.11432">
        <ele>836.96</ele>
        <time>2015-01-08T12:20:46Z</time>
      </trkpt>
      <trkpt lat="47.84096" lon="7.11433">
        <ele>836</ele>
        <time>2015-01-08T12:21:07Z</time>
      </trkpt>
      <trkpt lat="47.841" lon="7.11434">
        <ele>837.45</ele>
        <time>2015-01-08T12:21:25Z</time>
      </trkpt>
      <trkpt lat="47.84107" lon="7.11433">
        <ele>839.37</ele>
        <time>2015-01-08T12:21:50Z</time>
      </trkpt>
      <trkpt lat="47.84105" lon="7.11434">
        <ele>841.77</ele>
        <time>2015-01-08T12:22:13Z</time>
      </trkpt>
      <trkpt lat="47.84102" lon="7.11432">
        <ele>841.29</ele>
        <time>2015-01-08T12:22:36Z</time>
      </trkpt>
      <trkpt lat="47.84105" lon="7.11434">
        <ele>842.73</ele>
        <time>2015-01-08T12:22:57Z</time>
      </trkpt>
      <trkpt lat="47.84103" lon="7.11432">
        <ele>847.06</ele>
        <time>2015-01-08T12:23:18Z</time>
      </trkpt>
      <trkpt lat="47.84104" lon="7.1143">
        <ele>848.5</ele>
        <time>2015-01-08T12:23:42Z</time>
      </trkpt>
      <trkpt lat="47.84102" lon="7.11432">
        <ele>848.02</ele>
        <time>2015-01-08T12:24:03Z</time>
      </trkpt>
      <trkpt lat="47.84101" lon="7.1143">
        <ele>847.54</ele>
        <time>2015-01-08T12:24:19Z</time>
      </trkpt>
      <trkpt lat="47.84101" lon="7.11428">
        <ele>846.58</ele>
        <time>2015-01-08T12:24:37Z</time>
      </trkpt>
      <trkpt lat="47.84101" lon="7.11429">
        <ele>846.58</ele>
        <time>2015-01-08T12:24:54Z</time>
      </trkpt>
      <trkpt lat="47.84096" lon="7.11428">
        <ele>846.58</ele>
        <time>2015-01-08T12:25:12Z</time>
      </trkpt>
      <trkpt lat="47.84102" lon="7.11432">
        <ele>843.69</ele>
        <time>2015-01-08T12:25:27Z</time>
      </trkpt>
      <trkpt lat="47.84099" lon="7.11433">
        <ele>844.66</ele>
        <time>2015-01-08T12:25:46Z</time>
      </trkpt>
      <trkpt lat="47.84097" lon="7.11431">
        <ele>843.21</ele>
        <time>2015-01-08T12:26:02Z</time>
      </trkpt>
      <trkpt lat="47.841" lon="7.11431">
        <ele>843.69</ele>
        <time>2015-01-08T12:26:15Z</time>
      </trkpt>
      <trkpt lat="47.84099" lon="7.11425">
        <ele>844.18</ele>
        <time>2015-01-08T12:26:30Z</time>
      </trkpt>
      <trkpt lat="47.84096" lon="7.11425">
        <ele>845.14</ele>
        <time>2015-01-08T12:26:43Z</time>
      </trkpt>
      <trkpt lat="47.84097" lon="7.11427">
        <ele>846.58</ele>
        <time>2015-01-08T12:26:57Z</time>
      </trkpt>
      <trkpt lat="47.84097" lon="7.11435">
        <ele>847.06</ele>
        <time>2015-01-08T12:27:12Z</time>
      </trkpt>
      <trkpt lat="47.84095" lon="7.11437">
        <ele>846.1</ele>
        <time>2015-01-08T12:27:25Z</time>
      </trkpt>
      <trkpt lat="47.84094" lon="7.11439">
        <ele>846.1</ele>
        <time>2015-01-08T12:27:41Z</time>
      </trkpt>
      <trkpt lat="47.84094" lon="7.11435">
        <ele>848.5</ele>
        <time>2015-01-08T12:27:56Z</time>
      </trkpt>
      <trkpt lat="47.84093" lon="7.11436">
        <ele>849.46</ele>
        <time>2015-01-08T12:28:09Z</time>
      </trkpt>
      <trkpt lat="47.84091" lon="7.11436">
        <ele>849.46</ele>
        <time>2015-01-08T12:28:16Z</time>
      </trkpt>
      <trkpt lat="47.84087" lon="7.11431">
        <ele>849.46</ele>
        <time>2015-01-08T12:28:20Z</time>
      </trkpt>
      <trkpt lat="47.84081" lon="7.11419">
        <ele>849.46</ele>
        <time>2015-01-08T12:28:29Z</time>
      </trkpt>
      <trkpt lat="47.84088" lon="7.11424">
        <ele>850.42</ele>
        <time>2015-01-08T12:28:40Z</time>
      </trkpt>
      <trkpt lat="47.84092" lon="7.11423">
        <ele>853.31</ele>
        <time>2015-01-08T12:28:52Z</time>
      </trkpt>
      <trkpt lat="47.84096" lon="7.11425">
        <ele>855.71</ele>
        <time>2015-01-08T12:29:06Z</time>
      </trkpt>
      <trkpt lat="47.84095" lon="7.11425">
        <ele>860.52</ele>
        <time>2015-01-08T12:29:23Z</time>
      </trkpt>
      <trkpt lat="47.84096" lon="7.11424">
        <ele>859.56</ele>
        <time>2015-01-08T12:29:39Z</time>
      </trkpt>
      <trkpt lat="47.84093" lon="7.11424">
        <ele>859.56</ele>
        <time>2015-01-08T12:29:55Z</time>
      </trkpt>
      <trkpt lat="47.84092" lon="7.11427">
        <ele>859.08</ele>
        <time>2015-01-08T12:30:12Z</time>
      </trkpt>
      <trkpt lat="47.84091" lon="7.11432">
        <ele>858.11</ele>
        <time>2015-01-08T12:30:29Z</time>
      </trkpt>
      <trkpt lat="47.84093" lon="7.11431">
        <ele>855.23</ele>
        <time>2015-01-08T12:30:43Z</time>
      </trkpt>
      <trkpt lat="47.84089" lon="7.11432">
        <ele>854.27</ele>
        <time>2015-01-08T12:30:59Z</time>
      </trkpt>
      <trkpt lat="47.84089" lon="7.11435">
        <ele>854.27</ele>
        <time>2015-01-08T12:31:14Z</time>
      </trkpt>
      <trkpt lat="47.84092" lon="7.11435">
        <ele>854.75</ele>
        <time>2015-01-08T12:31:26Z</time>
      </trkpt>
      <trkpt lat="47.84093" lon="7.11435">
        <ele>854.27</ele>
        <time>2015-01-08T12:31:38Z</time>
      </trkpt>
      <trkpt lat="47.84091" lon="7.11434">
        <ele>854.75</ele>
        <time>2015-01-08T12:31:51Z</time>
      </trkpt>
      <trkpt lat="47.84093" lon="7.1143">
        <ele>855.23</ele>
        <time>2015-01-08T12:32:05Z</time>
      </trkpt>
      <trkpt lat="47.841" lon="7.11428">
        <ele>851.38</ele>
        <time>2015-01-08T12:32:18Z</time>
      </trkpt>
      <trkpt lat="47.84104" lon="7.11435">
        <ele>846.1</ele>
        <time>2015-01-08T12:32:29Z</time>
      </trkpt>
      <trkpt lat="47.84098" lon="7.11434">
        <ele>844.66</ele>
        <time>2015-01-08T12:32:44Z</time>
      </trkpt>
      <trkpt lat="47.84097" lon="7.11428">
        <ele>844.66</ele>
        <time>2015-01-08T12:32:57Z</time>
      </trkpt>
      <trkpt lat="47.84096" lon="7.11426">
        <ele>845.14</ele>
        <time>2015-01-08T12:33:14Z</time>
      </trkpt>
      <trkpt lat="47.84094" lon="7.1144">
        <ele>842.73</ele>
        <time>2015-01-08T12:33:25Z</time>
      </trkpt>
      <trkpt lat="47.84085" lon="7.11449">
        <ele>849.94</ele>
        <time>2015-01-08T12:33:35Z</time>
      </trkpt>
      <trkpt lat="47.84092" lon="7.1144">
        <ele>848.98</ele>
        <time>2015-01-08T12:33:43Z</time>
      </trkpt>
      <trkpt lat="47.841" lon="7.11436">
        <ele>848.02</ele>
        <time>2015-01-08T12:33:51Z</time>
      </trkpt>
      <trkpt lat="47.84106" lon="7.11433">
        <ele>849.46</ele>
        <time>2015-01-08T12:33:58Z</time>
      </trkpt>
      <trkpt lat="47.84108" lon="7.11431">
        <ele>849.46</ele>
        <time>2015-01-08T12:34:09Z</time>
      </trkpt>
      <trkpt lat="47.84112" lon="7.11431">
        <ele>848.02</ele>
        <time>2015-01-08T12:34:23Z</time>
      </trkpt>
      <trkpt lat="47.84116" lon="7.1143">
        <ele>847.06</ele>
        <time>2015-01-08T12:34:44Z</time>
      </trkpt>
      <trkpt lat="47.84112" lon="7.11434">
        <ele>846.1</ele>
        <time>2015-01-08T12:34:56Z</time>
      </trkpt>
      <trkpt lat="47.84105" lon="7.11435">
        <ele>845.62</ele>
        <time>2015-01-08T12:35:05Z</time>
      </trkpt>
      <trkpt lat="47.84102" lon="7.1144">
        <ele>844.66</ele>
        <time>2015-01-08T12:35:15Z</time>
      </trkpt>
      <trkpt lat="47.84095" lon="7.11448">
        <ele>844.18</ele>
        <time>2015-01-08T12:35:24Z</time>
      </trkpt>
      <trkpt lat="47.84086" lon="7.11455">
        <ele>845.62</ele>
        <time>2015-01-08T12:35:38Z</time>
      </trkpt>
      <trkpt lat="47.8409" lon="7.11458">
        <ele>846.58</ele>
        <time>2015-01-08T12:35:48Z</time>
      </trkpt>
      <trkpt lat="47.84091" lon="7.11458">
        <ele>847.54</ele>
        <time>2015-01-08T12:35:59Z</time>
      </trkpt>
      <trkpt lat="47.84105" lon="7.11445">
        <ele>850.42</ele>
        <time>2015-01-08T12:36:12Z</time>
      </trkpt>
      <trkpt lat="47.84111" lon="7.11441">
        <ele>853.79</ele>
        <time>2015-01-08T12:36:22Z</time>
      </trkpt>
      <trkpt lat="47.84115" lon="7.11439">
        <ele>855.71</ele>
        <time>2015-01-08T12:36:30Z</time>
      </trkpt>
      <trkpt lat="47.84121" lon="7.11436">
        <ele>856.19</ele>
        <time>2015-01-08T12:36:40Z</time>
      </trkpt>
      <trkpt lat="47.84124" lon="7.11435">
        <ele>854.75</ele>
        <time>2015-01-08T12:36:49Z</time>
      </trkpt>
      <trkpt lat="47.84132" lon="7.11438">
        <ele>852.83</ele>
        <time>2015-01-08T12:37:02Z</time>
      </trkpt>
      <trkpt lat="47.84139" lon="7.11443">
        <ele>852.35</ele>
        <time>2015-01-08T12:37:12Z</time>
      </trkpt>
      <trkpt lat="47.84142" lon="7.11442">
        <ele>853.79</ele>
        <time>2015-01-08T12:37:24Z</time>
      </trkpt>
      <trkpt lat="47.84146" lon="7.11443">
        <ele>856.67</ele>
        <time>2015-01-08T12:37:32Z</time>
      </trkpt>
      <trkpt lat="47.84151" lon="7.11446">
        <ele>860.04</ele>
        <time>2015-01-08T12:37:41Z</time>
      </trkpt>
      <trkpt lat="47.84154" lon="7.11449">
        <ele>863.4</ele>
        <time>2015-01-08T12:37:50Z</time>
      </trkpt>
      <trkpt lat="47.84157" lon="7.1145">
        <ele>862.92</ele>
        <time>2015-01-08T12:37:59Z</time>
      </trkpt>
      <trkpt lat="47.84158" lon="7.11449">
        <ele>862.92</ele>
        <time>2015-01-08T12:38:07Z</time>
      </trkpt>
      <trkpt lat="47.84159" lon="7.11447">
        <ele>863.4</ele>
        <time>2015-01-08T12:38:16Z</time>
      </trkpt>
      <trkpt lat="47.84165" lon="7.11449">
        <ele>862.92</ele>
        <time>2015-01-08T12:38:25Z</time>
      </trkpt>
      <trkpt lat="47.84169" lon="7.11451">
        <ele>861.96</ele>
        <time>2015-01-08T12:38:35Z</time>
      </trkpt>
      <trkpt lat="47.84174" lon="7.11451">
        <ele>861.96</ele>
        <time>2015-01-08T12:38:46Z</time>
      </trkpt>
      <trkpt lat="47.84177" lon="7.11451">
        <ele>861.96</ele>
        <time>2015-01-08T12:38:53Z</time>
      </trkpt>
      <trkpt lat="47.84178" lon="7.11449">
        <ele>861.96</ele>
        <time>2015-01-08T12:39:00Z</time>
      </trkpt>
      <trkpt lat="47.84183" lon="7.11448">
        <ele>862.44</ele>
        <time>2015-01-08T12:39:09Z</time>
      </trkpt>
      <trkpt lat="47.84189" lon="7.1145">
        <ele>864.84</ele>
        <time>2015-01-08T12:39:18Z</time>
      </trkpt>
      <trkpt lat="47.84191" lon="7.11448">
        <ele>867.73</ele>
        <time>2015-01-08T12:39:24Z</time>
      </trkpt>
      <trkpt lat="47.84195" lon="7.11445">
        <ele>873.5</ele>
        <time>2015-01-08T12:39:31Z</time>
      </trkpt>
      <trkpt lat="47.84196" lon="7.11448">
        <ele>875.42</ele>
        <time>2015-01-08T12:39:36Z</time>
      </trkpt>
      <trkpt lat="47.84197" lon="7.11448">
        <ele>876.38</ele>
        <time>2015-01-08T12:39:44Z</time>
      </trkpt>
      <trkpt lat="47.84199" lon="7.11451">
        <ele>877.34</ele>
        <time>2015-01-08T12:39:52Z</time>
      </trkpt>
      <trkpt lat="47.842" lon="7.1145">
        <ele>877.34</ele>
        <time>2015-01-08T12:39:58Z</time>
      </trkpt>
      <trkpt lat="47.84201" lon="7.11446">
        <ele>878.3</ele>
        <time>2015-01-08T12:40:08Z</time>
      </trkpt>
      <trkpt lat="47.84203" lon="7.11446">
        <ele>879.74</ele>
        <time>2015-01-08T12:40:15Z</time>
      </trkpt>
      <trkpt lat="47.84205" lon="7.11445">
        <ele>880.22</ele>
        <time>2015-01-08T12:40:22Z</time>
      </trkpt>
      <trkpt lat="47.84206" lon="7.11447">
        <ele>881.19</ele>
        <time>2015-01-08T12:40:33Z</time>
      </trkpt>
      <trkpt lat="47.84209" lon="7.11452">
        <ele>882.15</ele>
        <time>2015-01-08T12:40:41Z</time>
      </trkpt>
      <trkpt lat="47.84212" lon="7.11453">
        <ele>883.11</ele>
        <time>2015-01-08T12:40:48Z</time>
      </trkpt>
      <trkpt lat="47.84213" lon="7.11453">
        <ele>884.07</ele>
        <time>2015-01-08T12:40:54Z</time>
      </trkpt>
      <trkpt lat="47.84215" lon="7.11452">
        <ele>885.03</ele>
        <time>2015-01-08T12:41:01Z</time>
      </trkpt>
      <trkpt lat="47.84216" lon="7.11454">
        <ele>885.51</ele>
        <time>2015-01-08T12:41:08Z</time>
      </trkpt>
      <trkpt lat="47.84218" lon="7.11455">
        <ele>886.95</ele>
        <time>2015-01-08T12:41:14Z</time>
      </trkpt>
      <trkpt lat="47.84219" lon="7.11454">
        <ele>888.4</ele>
        <time>2015-01-08T12:41:20Z</time>
      </trkpt>
      <trkpt lat="47.84222" lon="7.11455">
        <ele>889.84</ele>
        <time>2015-01-08T12:41:26Z</time>
      </trkpt>
      <trkpt lat="47.84224" lon="7.11456">
        <ele>891.28</ele>
        <time>2015-01-08T12:41:32Z</time>
      </trkpt>
      <trkpt lat="47.84227" lon="7.11454">
        <ele>891.76</ele>
        <time>2015-01-08T12:41:39Z</time>
      </trkpt>
      <trkpt lat="47.84232" lon="7.11451">
        <ele>892.24</ele>
        <time>2015-01-08T12:41:48Z</time>
      </trkpt>
      <trkpt lat="47.84235" lon="7.11446">
        <ele>893.2</ele>
        <time>2015-01-08T12:41:56Z</time>
      </trkpt>
      <trkpt lat="47.84235" lon="7.11448">
        <ele>894.16</ele>
        <time>2015-01-08T12:42:08Z</time>
      </trkpt>
      <trkpt lat="47.84241" lon="7.11452">
        <ele>894.16</ele>
        <time>2015-01-08T12:42:18Z</time>
      </trkpt>
      <trkpt lat="47.84242" lon="7.11456">
        <ele>895.12</ele>
        <time>2015-01-08T12:42:29Z</time>
      </trkpt>
      <trkpt lat="47.84243" lon="7.11457">
        <ele>895.61</ele>
        <time>2015-01-08T12:42:37Z</time>
      </trkpt>
      <trkpt lat="47.84246" lon="7.11458">
        <ele>897.05</ele>
        <time>2015-01-08T12:42:44Z</time>
      </trkpt>
      <trkpt lat="47.84249" lon="7.11454">
        <ele>898.49</ele>
        <time>2015-01-08T12:42:53Z</time>
      </trkpt>
      <trkpt lat="47.8425" lon="7.11452">
        <ele>899.93</ele>
        <time>2015-01-08T12:43:00Z</time>
      </trkpt>
      <trkpt lat="47.84252" lon="7.11453">
        <ele>900.89</ele>
        <time>2015-01-08T12:43:07Z</time>
      </trkpt>
      <trkpt lat="47.84256" lon="7.11451">
        <ele>902.33</ele>
        <time>2015-01-08T12:43:15Z</time>
      </trkpt>
      <trkpt lat="47.84258" lon="7.11451">
        <ele>902.82</ele>
        <time>2015-01-08T12:43:25Z</time>
      </trkpt>
      <trkpt lat="47.84263" lon="7.11453">
        <ele>902.82</ele>
        <time>2015-01-08T12:43:33Z</time>
      </trkpt>
      <trkpt lat="47.84265" lon="7.11455">
        <ele>903.3</ele>
        <time>2015-01-08T12:43:40Z</time>
      </trkpt>
      <trkpt lat="47.84264" lon="7.11454">
        <ele>904.26</ele>
        <time>2015-01-08T12:43:54Z</time>
      </trkpt>
      <trkpt lat="47.84264" lon="7.11452">
        <ele>903.3</ele>
        <time>2015-01-08T12:44:03Z</time>
      </trkpt>
      <trkpt lat="47.84265" lon="7.1145">
        <ele>903.3</ele>
        <time>2015-01-08T12:44:16Z</time>
      </trkpt>
      <trkpt lat="47.84269" lon="7.11447">
        <ele>901.37</ele>
        <time>2015-01-08T12:44:24Z</time>
      </trkpt>
      <trkpt lat="47.84277" lon="7.11443">
        <ele>899.45</ele>
        <time>2015-01-08T12:44:34Z</time>
      </trkpt>
      <trkpt lat="47.84282" lon="7.11439">
        <ele>899.45</ele>
        <time>2015-01-08T12:44:43Z</time>
      </trkpt>
      <trkpt lat="47.84283" lon="7.11437">
        <ele>899.45</ele>
        <time>2015-01-08T12:44:52Z</time>
      </trkpt>
      <trkpt lat="47.84286" lon="7.11437">
        <ele>899.93</ele>
        <time>2015-01-08T12:45:01Z</time>
      </trkpt>
      <trkpt lat="47.8429" lon="7.11439">
        <ele>899.93</ele>
        <time>2015-01-08T12:45:11Z</time>
      </trkpt>
      <trkpt lat="47.84293" lon="7.11438">
        <ele>899.45</ele>
        <time>2015-01-08T12:45:19Z</time>
      </trkpt>
      <trkpt lat="47.84297" lon="7.11438">
        <ele>899.93</ele>
        <time>2015-01-08T12:45:28Z</time>
      </trkpt>
      <trkpt lat="47.84302" lon="7.1144">
        <ele>898.97</ele>
        <time>2015-01-08T12:45:36Z</time>
      </trkpt>
      <trkpt lat="47.84309" lon="7.11437">
        <ele>900.89</ele>
        <time>2015-01-08T12:45:48Z</time>
      </trkpt>
      <trkpt lat="47.84313" lon="7.11432">
        <ele>902.33</ele>
        <time>2015-01-08T12:45:57Z</time>
      </trkpt>
      <trkpt lat="47.84319" lon="7.11433">
        <ele>901.85</ele>
        <time>2015-01-08T12:46:09Z</time>
      </trkpt>
      <trkpt lat="47.84322" lon="7.11439">
        <ele>901.85</ele>
        <time>2015-01-08T12:46:18Z</time>
      </trkpt>
      <trkpt lat="47.84328" lon="7.11447">
        <ele>903.3</ele>
        <time>2015-01-08T12:46:30Z</time>
      </trkpt>
      <trkpt lat="47.8433" lon="7.11453">
        <ele>904.26</ele>
        <time>2015-01-08T12:46:39Z</time>
      </trkpt>
      <trkpt lat="47.84329" lon="7.11455">
        <ele>904.74</ele>
        <time>2015-01-08T12:46:47Z</time>
      </trkpt>
      <trkpt lat="47.84328" lon="7.11456">
        <ele>907.14</ele>
        <time>2015-01-08T12:46:56Z</time>
      </trkpt>
      <trkpt lat="47.84327" lon="7.11463">
        <ele>904.74</ele>
        <time>2015-01-08T12:47:06Z</time>
      </trkpt>
      <trkpt lat="47.84326" lon="7.11474">
        <ele>903.78</ele>
        <time>2015-01-08T12:47:15Z</time>
      </trkpt>
      <trkpt lat="47.84328" lon="7.11483">
        <ele>904.26</ele>
        <time>2015-01-08T12:47:25Z</time>
      </trkpt>
      <trkpt lat="47.8433" lon="7.11486">
        <ele>904.74</ele>
        <time>2015-01-08T12:47:33Z</time>
      </trkpt>
      <trkpt lat="47.84329" lon="7.11485">
        <ele>906.66</ele>
        <time>2015-01-08T12:47:44Z</time>
      </trkpt>
      <trkpt lat="47.84333" lon="7.11493">
        <ele>907.62</ele>
        <time>2015-01-08T12:47:53Z</time>
      </trkpt>
      <trkpt lat="47.84337" lon="7.11501">
        <ele>906.66</ele>
        <time>2015-01-08T12:48:03Z</time>
      </trkpt>
      <trkpt lat="47.8434" lon="7.11509">
        <ele>906.18</ele>
        <time>2015-01-08T12:48:12Z</time>
      </trkpt>
      <trkpt lat="47.84344" lon="7.11516">
        <ele>905.22</ele>
        <time>2015-01-08T12:48:20Z</time>
      </trkpt>
      <trkpt lat="47.84346" lon="7.1152">
        <ele>905.22</ele>
        <time>2015-01-08T12:48:29Z</time>
      </trkpt>
      <trkpt lat="47.84348" lon="7.11524">
        <ele>905.22</ele>
        <time>2015-01-08T12:48:37Z</time>
      </trkpt>
      <trkpt lat="47.8435" lon="7.11533">
        <ele>905.22</ele>
        <time>2015-01-08T12:48:45Z</time>
      </trkpt>
      <trkpt lat="47.84352" lon="7.1154">
        <ele>906.66</ele>
        <time>2015-01-08T12:48:53Z</time>
      </trkpt>
      <trkpt lat="47.84354" lon="7.11544">
        <ele>907.62</ele>
        <time>2015-01-08T12:49:02Z</time>
      </trkpt>
      <trkpt lat="47.84357" lon="7.11547">
        <ele>909.06</ele>
        <time>2015-01-08T12:49:11Z</time>
      </trkpt>
      <trkpt lat="47.84361" lon="7.11555">
        <ele>910.03</ele>
        <time>2015-01-08T12:49:20Z</time>
      </trkpt>
      <trkpt lat="47.84365" lon="7.1156">
        <ele>909.54</ele>
        <time>2015-01-08T12:49:28Z</time>
      </trkpt>
      <trkpt lat="47.84368" lon="7.11565">
        <ele>910.03</ele>
        <time>2015-01-08T12:49:37Z</time>
      </trkpt>
      <trkpt lat="47.84371" lon="7.11569">
        <ele>909.06</ele>
        <time>2015-01-08T12:49:46Z</time>
      </trkpt>
      <trkpt lat="47.84374" lon="7.11573">
        <ele>910.51</ele>
        <time>2015-01-08T12:49:55Z</time>
      </trkpt>
      <trkpt lat="47.84376" lon="7.11576">
        <ele>911.47</ele>
        <time>2015-01-08T12:50:02Z</time>
      </trkpt>
      <trkpt lat="47.84379" lon="7.11579">
        <ele>913.39</ele>
        <time>2015-01-08T12:50:12Z</time>
      </trkpt>
      <trkpt lat="47.8438" lon="7.11583">
        <ele>914.83</ele>
        <time>2015-01-08T12:50:22Z</time>
      </trkpt>
      <trkpt lat="47.84382" lon="7.11585">
        <ele>913.87</ele>
        <time>2015-01-08T12:50:30Z</time>
      </trkpt>
      <trkpt lat="47.84382" lon="7.11588">
        <ele>912.91</ele>
        <time>2015-01-08T12:50:39Z</time>
      </trkpt>
      <trkpt lat="47.84384" lon="7.11586">
        <ele>912.91</ele>
        <time>2015-01-08T12:50:48Z</time>
      </trkpt>
      <trkpt lat="47.84387" lon="7.11585">
        <ele>913.39</ele>
        <time>2015-01-08T12:50:56Z</time>
      </trkpt>
      <trkpt lat="47.84388" lon="7.11585">
        <ele>911.95</ele>
        <time>2015-01-08T12:51:05Z</time>
      </trkpt>
      <trkpt lat="47.84389" lon="7.11586">
        <ele>910.51</ele>
        <time>2015-01-08T12:51:12Z</time>
      </trkpt>
      <trkpt lat="47.84391" lon="7.11594">
        <ele>908.58</ele>
        <time>2015-01-08T12:51:20Z</time>
      </trkpt>
      <trkpt lat="47.84396" lon="7.11598">
        <ele>908.1</ele>
        <time>2015-01-08T12:51:29Z</time>
      </trkpt>
      <trkpt lat="47.84401" lon="7.11601">
        <ele>908.58</ele>
        <time>2015-01-08T12:51:37Z</time>
      </trkpt>
      <trkpt lat="47.84404" lon="7.11606">
        <ele>908.58</ele>
        <time>2015-01-08T12:51:46Z</time>
      </trkpt>
      <trkpt lat="47.84406" lon="7.11607">
        <ele>909.06</ele>
        <time>2015-01-08T12:51:55Z</time>
      </trkpt>
      <trkpt lat="47.84407" lon="7.11607">
        <ele>909.06</ele>
        <time>2015-01-08T12:52:02Z</time>
      </trkpt>
      <trkpt lat="47.84409" lon="7.11611">
        <ele>908.58</ele>
        <time>2015-01-08T12:52:11Z</time>
      </trkpt>
      <trkpt lat="47.84411" lon="7.11611">
        <ele>908.58</ele>
        <time>2015-01-08T12:52:20Z</time>
      </trkpt>
      <trkpt lat="47.84414" lon="7.11612">
        <ele>908.58</ele>
        <time>2015-01-08T12:52:28Z</time>
      </trkpt>
      <trkpt lat="47.84417" lon="7.11616">
        <ele>906.66</ele>
        <time>2015-01-08T12:52:36Z</time>
      </trkpt>
      <trkpt lat="47.84419" lon="7.11617">
        <ele>904.26</ele>
        <time>2015-01-08T12:52:45Z</time>
      </trkpt>
      <trkpt lat="47.8442" lon="7.11621">
        <ele>902.82</ele>
        <time>2015-01-08T12:52:53Z</time>
      </trkpt>
      <trkpt lat="47.84424" lon="7.11622">
        <ele>902.33</ele>
        <time>2015-01-08T12:53:01Z</time>
      </trkpt>
      <trkpt lat="47.84426" lon="7.11619">
        <ele>901.85</ele>
        <time>2015-01-08T12:53:13Z</time>
      </trkpt>
      <trkpt lat="47.84428" lon="7.11624">
        <ele>903.78</ele>
        <time>2015-01-08T12:53:24Z</time>
      </trkpt>
      <trkpt lat="47.84431" lon="7.11626">
        <ele>904.26</ele>
        <time>2015-01-08T12:53:35Z</time>
      </trkpt>
      <trkpt lat="47.84431" lon="7.11632">
        <ele>904.26</ele>
        <time>2015-01-08T12:53:45Z</time>
      </trkpt>
      <trkpt lat="47.84431" lon="7.11634">
        <ele>905.22</ele>
        <time>2015-01-08T12:53:54Z</time>
      </trkpt>
      <trkpt lat="47.84433" lon="7.11633">
        <ele>905.7</ele>
        <time>2015-01-08T12:54:04Z</time>
      </trkpt>
      <trkpt lat="47.84433" lon="7.11627">
        <ele>904.74</ele>
        <time>2015-01-08T12:54:12Z</time>
      </trkpt>
      <trkpt lat="47.84436" lon="7.11622">
        <ele>901.85</ele>
        <time>2015-01-08T12:54:21Z</time>
      </trkpt>
      <trkpt lat="47.8444" lon="7.11622">
        <ele>898.49</ele>
        <time>2015-01-08T12:54:31Z</time>
      </trkpt>
      <trkpt lat="47.84444" lon="7.11627">
        <ele>897.05</ele>
        <time>2015-01-08T12:54:39Z</time>
      </trkpt>
      <trkpt lat="47.84448" lon="7.11631">
        <ele>895.61</ele>
        <time>2015-01-08T12:54:48Z</time>
      </trkpt>
      <trkpt lat="47.84451" lon="7.11633">
        <ele>895.12</ele>
        <time>2015-01-08T12:54:55Z</time>
      </trkpt>
      <trkpt lat="47.84455" lon="7.11636">
        <ele>894.64</ele>
        <time>2015-01-08T12:55:03Z</time>
      </trkpt>
      <trkpt lat="47.84459" lon="7.11638">
        <ele>894.16</ele>
        <time>2015-01-08T12:55:12Z</time>
      </trkpt>
      <trkpt lat="47.84461" lon="7.11641">
        <ele>893.68</ele>
        <time>2015-01-08T12:55:22Z</time>
      </trkpt>
      <trkpt lat="47.84461" lon="7.11639">
        <ele>893.68</ele>
        <time>2015-01-08T12:55:33Z</time>
      </trkpt>
      <trkpt lat="47.84462" lon="7.1164">
        <ele>892.24</ele>
        <time>2015-01-08T12:55:41Z</time>
      </trkpt>
      <trkpt lat="47.84467" lon="7.11642">
        <ele>889.84</ele>
        <time>2015-01-08T12:55:52Z</time>
      </trkpt>
      <trkpt lat="47.84473" lon="7.11641">
        <ele>889.84</ele>
        <time>2015-01-08T12:56:00Z</time>
      </trkpt>
      <trkpt lat="47.84477" lon="7.11644">
        <ele>889.36</ele>
        <time>2015-01-08T12:56:08Z</time>
      </trkpt>
      <trkpt lat="47.84481" lon="7.11649">
        <ele>888.88</ele>
        <time>2015-01-08T12:56:17Z</time>
      </trkpt>
      <trkpt lat="47.84485" lon="7.11652">
        <ele>888.4</ele>
        <time>2015-01-08T12:56:25Z</time>
      </trkpt>
      <trkpt lat="47.84485" lon="7.11652">
        <ele>888.88</ele>
        <time>2015-01-08T12:56:32Z</time>
      </trkpt>
      <trkpt lat="47.84488" lon="7.11653">
        <ele>888.88</ele>
        <time>2015-01-08T12:56:41Z</time>
      </trkpt>
      <trkpt lat="47.84495" lon="7.11656">
        <ele>887.91</ele>
        <time>2015-01-08T12:56:48Z</time>
      </trkpt>
      <trkpt lat="47.845" lon="7.11658">
        <ele>886.95</ele>
        <time>2015-01-08T12:56:57Z</time>
      </trkpt>
      <trkpt lat="47.84504" lon="7.1166">
        <ele>886.47</ele>
        <time>2015-01-08T12:57:04Z</time>
      </trkpt>
      <trkpt lat="47.84509" lon="7.11662">
        <ele>886.47</ele>
        <time>2015-01-08T12:57:12Z</time>
      </trkpt>
      <trkpt lat="47.84515" lon="7.11663">
        <ele>886.47</ele>
        <time>2015-01-08T12:57:21Z</time>
      </trkpt>
      <trkpt lat="47.84519" lon="7.11664">
        <ele>885.03</ele>
        <time>2015-01-08T12:57:29Z</time>
      </trkpt>
      <trkpt lat="47.84524" lon="7.11664">
        <ele>885.03</ele>
        <time>2015-01-08T12:57:36Z</time>
      </trkpt>
      <trkpt lat="47.84529" lon="7.11665">
        <ele>884.07</ele>
        <time>2015-01-08T12:57:45Z</time>
      </trkpt>
      <trkpt lat="47.84534" lon="7.11665">
        <ele>885.03</ele>
        <time>2015-01-08T12:57:54Z</time>
      </trkpt>
      <trkpt lat="47.8454" lon="7.1167">
        <ele>884.55</ele>
        <time>2015-01-08T12:58:01Z</time>
      </trkpt>
      <trkpt lat="47.84545" lon="7.11675">
        <ele>883.11</ele>
        <time>2015-01-08T12:58:08Z</time>
      </trkpt>
      <trkpt lat="47.84553" lon="7.11683">
        <ele>883.11</ele>
        <time>2015-01-08T12:58:19Z</time>
      </trkpt>
      <trkpt lat="47.84557" lon="7.11686">
        <ele>881.67</ele>
        <time>2015-01-08T12:58:27Z</time>
      </trkpt>
      <trkpt lat="47.84558" lon="7.11683">
        <ele>881.19</ele>
        <time>2015-01-08T12:58:35Z</time>
      </trkpt>
      <trkpt lat="47.84558" lon="7.1168">
        <ele>882.15</ele>
        <time>2015-01-08T12:58:46Z</time>
      </trkpt>
      <trkpt lat="47.84555" lon="7.11675">
        <ele>881.19</ele>
        <time>2015-01-08T12:58:57Z</time>
      </trkpt>
      <trkpt lat="47.84554" lon="7.11667">
        <ele>879.74</ele>
        <time>2015-01-08T12:59:05Z</time>
      </trkpt>
      <trkpt lat="47.84557" lon="7.11661">
        <ele>879.26</ele>
        <time>2015-01-08T12:59:13Z</time>
      </trkpt>
      <trkpt lat="47.84559" lon="7.11656">
        <ele>878.3</ele>
        <time>2015-01-08T12:59:22Z</time>
      </trkpt>
      <trkpt lat="47.84562" lon="7.11657">
        <ele>877.34</ele>
        <time>2015-01-08T12:59:29Z</time>
      </trkpt>
      <trkpt lat="47.84565" lon="7.11662">
        <ele>877.82</ele>
        <time>2015-01-08T12:59:40Z</time>
      </trkpt>
      <trkpt lat="47.84568" lon="7.11666">
        <ele>877.82</ele>
        <time>2015-01-08T12:59:46Z</time>
      </trkpt>
      <trkpt lat="47.84573" lon="7.11666">
        <ele>876.86</ele>
        <time>2015-01-08T12:59:54Z</time>
      </trkpt>
      <trkpt lat="47.84578" lon="7.1166">
        <ele>876.86</ele>
        <time>2015-01-08T13:00:03Z</time>
      </trkpt>
      <trkpt lat="47.8458" lon="7.11656">
        <ele>877.34</ele>
        <time>2015-01-08T13:00:14Z</time>
      </trkpt>
      <trkpt lat="47.84581" lon="7.11655">
        <ele>877.82</ele>
        <time>2015-01-08T13:00:30Z</time>
      </trkpt>
      <trkpt lat="47.8458" lon="7.11657">
        <ele>877.82</ele>
        <time>2015-01-08T13:00:48Z</time>
      </trkpt>
      <trkpt lat="47.84582" lon="7.11663">
        <ele>879.74</ele>
        <time>2015-01-08T13:00:57Z</time>
      </trkpt>
      <trkpt lat="47.84586" lon="7.1167">
        <ele>879.26</ele>
        <time>2015-01-08T13:01:06Z</time>
      </trkpt>
      <trkpt lat="47.84592" lon="7.11675">
        <ele>878.78</ele>
        <time>2015-01-08T13:01:13Z</time>
      </trkpt>
      <trkpt lat="47.84597" lon="7.11674">
        <ele>878.3</ele>
        <time>2015-01-08T13:01:21Z</time>
      </trkpt>
      <trkpt lat="47.84603" lon="7.11674">
        <ele>878.3</ele>
        <time>2015-01-08T13:01:29Z</time>
      </trkpt>
      <trkpt lat="47.84608" lon="7.11673">
        <ele>878.78</ele>
        <time>2015-01-08T13:01:38Z</time>
      </trkpt>
      <trkpt lat="47.84615" lon="7.11672">
        <ele>880.22</ele>
        <time>2015-01-08T13:01:48Z</time>
      </trkpt>
      <trkpt lat="47.84621" lon="7.11671">
        <ele>880.71</ele>
        <time>2015-01-08T13:01:56Z</time>
      </trkpt>
      <trkpt lat="47.84625" lon="7.11669">
        <ele>881.19</ele>
        <time>2015-01-08T13:02:06Z</time>
      </trkpt>
      <trkpt lat="47.84628" lon="7.11667">
        <ele>882.15</ele>
        <time>2015-01-08T13:02:16Z</time>
      </trkpt>
      <trkpt lat="47.84629" lon="7.11664">
        <ele>883.11</ele>
        <time>2015-01-08T13:02:27Z</time>
      </trkpt>
      <trkpt lat="47.84632" lon="7.11667">
        <ele>885.03</ele>
        <time>2015-01-08T13:02:36Z</time>
      </trkpt>
      <trkpt lat="47.84637" lon="7.11673">
        <ele>885.99</ele>
        <time>2015-01-08T13:02:46Z</time>
      </trkpt>
      <trkpt lat="47.84641" lon="7.11676">
        <ele>885.03</ele>
        <time>2015-01-08T13:02:54Z</time>
      </trkpt>
      <trkpt lat="47.84646" lon="7.1168">
        <ele>885.51</ele>
        <time>2015-01-08T13:03:02Z</time>
      </trkpt>
      <trkpt lat="47.84649" lon="7.11685">
        <ele>884.55</ele>
        <time>2015-01-08T13:03:10Z</time>
      </trkpt>
      <trkpt lat="47.84653" lon="7.11688">
        <ele>885.03</ele>
        <time>2015-01-08T13:03:17Z</time>
      </trkpt>
      <trkpt lat="47.8466" lon="7.11689">
        <ele>885.99</ele>
        <time>2015-01-08T13:03:26Z</time>
      </trkpt>
      <trkpt lat="47.84663" lon="7.11688">
        <ele>887.43</ele>
        <time>2015-01-08T13:03:34Z</time>
      </trkpt>
      <trkpt lat="47.84668" lon="7.11687">
        <ele>888.4</ele>
        <time>2015-01-08T13:03:43Z</time>
      </trkpt>
      <trkpt lat="47.84673" lon="7.11687">
        <ele>888.88</ele>
        <time>2015-01-08T13:03:52Z</time>
      </trkpt>
      <trkpt lat="47.84676" lon="7.11687">
        <ele>890.32</ele>
        <time>2015-01-08T13:04:01Z</time>
      </trkpt>
      <trkpt lat="47.84679" lon="7.11685">
        <ele>891.28</ele>
        <time>2015-01-08T13:04:11Z</time>
      </trkpt>
      <trkpt lat="47.84683" lon="7.11686">
        <ele>891.76</ele>
        <time>2015-01-08T13:04:19Z</time>
      </trkpt>
      <trkpt lat="47.8469" lon="7.11686">
        <ele>891.76</ele>
        <time>2015-01-08T13:04:27Z</time>
      </trkpt>
      <trkpt lat="47.84694" lon="7.11684">
        <ele>891.76</ele>
        <time>2015-01-08T13:04:35Z</time>
      </trkpt>
      <trkpt lat="47.84698" lon="7.11683">
        <ele>890.8</ele>
        <time>2015-01-08T13:04:44Z</time>
      </trkpt>
      <trkpt lat="47.847" lon="7.11681">
        <ele>889.84</ele>
        <time>2015-01-08T13:04:51Z</time>
      </trkpt>
      <trkpt lat="47.84704" lon="7.1168">
        <ele>889.84</ele>
        <time>2015-01-08T13:05:01Z</time>
      </trkpt>
      <trkpt lat="47.84707" lon="7.11684">
        <ele>890.32</ele>
        <time>2015-01-08T13:05:08Z</time>
      </trkpt>
      <trkpt lat="47.84709" lon="7.11685">
        <ele>891.76</ele>
        <time>2015-01-08T13:05:17Z</time>
      </trkpt>
      <trkpt lat="47.84708" lon="7.11682">
        <ele>893.2</ele>
        <time>2015-01-08T13:05:26Z</time>
      </trkpt>
      <trkpt lat="47.8471" lon="7.11681">
        <ele>893.2</ele>
        <time>2015-01-08T13:05:33Z</time>
      </trkpt>
      <trkpt lat="47.84713" lon="7.11681">
        <ele>893.68</ele>
        <time>2015-01-08T13:05:42Z</time>
      </trkpt>
      <trkpt lat="47.84719" lon="7.11681">
        <ele>893.68</ele>
        <time>2015-01-08T13:05:52Z</time>
      </trkpt>
      <trkpt lat="47.84722" lon="7.11681">
        <ele>894.16</ele>
        <time>2015-01-08T13:06:01Z</time>
      </trkpt>
      <trkpt lat="47.84726" lon="7.11681">
        <ele>895.61</ele>
        <time>2015-01-08T13:06:08Z</time>
      </trkpt>
      <trkpt lat="47.84729" lon="7.11679">
        <ele>897.05</ele>
        <time>2015-01-08T13:06:17Z</time>
      </trkpt>
      <trkpt lat="47.84732" lon="7.11676">
        <ele>898.97</ele>
        <time>2015-01-08T13:06:26Z</time>
      </trkpt>
      <trkpt lat="47.84736" lon="7.11675">
        <ele>900.41</ele>
        <time>2015-01-08T13:06:36Z</time>
      </trkpt>
      <trkpt lat="47.84739" lon="7.11678">
        <ele>903.3</ele>
        <time>2015-01-08T13:06:46Z</time>
      </trkpt>
      <trkpt lat="47.84744" lon="7.11677">
        <ele>906.18</ele>
        <time>2015-01-08T13:06:56Z</time>
      </trkpt>
      <trkpt lat="47.84749" lon="7.11676">
        <ele>908.58</ele>
        <time>2015-01-08T13:07:05Z</time>
      </trkpt>
      <trkpt lat="47.84753" lon="7.11677">
        <ele>910.51</ele>
        <time>2015-01-08T13:07:13Z</time>
      </trkpt>
      <trkpt lat="47.84755" lon="7.11677">
        <ele>911.47</ele>
        <time>2015-01-08T13:07:22Z</time>
      </trkpt>
      <trkpt lat="47.84758" lon="7.11676">
        <ele>911.47</ele>
        <time>2015-01-08T13:07:31Z</time>
      </trkpt>
      <trkpt lat="47.8476" lon="7.11675">
        <ele>911.95</ele>
        <time>2015-01-08T13:07:39Z</time>
      </trkpt>
      <trkpt lat="47.84765" lon="7.11675">
        <ele>911.95</ele>
        <time>2015-01-08T13:07:48Z</time>
      </trkpt>
      <trkpt lat="47.84769" lon="7.11674">
        <ele>912.91</ele>
        <time>2015-01-08T13:07:59Z</time>
      </trkpt>
      <trkpt lat="47.84772" lon="7.11672">
        <ele>913.87</ele>
        <time>2015-01-08T13:08:09Z</time>
      </trkpt>
      <trkpt lat="47.84776" lon="7.11671">
        <ele>915.31</ele>
        <time>2015-01-08T13:08:18Z</time>
      </trkpt>
      <trkpt lat="47.84779" lon="7.1167">
        <ele>916.27</ele>
        <time>2015-01-08T13:08:28Z</time>
      </trkpt>
      <trkpt lat="47.84784" lon="7.11671">
        <ele>917.24</ele>
        <time>2015-01-08T13:08:37Z</time>
      </trkpt>
      <trkpt lat="47.84788" lon="7.11669">
        <ele>916.75</ele>
        <time>2015-01-08T13:08:46Z</time>
      </trkpt>
      <trkpt lat="47.84791" lon="7.11664">
        <ele>918.2</ele>
        <time>2015-01-08T13:08:54Z</time>
      </trkpt>
      <trkpt lat="47.84795" lon="7.11661">
        <ele>918.2</ele>
        <time>2015-01-08T13:09:04Z</time>
      </trkpt>
      <trkpt lat="47.84799" lon="7.1166">
        <ele>917.72</ele>
        <time>2015-01-08T13:09:14Z</time>
      </trkpt>
      <trkpt lat="47.84801" lon="7.11658">
        <ele>918.68</ele>
        <time>2015-01-08T13:09:21Z</time>
      </trkpt>
      <trkpt lat="47.84805" lon="7.11655">
        <ele>918.68</ele>
        <time>2015-01-08T13:09:31Z</time>
      </trkpt>
      <trkpt lat="47.84809" lon="7.11654">
        <ele>918.2</ele>
        <time>2015-01-08T13:09:41Z</time>
      </trkpt>
      <trkpt lat="47.84812" lon="7.11658">
        <ele>920.12</ele>
        <time>2015-01-08T13:09:51Z</time>
      </trkpt>
      <trkpt lat="47.84814" lon="7.11664">
        <ele>922.04</ele>
        <time>2015-01-08T13:10:01Z</time>
      </trkpt>
      <trkpt lat="47.84815" lon="7.11667">
        <ele>922.52</ele>
        <time>2015-01-08T13:10:10Z</time>
      </trkpt>
      <trkpt lat="47.84817" lon="7.11666">
        <ele>922.04</ele>
        <time>2015-01-08T13:10:18Z</time>
      </trkpt>
      <trkpt lat="47.84821" lon="7.11664">
        <ele>921.08</ele>
        <time>2015-01-08T13:10:26Z</time>
      </trkpt>
      <trkpt lat="47.84824" lon="7.11664">
        <ele>921.08</ele>
        <time>2015-01-08T13:10:35Z</time>
      </trkpt>
      <trkpt lat="47.84827" lon="7.11663">
        <ele>921.56</ele>
        <time>2015-01-08T13:10:43Z</time>
      </trkpt>
      <trkpt lat="47.84827" lon="7.11664">
        <ele>921.08</ele>
        <time>2015-01-08T13:10:52Z</time>
      </trkpt>
      <trkpt lat="47.84828" lon="7.11662">
        <ele>919.64</ele>
        <time>2015-01-08T13:11:00Z</time>
      </trkpt>
      <trkpt lat="47.84831" lon="7.11662">
        <ele>918.68</ele>
        <time>2015-01-08T13:11:07Z</time>
      </trkpt>
      <trkpt lat="47.84834" lon="7.11666">
        <ele>917.72</ele>
        <time>2015-01-08T13:11:14Z</time>
      </trkpt>
      <trkpt lat="47.84836" lon="7.11673">
        <ele>918.2</ele>
        <time>2015-01-08T13:11:23Z</time>
      </trkpt>
      <trkpt lat="47.84838" lon="7.11677">
        <ele>918.2</ele>
        <time>2015-01-08T13:11:32Z</time>
      </trkpt>
      <trkpt lat="47.8484" lon="7.11685">
        <ele>916.27</ele>
        <time>2015-01-08T13:11:40Z</time>
      </trkpt>
      <trkpt lat="47.84842" lon="7.1169">
        <ele>913.39</ele>
        <time>2015-01-08T13:11:49Z</time>
      </trkpt>
      <trkpt lat="47.84841" lon="7.11697">
        <ele>911.95</ele>
        <time>2015-01-08T13:11:57Z</time>
      </trkpt>
      <trkpt lat="47.8484" lon="7.11695">
        <ele>911.95</ele>
        <time>2015-01-08T13:12:05Z</time>
      </trkpt>
      <trkpt lat="47.84839" lon="7.11698">
        <ele>911.95</ele>
        <time>2015-01-08T13:12:13Z</time>
      </trkpt>
      <trkpt lat="47.8484" lon="7.11703">
        <ele>911.47</ele>
        <time>2015-01-08T13:12:20Z</time>
      </trkpt>
      <trkpt lat="47.84843" lon="7.11707">
        <ele>910.99</ele>
        <time>2015-01-08T13:12:27Z</time>
      </trkpt>
      <trkpt lat="47.84846" lon="7.11713">
        <ele>910.03</ele>
        <time>2015-01-08T13:12:35Z</time>
      </trkpt>
      <trkpt lat="47.84847" lon="7.11719">
        <ele>908.1</ele>
        <time>2015-01-08T13:12:44Z</time>
      </trkpt>
      <trkpt lat="47.8485" lon="7.11723">
        <ele>908.1</ele>
        <time>2015-01-08T13:12:51Z</time>
      </trkpt>
      <trkpt lat="47.84852" lon="7.11728">
        <ele>908.1</ele>
        <time>2015-01-08T13:13:00Z</time>
      </trkpt>
      <trkpt lat="47.84856" lon="7.1173">
        <ele>907.14</ele>
        <time>2015-01-08T13:13:08Z</time>
      </trkpt>
      <trkpt lat="47.84859" lon="7.11729">
        <ele>908.58</ele>
        <time>2015-01-08T13:13:18Z</time>
      </trkpt>
      <trkpt lat="47.84862" lon="7.11736">
        <ele>908.1</ele>
        <time>2015-01-08T13:13:26Z</time>
      </trkpt>
      <trkpt lat="47.84866" lon="7.11747">
        <ele>908.1</ele>
        <time>2015-01-08T13:13:35Z</time>
      </trkpt>
      <trkpt lat="47.84867" lon="7.11755">
        <ele>907.62</ele>
        <time>2015-01-08T13:13:42Z</time>
      </trkpt>
      <trkpt lat="47.84864" lon="7.11757">
        <ele>904.26</ele>
        <time>2015-01-08T13:13:55Z</time>
      </trkpt>
      <trkpt lat="47.8486" lon="7.11756">
        <ele>906.18</ele>
        <time>2015-01-08T13:14:07Z</time>
      </trkpt>
      <trkpt lat="47.84858" lon="7.11758">
        <ele>909.06</ele>
        <time>2015-01-08T13:14:20Z</time>
      </trkpt>
      <trkpt lat="47.84859" lon="7.11764">
        <ele>910.51</ele>
        <time>2015-01-08T13:14:32Z</time>
      </trkpt>
      <trkpt lat="47.84862" lon="7.11766">
        <ele>911.95</ele>
        <time>2015-01-08T13:14:40Z</time>
      </trkpt>
      <trkpt lat="47.84864" lon="7.11767">
        <ele>911.47</ele>
        <time>2015-01-08T13:14:50Z</time>
      </trkpt>
      <trkpt lat="47.84865" lon="7.11766">
        <ele>910.99</ele>
        <time>2015-01-08T13:14:57Z</time>
      </trkpt>
      <trkpt lat="47.84866" lon="7.11764">
        <ele>910.51</ele>
        <time>2015-01-08T13:15:08Z</time>
      </trkpt>
      <trkpt lat="47.84865" lon="7.11758">
        <ele>910.99</ele>
        <time>2015-01-08T13:15:25Z</time>
      </trkpt>
      <trkpt lat="47.84865" lon="7.1175">
        <ele>911.47</ele>
        <time>2015-01-08T13:15:39Z</time>
      </trkpt>
      <trkpt lat="47.84863" lon="7.11747">
        <ele>911.95</ele>
        <time>2015-01-08T13:15:50Z</time>
      </trkpt>
      <trkpt lat="47.84866" lon="7.11752">
        <ele>911.95</ele>
        <time>2015-01-08T13:16:09Z</time>
      </trkpt>
      <trkpt lat="47.84866" lon="7.11761">
        <ele>911.47</ele>
        <time>2015-01-08T13:16:18Z</time>
      </trkpt>
      <trkpt lat="47.84866" lon="7.11768">
        <ele>910.99</ele>
        <time>2015-01-08T13:16:27Z</time>
      </trkpt>
      <trkpt lat="47.84865" lon="7.11777">
        <ele>911.47</ele>
        <time>2015-01-08T13:16:39Z</time>
      </trkpt>
      <trkpt lat="47.84864" lon="7.11776">
        <ele>919.16</ele>
        <time>2015-01-08T13:16:50Z</time>
      </trkpt>
      <trkpt lat="47.84864" lon="7.11775">
        <ele>915.79</ele>
        <time>2015-01-08T13:20:34Z</time>
      </trkpt>
      <trkpt lat="47.84822" lon="7.11784">
        <ele>917.72</ele>
        <time>2015-01-08T13:20:49Z</time>
      </trkpt>
      <trkpt lat="47.84822" lon="7.11783">
        <ele>921.56</ele>
        <time>2015-01-08T13:21:02Z</time>
      </trkpt>
      <trkpt lat="47.84821" lon="7.11784">
        <ele>921.56</ele>
        <time>2015-01-08T13:21:10Z</time>
      </trkpt>
      <trkpt lat="47.8482" lon="7.11781">
        <ele>923.48</ele>
        <time>2015-01-08T13:21:24Z</time>
      </trkpt>
      <trkpt lat="47.8482" lon="7.11779">
        <ele>922.04</ele>
        <time>2015-01-08T13:21:36Z</time>
      </trkpt>
      <trkpt lat="47.84821" lon="7.11781">
        <ele>923.48</ele>
        <time>2015-01-08T13:21:42Z</time>
      </trkpt>
      <trkpt lat="47.84821" lon="7.11787">
        <ele>924.45</ele>
        <time>2015-01-08T13:21:50Z</time>
      </trkpt>
      <trkpt lat="47.84821" lon="7.11788">
        <ele>923</ele>
        <time>2015-01-08T13:21:58Z</time>
      </trkpt>
      <trkpt lat="47.84821" lon="7.11788">
        <ele>919.64</ele>
        <time>2015-01-08T13:22:07Z</time>
      </trkpt>
      <trkpt lat="47.84817" lon="7.11788">
        <ele>913.87</ele>
        <time>2015-01-08T13:22:16Z</time>
      </trkpt>
      <trkpt lat="47.84816" lon="7.1179">
        <ele>912.91</ele>
        <time>2015-01-08T13:22:23Z</time>
      </trkpt>
      <trkpt lat="47.84817" lon="7.11793">
        <ele>910.99</ele>
        <time>2015-01-08T13:22:28Z</time>
      </trkpt>
      <trkpt lat="47.84817" lon="7.11798">
        <ele>907.14</ele>
        <time>2015-01-08T13:22:34Z</time>
      </trkpt>
      <trkpt lat="47.84818" lon="7.118">
        <ele>907.14</ele>
        <time>2015-01-08T13:22:43Z</time>
      </trkpt>
      <trkpt lat="47.84818" lon="7.11803">
        <ele>906.66</ele>
        <time>2015-01-08T13:22:45Z</time>
      </trkpt>
      <trkpt lat="47.84815" lon="7.11804">
        <ele>904.74</ele>
        <time>2015-01-08T13:22:52Z</time>
      </trkpt>
      <trkpt lat="47.84814" lon="7.11804">
        <ele>904.74</ele>
        <time>2015-01-08T13:22:53Z</time>
      </trkpt>
      <trkpt lat="47.84809" lon="7.11801">
        <ele>902.33</ele>
        <time>2015-01-08T13:23:01Z</time>
      </trkpt>
      <trkpt lat="47.84807" lon="7.11804">
        <ele>900.41</ele>
        <time>2015-01-08T13:23:07Z</time>
      </trkpt>
      <trkpt lat="47.84808" lon="7.11807">
        <ele>898.97</ele>
        <time>2015-01-08T13:23:19Z</time>
      </trkpt>
      <trkpt lat="47.84807" lon="7.11812">
        <ele>898.01</ele>
        <time>2015-01-08T13:23:27Z</time>
      </trkpt>
      <trkpt lat="47.84804" lon="7.11815">
        <ele>896.57</ele>
        <time>2015-01-08T13:23:35Z</time>
      </trkpt>
      <trkpt lat="47.848" lon="7.11819">
        <ele>895.12</ele>
        <time>2015-01-08T13:23:42Z</time>
      </trkpt>
      <trkpt lat="47.84795" lon="7.1182">
        <ele>892.72</ele>
        <time>2015-01-08T13:23:51Z</time>
      </trkpt>
      <trkpt lat="47.84791" lon="7.11822">
        <ele>892.24</ele>
        <time>2015-01-08T13:23:58Z</time>
      </trkpt>
      <trkpt lat="47.84786" lon="7.11821">
        <ele>893.2</ele>
        <time>2015-01-08T13:24:06Z</time>
      </trkpt>
      <trkpt lat="47.8478" lon="7.1182">
        <ele>891.76</ele>
        <time>2015-01-08T13:24:14Z</time>
      </trkpt>
      <trkpt lat="47.84777" lon="7.11819">
        <ele>887.91</ele>
        <time>2015-01-08T13:24:21Z</time>
      </trkpt>
      <trkpt lat="47.84769" lon="7.1182">
        <ele>882.15</ele>
        <time>2015-01-08T13:24:33Z</time>
      </trkpt>
      <trkpt lat="47.84765" lon="7.11824">
        <ele>880.22</ele>
        <time>2015-01-08T13:24:41Z</time>
      </trkpt>
      <trkpt lat="47.84762" lon="7.11826">
        <ele>877.82</ele>
        <time>2015-01-08T13:24:49Z</time>
      </trkpt>
      <trkpt lat="47.8476" lon="7.11828">
        <ele>874.94</ele>
        <time>2015-01-08T13:24:57Z</time>
      </trkpt>
      <trkpt lat="47.8476" lon="7.11826">
        <ele>872.53</ele>
        <time>2015-01-08T13:25:08Z</time>
      </trkpt>
      <trkpt lat="47.84763" lon="7.11825">
        <ele>870.13</ele>
        <time>2015-01-08T13:25:23Z</time>
      </trkpt>
      <trkpt lat="47.84761" lon="7.11823">
        <ele>868.69</ele>
        <time>2015-01-08T13:25:39Z</time>
      </trkpt>
      <trkpt lat="47.84752" lon="7.11821">
        <ele>867.73</ele>
        <time>2015-01-08T13:25:46Z</time>
      </trkpt>
      <trkpt lat="47.84746" lon="7.11819">
        <ele>865.8</ele>
        <time>2015-01-08T13:25:53Z</time>
      </trkpt>
      <trkpt lat="47.8474" lon="7.11821">
        <ele>863.4</ele>
        <time>2015-01-08T13:26:00Z</time>
      </trkpt>
      <trkpt lat="47.84733" lon="7.11825">
        <ele>861</ele>
        <time>2015-01-08T13:26:08Z</time>
      </trkpt>
      <trkpt lat="47.84732" lon="7.11825">
        <ele>861</ele>
        <time>2015-01-08T13:26:09Z</time>
      </trkpt>
      <trkpt lat="47.84724" lon="7.11825">
        <ele>860.04</ele>
        <time>2015-01-08T13:26:16Z</time>
      </trkpt>
      <trkpt lat="47.84723" lon="7.11825">
        <ele>859.08</ele>
        <time>2015-01-08T13:26:17Z</time>
      </trkpt>
      <trkpt lat="47.84716" lon="7.11824">
        <ele>858.59</ele>
        <time>2015-01-08T13:26:24Z</time>
      </trkpt>
      <trkpt lat="47.84713" lon="7.11821">
        <ele>855.71</ele>
        <time>2015-01-08T13:26:33Z</time>
      </trkpt>
      <trkpt lat="47.84714" lon="7.11819">
        <ele>853.31</ele>
        <time>2015-01-08T13:26:43Z</time>
      </trkpt>
      <trkpt lat="47.84711" lon="7.11817">
        <ele>850.9</ele>
        <time>2015-01-08T13:26:53Z</time>
      </trkpt>
      <trkpt lat="47.84704" lon="7.11812">
        <ele>850.42</ele>
        <time>2015-01-08T13:27:03Z</time>
      </trkpt>
      <trkpt lat="47.84699" lon="7.1181">
        <ele>849.94</ele>
        <time>2015-01-08T13:27:11Z</time>
      </trkpt>
      <trkpt lat="47.84696" lon="7.11809">
        <ele>849.46</ele>
        <time>2015-01-08T13:27:18Z</time>
      </trkpt>
      <trkpt lat="47.84697" lon="7.11813">
        <ele>848.98</ele>
        <time>2015-01-08T13:27:25Z</time>
      </trkpt>
      <trkpt lat="47.84698" lon="7.11816">
        <ele>848.02</ele>
        <time>2015-01-08T13:27:31Z</time>
      </trkpt>
      <trkpt lat="47.847" lon="7.11817">
        <ele>847.06</ele>
        <time>2015-01-08T13:27:37Z</time>
      </trkpt>
      <trkpt lat="47.847" lon="7.11821">
        <ele>844.18</ele>
        <time>2015-01-08T13:27:45Z</time>
      </trkpt>
      <trkpt lat="47.84698" lon="7.1182">
        <ele>842.73</ele>
        <time>2015-01-08T13:27:50Z</time>
      </trkpt>
      <trkpt lat="47.84693" lon="7.11818">
        <ele>844.18</ele>
        <time>2015-01-08T13:27:58Z</time>
      </trkpt>
      <trkpt lat="47.8469" lon="7.1182">
        <ele>843.21</ele>
        <time>2015-01-08T13:28:07Z</time>
      </trkpt>
      <trkpt lat="47.84692" lon="7.11824">
        <ele>841.29</ele>
        <time>2015-01-08T13:28:15Z</time>
      </trkpt>
      <trkpt lat="47.84692" lon="7.11824">
        <ele>840.33</ele>
        <time>2015-01-08T13:28:20Z</time>
      </trkpt>
      <trkpt lat="47.84695" lon="7.11829">
        <ele>838.89</ele>
        <time>2015-01-08T13:28:29Z</time>
      </trkpt>
      <trkpt lat="47.8469" lon="7.11831">
        <ele>839.85</ele>
        <time>2015-01-08T13:28:35Z</time>
      </trkpt>
      <trkpt lat="47.84683" lon="7.11828">
        <ele>840.33</ele>
        <time>2015-01-08T13:28:43Z</time>
      </trkpt>
      <trkpt lat="47.84681" lon="7.11828">
        <ele>838.89</ele>
        <time>2015-01-08T13:28:49Z</time>
      </trkpt>
      <trkpt lat="47.84679" lon="7.11829">
        <ele>837.45</ele>
        <time>2015-01-08T13:28:58Z</time>
      </trkpt>
      <trkpt lat="47.84675" lon="7.11831">
        <ele>836.48</ele>
        <time>2015-01-08T13:29:07Z</time>
      </trkpt>
      <trkpt lat="47.84675" lon="7.11837">
        <ele>836.48</ele>
        <time>2015-01-08T13:29:15Z</time>
      </trkpt>
      <trkpt lat="47.84672" lon="7.11838">
        <ele>836.48</ele>
        <time>2015-01-08T13:29:21Z</time>
      </trkpt>
      <trkpt lat="47.84669" lon="7.11837">
        <ele>835.04</ele>
        <time>2015-01-08T13:29:29Z</time>
      </trkpt>
      <trkpt lat="47.84667" lon="7.11837">
        <ele>834.08</ele>
        <time>2015-01-08T13:29:36Z</time>
      </trkpt>
      <trkpt lat="47.84664" lon="7.11838">
        <ele>833.6</ele>
        <time>2015-01-08T13:29:42Z</time>
      </trkpt>
      <trkpt lat="47.84659" lon="7.1184">
        <ele>833.12</ele>
        <time>2015-01-08T13:29:50Z</time>
      </trkpt>
      <trkpt lat="47.84655" lon="7.11841">
        <ele>834.08</ele>
        <time>2015-01-08T13:29:56Z</time>
      </trkpt>
      <trkpt lat="47.8465" lon="7.11838">
        <ele>834.08</ele>
        <time>2015-01-08T13:30:00Z</time>
      </trkpt>
      <trkpt lat="47.84647" lon="7.11839">
        <ele>832.64</ele>
        <time>2015-01-08T13:30:07Z</time>
      </trkpt>
      <trkpt lat="47.84645" lon="7.11842">
        <ele>831.2</ele>
        <time>2015-01-08T13:30:14Z</time>
      </trkpt>
      <trkpt lat="47.8464" lon="7.11847">
        <ele>831.2</ele>
        <time>2015-01-08T13:30:22Z</time>
      </trkpt>
      <trkpt lat="47.84635" lon="7.1185">
        <ele>832.64</ele>
        <time>2015-01-08T13:30:30Z</time>
      </trkpt>
      <trkpt lat="47.84633" lon="7.1185">
        <ele>830.72</ele>
        <time>2015-01-08T13:30:40Z</time>
      </trkpt>
      <trkpt lat="47.84631" lon="7.11851">
        <ele>829.76</ele>
        <time>2015-01-08T13:30:46Z</time>
      </trkpt>
      <trkpt lat="47.84631" lon="7.11856">
        <ele>829.76</ele>
        <time>2015-01-08T13:30:54Z</time>
      </trkpt>
      <trkpt lat="47.84634" lon="7.11859">
        <ele>829.76</ele>
        <time>2015-01-08T13:31:01Z</time>
      </trkpt>
      <trkpt lat="47.84635" lon="7.11864">
        <ele>829.27</ele>
        <time>2015-01-08T13:31:07Z</time>
      </trkpt>
      <trkpt lat="47.84632" lon="7.11867">
        <ele>827.83</ele>
        <time>2015-01-08T13:31:14Z</time>
      </trkpt>
      <trkpt lat="47.84631" lon="7.11865">
        <ele>826.87</ele>
        <time>2015-01-08T13:31:22Z</time>
      </trkpt>
      <trkpt lat="47.84631" lon="7.11864">
        <ele>825.91</ele>
        <time>2015-01-08T13:31:33Z</time>
      </trkpt>
      <trkpt lat="47.84629" lon="7.11864">
        <ele>824.95</ele>
        <time>2015-01-08T13:31:36Z</time>
      </trkpt>
      <trkpt lat="47.84623" lon="7.11867">
        <ele>823.51</ele>
        <time>2015-01-08T13:31:44Z</time>
      </trkpt>
      <trkpt lat="47.84619" lon="7.1187">
        <ele>823.51</ele>
        <time>2015-01-08T13:31:53Z</time>
      </trkpt>
      <trkpt lat="47.84616" lon="7.11872">
        <ele>823.99</ele>
        <time>2015-01-08T13:31:59Z</time>
      </trkpt>
      <trkpt lat="47.84613" lon="7.11877">
        <ele>823.03</ele>
        <time>2015-01-08T13:32:08Z</time>
      </trkpt>
      <trkpt lat="47.84607" lon="7.11877">
        <ele>823.03</ele>
        <time>2015-01-08T13:32:15Z</time>
      </trkpt>
      <trkpt lat="47.84602" lon="7.11877">
        <ele>823.51</ele>
        <time>2015-01-08T13:32:22Z</time>
      </trkpt>
      <trkpt lat="47.84596" lon="7.11877">
        <ele>823.51</ele>
        <time>2015-01-08T13:32:29Z</time>
      </trkpt>
      <trkpt lat="47.84593" lon="7.11875">
        <ele>822.55</ele>
        <time>2015-01-08T13:32:36Z</time>
      </trkpt>
      <trkpt lat="47.84591" lon="7.11871">
        <ele>822.55</ele>
        <time>2015-01-08T13:32:46Z</time>
      </trkpt>
      <trkpt lat="47.8459" lon="7.11868">
        <ele>821.1</ele>
        <time>2015-01-08T13:32:54Z</time>
      </trkpt>
      <trkpt lat="47.84585" lon="7.1187">
        <ele>818.7</ele>
        <time>2015-01-08T13:33:02Z</time>
      </trkpt>
      <trkpt lat="47.8458" lon="7.11874">
        <ele>816.3</ele>
        <time>2015-01-08T13:33:09Z</time>
      </trkpt>
      <trkpt lat="47.84577" lon="7.11876">
        <ele>814.37</ele>
        <time>2015-01-08T13:33:18Z</time>
      </trkpt>
      <trkpt lat="47.84574" lon="7.11876">
        <ele>809.57</ele>
        <time>2015-01-08T13:33:36Z</time>
      </trkpt>
      <trkpt lat="47.84571" lon="7.11878">
        <ele>807.64</ele>
        <time>2015-01-08T13:33:44Z</time>
      </trkpt>
      <trkpt lat="47.8457" lon="7.11877">
        <ele>805.24</ele>
        <time>2015-01-08T13:33:54Z</time>
      </trkpt>
      <trkpt lat="47.84565" lon="7.11877">
        <ele>803.8</ele>
        <time>2015-01-08T13:34:02Z</time>
      </trkpt>
      <trkpt lat="47.84562" lon="7.1188">
        <ele>803.8</ele>
        <time>2015-01-08T13:34:10Z</time>
      </trkpt>
      <trkpt lat="47.84557" lon="7.11879">
        <ele>805.24</ele>
        <time>2015-01-08T13:34:20Z</time>
      </trkpt>
      <trkpt lat="47.84553" lon="7.11884">
        <ele>805.24</ele>
        <time>2015-01-08T13:34:29Z</time>
      </trkpt>
      <trkpt lat="47.84546" lon="7.11891">
        <ele>808.13</ele>
        <time>2015-01-08T13:34:37Z</time>
      </trkpt>
      <trkpt lat="47.84538" lon="7.11897">
        <ele>808.13</ele>
        <time>2015-01-08T13:34:46Z</time>
      </trkpt>
      <trkpt lat="47.84532" lon="7.11904">
        <ele>806.68</ele>
        <time>2015-01-08T13:34:54Z</time>
      </trkpt>
      <trkpt lat="47.84528" lon="7.11912">
        <ele>807.16</ele>
        <time>2015-01-08T13:35:02Z</time>
      </trkpt>
      <trkpt lat="47.84522" lon="7.11918">
        <ele>807.64</ele>
        <time>2015-01-08T13:35:10Z</time>
      </trkpt>
      <trkpt lat="47.84519" lon="7.11923">
        <ele>807.16</ele>
        <time>2015-01-08T13:35:17Z</time>
      </trkpt>
      <trkpt lat="47.84518" lon="7.11929">
        <ele>806.68</ele>
        <time>2015-01-08T13:35:25Z</time>
      </trkpt>
      <trkpt lat="47.84515" lon="7.11932">
        <ele>805.72</ele>
        <time>2015-01-08T13:35:33Z</time>
      </trkpt>
      <trkpt lat="47.84509" lon="7.11937">
        <ele>805.24</ele>
        <time>2015-01-08T13:35:40Z</time>
      </trkpt>
      <trkpt lat="47.84504" lon="7.11942">
        <ele>802.84</ele>
        <time>2015-01-08T13:35:49Z</time>
      </trkpt>
      <trkpt lat="47.84503" lon="7.11944">
        <ele>801.4</ele>
        <time>2015-01-08T13:35:53Z</time>
      </trkpt>
      <trkpt lat="47.84498" lon="7.11949">
        <ele>798.03</ele>
        <time>2015-01-08T13:36:00Z</time>
      </trkpt>
      <trkpt lat="47.84494" lon="7.1195">
        <ele>794.19</ele>
        <time>2015-01-08T13:36:07Z</time>
      </trkpt>
      <trkpt lat="47.84496" lon="7.11952">
        <ele>793.22</ele>
        <time>2015-01-08T13:36:14Z</time>
      </trkpt>
      <trkpt lat="47.84497" lon="7.11955">
        <ele>792.74</ele>
        <time>2015-01-08T13:36:21Z</time>
      </trkpt>
      <trkpt lat="47.84497" lon="7.11961">
        <ele>791.78</ele>
        <time>2015-01-08T13:36:29Z</time>
      </trkpt>
      <trkpt lat="47.84498" lon="7.11967">
        <ele>789.86</ele>
        <time>2015-01-08T13:36:37Z</time>
      </trkpt>
      <trkpt lat="47.84496" lon="7.11973">
        <ele>787.94</ele>
        <time>2015-01-08T13:36:43Z</time>
      </trkpt>
      <trkpt lat="47.84494" lon="7.11976">
        <ele>786.5</ele>
        <time>2015-01-08T13:36:49Z</time>
      </trkpt>
      <trkpt lat="47.84491" lon="7.11981">
        <ele>784.09</ele>
        <time>2015-01-08T13:36:57Z</time>
      </trkpt>
      <trkpt lat="47.84487" lon="7.11982">
        <ele>782.17</ele>
        <time>2015-01-08T13:37:03Z</time>
      </trkpt>
      <trkpt lat="47.84483" lon="7.11984">
        <ele>778.32</ele>
        <time>2015-01-08T13:37:10Z</time>
      </trkpt>
      <trkpt lat="47.84477" lon="7.11981">
        <ele>774.48</ele>
        <time>2015-01-08T13:37:18Z</time>
      </trkpt>
      <trkpt lat="47.84471" lon="7.11981">
        <ele>772.08</ele>
        <time>2015-01-08T13:37:27Z</time>
      </trkpt>
      <trkpt lat="47.84466" lon="7.11981">
        <ele>770.63</ele>
        <time>2015-01-08T13:37:35Z</time>
      </trkpt>
      <trkpt lat="47.84462" lon="7.11981">
        <ele>772.08</ele>
        <time>2015-01-08T13:37:42Z</time>
      </trkpt>
      <trkpt lat="47.84458" lon="7.11982">
        <ele>771.11</ele>
        <time>2015-01-08T13:37:50Z</time>
      </trkpt>
      <trkpt lat="47.84454" lon="7.11984">
        <ele>771.6</ele>
        <time>2015-01-08T13:37:57Z</time>
      </trkpt>
      <trkpt lat="47.84451" lon="7.11985">
        <ele>771.6</ele>
        <time>2015-01-08T13:38:03Z</time>
      </trkpt>
      <trkpt lat="47.84446" lon="7.11988">
        <ele>769.19</ele>
        <time>2015-01-08T13:38:12Z</time>
      </trkpt>
      <trkpt lat="47.84438" lon="7.11987">
        <ele>767.75</ele>
        <time>2015-01-08T13:38:21Z</time>
      </trkpt>
      <trkpt lat="47.84434" lon="7.11986">
        <ele>767.27</ele>
        <time>2015-01-08T13:38:27Z</time>
      </trkpt>
      <trkpt lat="47.84427" lon="7.11988">
        <ele>766.31</ele>
        <time>2015-01-08T13:38:36Z</time>
      </trkpt>
      <trkpt lat="47.84426" lon="7.1199">
        <ele>765.35</ele>
        <time>2015-01-08T13:38:43Z</time>
      </trkpt>
      <trkpt lat="47.84426" lon="7.11991">
        <ele>766.31</ele>
        <time>2015-01-08T13:38:52Z</time>
      </trkpt>
      <trkpt lat="47.84427" lon="7.11996">
        <ele>765.83</ele>
        <time>2015-01-08T13:39:00Z</time>
      </trkpt>
      <trkpt lat="47.84428" lon="7.11997">
        <ele>764.87</ele>
        <time>2015-01-08T13:39:07Z</time>
      </trkpt>
      <trkpt lat="47.8443" lon="7.12003">
        <ele>765.35</ele>
        <time>2015-01-08T13:39:15Z</time>
      </trkpt>
      <trkpt lat="47.84431" lon="7.12007">
        <ele>767.75</ele>
        <time>2015-01-08T13:39:21Z</time>
      </trkpt>
      <trkpt lat="47.84433" lon="7.12008">
        <ele>768.23</ele>
        <time>2015-01-08T13:39:28Z</time>
      </trkpt>
      <trkpt lat="47.84436" lon="7.12013">
        <ele>767.75</ele>
        <time>2015-01-08T13:39:35Z</time>
      </trkpt>
      <trkpt lat="47.84441" lon="7.12016">
        <ele>765.35</ele>
        <time>2015-01-08T13:39:43Z</time>
      </trkpt>
      <trkpt lat="47.84444" lon="7.1202">
        <ele>764.39</ele>
        <time>2015-01-08T13:39:51Z</time>
      </trkpt>
      <trkpt lat="47.84448" lon="7.12024">
        <ele>762.46</ele>
        <time>2015-01-08T13:39:57Z</time>
      </trkpt>
      <trkpt lat="47.84453" lon="7.12026">
        <ele>761.02</ele>
        <time>2015-01-08T13:40:05Z</time>
      </trkpt>
      <trkpt lat="47.84451" lon="7.12031">
        <ele>759.58</ele>
        <time>2015-01-08T13:40:11Z</time>
      </trkpt>
      <trkpt lat="47.84448" lon="7.12031">
        <ele>759.58</ele>
        <time>2015-01-08T13:40:18Z</time>
      </trkpt>
      <trkpt lat="47.84444" lon="7.12032">
        <ele>758.62</ele>
        <time>2015-01-08T13:40:23Z</time>
      </trkpt>
      <trkpt lat="47.84441" lon="7.12031">
        <ele>757.18</ele>
        <time>2015-01-08T13:40:30Z</time>
      </trkpt>
      <trkpt lat="47.84439" lon="7.1203">
        <ele>755.73</ele>
        <time>2015-01-08T13:40:37Z</time>
      </trkpt>
      <trkpt lat="47.84435" lon="7.12033">
        <ele>754.29</ele>
        <time>2015-01-08T13:40:43Z</time>
      </trkpt>
      <trkpt lat="47.84436" lon="7.12031">
        <ele>751.41</ele>
        <time>2015-01-08T13:40:51Z</time>
      </trkpt>
      <trkpt lat="47.84435" lon="7.12033">
        <ele>750.45</ele>
        <time>2015-01-08T13:40:57Z</time>
      </trkpt>
      <trkpt lat="47.84436" lon="7.12031">
        <ele>750.93</ele>
        <time>2015-01-08T13:41:05Z</time>
      </trkpt>
      <trkpt lat="47.84439" lon="7.1203">
        <ele>750.45</ele>
        <time>2015-01-08T13:41:16Z</time>
      </trkpt>
      <trkpt lat="47.8444" lon="7.12029">
        <ele>749.49</ele>
        <time>2015-01-08T13:41:24Z</time>
      </trkpt>
      <trkpt lat="47.84445" lon="7.1203">
        <ele>749</ele>
        <time>2015-01-08T13:41:31Z</time>
      </trkpt>
      <trkpt lat="47.84449" lon="7.12031">
        <ele>750.93</ele>
        <time>2015-01-08T13:41:39Z</time>
      </trkpt>
      <trkpt lat="47.84453" lon="7.12029">
        <ele>751.89</ele>
        <time>2015-01-08T13:41:49Z</time>
      </trkpt>
      <trkpt lat="47.84454" lon="7.12029">
        <ele>751.41</ele>
        <time>2015-01-08T13:41:55Z</time>
      </trkpt>
      <trkpt lat="47.84458" lon="7.12029">
        <ele>750.45</ele>
        <time>2015-01-08T13:42:02Z</time>
      </trkpt>
      <trkpt lat="47.84464" lon="7.1203">
        <ele>750.45</ele>
        <time>2015-01-08T13:42:09Z</time>
      </trkpt>
      <trkpt lat="47.84471" lon="7.12031">
        <ele>748.04</ele>
        <time>2015-01-08T13:42:16Z</time>
      </trkpt>
      <trkpt lat="47.84475" lon="7.12031">
        <ele>745.64</ele>
        <time>2015-01-08T13:42:23Z</time>
      </trkpt>
      <trkpt lat="47.84487" lon="7.12031">
        <ele>745.64</ele>
        <time>2015-01-08T13:42:34Z</time>
      </trkpt>
      <trkpt lat="47.84494" lon="7.12036">
        <ele>747.56</ele>
        <time>2015-01-08T13:42:43Z</time>
      </trkpt>
      <trkpt lat="47.84502" lon="7.1204">
        <ele>748.04</ele>
        <time>2015-01-08T13:42:51Z</time>
      </trkpt>
      <trkpt lat="47.84503" lon="7.12041">
        <ele>748.52</ele>
        <time>2015-01-08T13:42:52Z</time>
      </trkpt>
      <trkpt lat="47.84509" lon="7.12044">
        <ele>747.56</ele>
        <time>2015-01-08T13:42:59Z</time>
      </trkpt>
      <trkpt lat="47.84516" lon="7.12048">
        <ele>747.56</ele>
        <time>2015-01-08T13:43:07Z</time>
      </trkpt>
      <trkpt lat="47.84525" lon="7.12052">
        <ele>748.04</ele>
        <time>2015-01-08T13:43:16Z</time>
      </trkpt>
      <trkpt lat="47.84527" lon="7.12052">
        <ele>748.04</ele>
        <time>2015-01-08T13:43:23Z</time>
      </trkpt>
      <trkpt lat="47.84531" lon="7.12055">
        <ele>749</ele>
        <time>2015-01-08T13:43:30Z</time>
      </trkpt>
      <trkpt lat="47.84534" lon="7.12054">
        <ele>749</ele>
        <time>2015-01-08T13:43:38Z</time>
      </trkpt>
      <trkpt lat="47.84538" lon="7.12058">
        <ele>749.49</ele>
        <time>2015-01-08T13:43:45Z</time>
      </trkpt>
      <trkpt lat="47.84544" lon="7.12061">
        <ele>748.52</ele>
        <time>2015-01-08T13:43:51Z</time>
      </trkpt>
      <trkpt lat="47.84551" lon="7.12066">
        <ele>747.08</ele>
        <time>2015-01-08T13:43:58Z</time>
      </trkpt>
      <trkpt lat="47.84558" lon="7.12074">
        <ele>745.16</ele>
        <time>2015-01-08T13:44:05Z</time>
      </trkpt>
      <trkpt lat="47.84562" lon="7.1208">
        <ele>743.24</ele>
        <time>2015-01-08T13:44:11Z</time>
      </trkpt>
      <trkpt lat="47.8457" lon="7.1209">
        <ele>739.39</ele>
        <time>2015-01-08T13:44:19Z</time>
      </trkpt>
      <trkpt lat="47.84576" lon="7.12096">
        <ele>737.47</ele>
        <time>2015-01-08T13:44:27Z</time>
      </trkpt>
      <trkpt lat="47.84581" lon="7.12101">
        <ele>734.58</ele>
        <time>2015-01-08T13:44:34Z</time>
      </trkpt>
      <trkpt lat="47.84587" lon="7.12106">
        <ele>731.7</ele>
        <time>2015-01-08T13:44:42Z</time>
      </trkpt>
      <trkpt lat="47.8459" lon="7.12112">
        <ele>727.86</ele>
        <time>2015-01-08T13:44:49Z</time>
      </trkpt>
      <trkpt lat="47.84594" lon="7.12121">
        <ele>723.05</ele>
        <time>2015-01-08T13:44:57Z</time>
      </trkpt>
      <trkpt lat="47.84594" lon="7.1213">
        <ele>717.76</ele>
        <time>2015-01-08T13:45:06Z</time>
      </trkpt>
      <trkpt lat="47.84592" lon="7.12138">
        <ele>712.95</ele>
        <time>2015-01-08T13:45:14Z</time>
      </trkpt>
      <trkpt lat="47.84592" lon="7.12146">
        <ele>710.07</ele>
        <time>2015-01-08T13:45:22Z</time>
      </trkpt>
      <trkpt lat="47.84591" lon="7.12154">
        <ele>707.19</ele>
        <time>2015-01-08T13:45:29Z</time>
      </trkpt>
      <trkpt lat="47.84594" lon="7.12161">
        <ele>710.55</ele>
        <time>2015-01-08T13:45:36Z</time>
      </trkpt>
      <trkpt lat="47.84596" lon="7.1217">
        <ele>711.51</ele>
        <time>2015-01-08T13:45:43Z</time>
      </trkpt>
      <trkpt lat="47.84596" lon="7.12172">
        <ele>711.03</ele>
        <time>2015-01-08T13:45:44Z</time>
      </trkpt>
      <trkpt lat="47.84599" lon="7.12183">
        <ele>708.63</ele>
        <time>2015-01-08T13:45:52Z</time>
      </trkpt>
      <trkpt lat="47.84599" lon="7.12186">
        <ele>709.11</ele>
        <time>2015-01-08T13:45:54Z</time>
      </trkpt>
      <trkpt lat="47.84603" lon="7.12198">
        <ele>709.11</ele>
        <time>2015-01-08T13:46:02Z</time>
      </trkpt>
      <trkpt lat="47.84605" lon="7.1221">
        <ele>709.59</ele>
        <time>2015-01-08T13:46:09Z</time>
      </trkpt>
      <trkpt lat="47.84605" lon="7.12222">
        <ele>712.95</ele>
        <time>2015-01-08T13:46:16Z</time>
      </trkpt>
      <trkpt lat="47.84603" lon="7.12229">
        <ele>712.95</ele>
        <time>2015-01-08T13:46:22Z</time>
      </trkpt>
      <trkpt lat="47.84602" lon="7.12234">
        <ele>712.95</ele>
        <time>2015-01-08T13:46:27Z</time>
      </trkpt>
      <trkpt lat="47.84601" lon="7.12239">
        <ele>712.95</ele>
        <time>2015-01-08T13:46:33Z</time>
      </trkpt>
      <trkpt lat="47.84603" lon="7.12243">
        <ele>713.92</ele>
        <time>2015-01-08T13:46:38Z</time>
      </trkpt>
      <trkpt lat="47.84603" lon="7.12242">
        <ele>714.4</ele>
        <time>2015-01-08T13:46:43Z</time>
      </trkpt>
      <trkpt lat="47.84603" lon="7.12241">
        <ele>715.36</ele>
        <time>2015-01-08T13:46:48Z</time>
      </trkpt>
      <trkpt lat="47.84602" lon="7.12241">
        <ele>716.8</ele>
        <time>2015-01-08T13:46:56Z</time>
      </trkpt>
      <trkpt lat="47.84597" lon="7.12239">
        <ele>717.28</ele>
        <time>2015-01-08T13:47:05Z</time>
      </trkpt>
      <trkpt lat="47.84597" lon="7.12239">
        <ele>719.2</ele>
        <time>2015-01-08T13:47:13Z</time>
      </trkpt>
      <trkpt lat="47.84598" lon="7.12239">
        <ele>720.65</ele>
        <time>2015-01-08T13:47:19Z</time>
      </trkpt>
      <trkpt lat="47.84593" lon="7.12237">
        <ele>721.13</ele>
        <time>2015-01-08T13:47:26Z</time>
      </trkpt>
      <trkpt lat="47.84592" lon="7.12236">
        <ele>721.13</ele>
        <time>2015-01-08T13:47:28Z</time>
      </trkpt>
      <trkpt lat="47.84587" lon="7.12233">
        <ele>720.65</ele>
        <time>2015-01-08T13:47:33Z</time>
      </trkpt>
      <trkpt lat="47.84583" lon="7.12229">
        <ele>722.09</ele>
        <time>2015-01-08T13:47:40Z</time>
      </trkpt>
      <trkpt lat="47.8458" lon="7.12229">
        <ele>720.65</ele>
        <time>2015-01-08T13:47:47Z</time>
      </trkpt>
      <trkpt lat="47.84579" lon="7.1223">
        <ele>718.72</ele>
        <time>2015-01-08T13:47:53Z</time>
      </trkpt>
      <trkpt lat="47.84578" lon="7.12229">
        <ele>714.88</ele>
        <time>2015-01-08T13:48:03Z</time>
      </trkpt>
      <trkpt lat="47.84574" lon="7.12226">
        <ele>709.59</ele>
        <time>2015-01-08T13:48:12Z</time>
      </trkpt>
      <trkpt lat="47.84569" lon="7.12222">
        <ele>702.86</ele>
        <time>2015-01-08T13:48:21Z</time>
      </trkpt>
      <trkpt lat="47.84565" lon="7.12219">
        <ele>697.57</ele>
        <time>2015-01-08T13:48:28Z</time>
      </trkpt>
      <trkpt lat="47.84562" lon="7.12213">
        <ele>692.29</ele>
        <time>2015-01-08T13:48:35Z</time>
      </trkpt>
      <trkpt lat="47.84559" lon="7.12207">
        <ele>687</ele>
        <time>2015-01-08T13:48:42Z</time>
      </trkpt>
      <trkpt lat="47.84554" lon="7.12203">
        <ele>682.19</ele>
        <time>2015-01-08T13:48:51Z</time>
      </trkpt>
      <trkpt lat="47.8455" lon="7.122">
        <ele>679.31</ele>
        <time>2015-01-08T13:48:58Z</time>
      </trkpt>
      <trkpt lat="47.84545" lon="7.12198">
        <ele>675.46</ele>
        <time>2015-01-08T13:49:06Z</time>
      </trkpt>
      <trkpt lat="47.84539" lon="7.12196">
        <ele>673.54</ele>
        <time>2015-01-08T13:49:15Z</time>
      </trkpt>
      <trkpt lat="47.84532" lon="7.12196">
        <ele>675.46</ele>
        <time>2015-01-08T13:49:23Z</time>
      </trkpt>
      <trkpt lat="47.84524" lon="7.12194">
        <ele>679.79</ele>
        <time>2015-01-08T13:49:31Z</time>
      </trkpt>
      <trkpt lat="47.8452" lon="7.1219">
        <ele>677.87</ele>
        <time>2015-01-08T13:49:39Z</time>
      </trkpt>
      <trkpt lat="47.84515" lon="7.12187">
        <ele>679.79</ele>
        <time>2015-01-08T13:49:47Z</time>
      </trkpt>
      <trkpt lat="47.84511" lon="7.12189">
        <ele>685.08</ele>
        <time>2015-01-08T13:49:56Z</time>
      </trkpt>
      <trkpt lat="47.845" lon="7.12188">
        <ele>683.63</ele>
        <time>2015-01-08T13:50:07Z</time>
      </trkpt>
      <trkpt lat="47.84495" lon="7.12187">
        <ele>682.19</ele>
        <time>2015-01-08T13:50:15Z</time>
      </trkpt>
      <trkpt lat="47.84496" lon="7.12186">
        <ele>680.75</ele>
        <time>2015-01-08T13:50:24Z</time>
      </trkpt>
      <trkpt lat="47.84494" lon="7.12188">
        <ele>683.63</ele>
        <time>2015-01-08T13:50:33Z</time>
      </trkpt>
      <trkpt lat="47.84494" lon="7.12187">
        <ele>689.88</ele>
        <time>2015-01-08T13:50:44Z</time>
      </trkpt>
      <trkpt lat="47.84492" lon="7.12184">
        <ele>690.36</ele>
        <time>2015-01-08T13:50:53Z</time>
      </trkpt>
      <trkpt lat="47.84487" lon="7.12183">
        <ele>689.88</ele>
        <time>2015-01-08T13:51:00Z</time>
      </trkpt>
      <trkpt lat="47.84482" lon="7.12181">
        <ele>687.48</ele>
        <time>2015-01-08T13:51:08Z</time>
      </trkpt>
      <trkpt lat="47.84477" lon="7.12181">
        <ele>686.04</ele>
        <time>2015-01-08T13:51:16Z</time>
      </trkpt>
      <trkpt lat="47.84468" lon="7.12182">
        <ele>685.08</ele>
        <time>2015-01-08T13:51:25Z</time>
      </trkpt>
      <trkpt lat="47.8446" lon="7.12185">
        <ele>684.12</ele>
        <time>2015-01-08T13:51:34Z</time>
      </trkpt>
      <trkpt lat="47.84453" lon="7.12189">
        <ele>684.6</ele>
        <time>2015-01-08T13:51:43Z</time>
      </trkpt>
      <trkpt lat="47.84447" lon="7.12193">
        <ele>686.04</ele>
        <time>2015-01-08T13:51:52Z</time>
      </trkpt>
      <trkpt lat="47.84442" lon="7.12197">
        <ele>687.96</ele>
        <time>2015-01-08T13:52:00Z</time>
      </trkpt>
      <trkpt lat="47.84435" lon="7.12203">
        <ele>689.4</ele>
        <time>2015-01-08T13:52:08Z</time>
      </trkpt>
      <trkpt lat="47.84429" lon="7.12206">
        <ele>689.4</ele>
        <time>2015-01-08T13:52:14Z</time>
      </trkpt>
      <trkpt lat="47.84422" lon="7.12212">
        <ele>689.88</ele>
        <time>2015-01-08T13:52:21Z</time>
      </trkpt>
      <trkpt lat="47.84416" lon="7.12218">
        <ele>690.36</ele>
        <time>2015-01-08T13:52:28Z</time>
      </trkpt>
      <trkpt lat="47.84411" lon="7.12223">
        <ele>691.81</ele>
        <time>2015-01-08T13:52:36Z</time>
      </trkpt>
      <trkpt lat="47.84405" lon="7.12226">
        <ele>692.77</ele>
        <time>2015-01-08T13:52:44Z</time>
      </trkpt>
      <trkpt lat="47.84398" lon="7.12229">
        <ele>692.29</ele>
        <time>2015-01-08T13:52:53Z</time>
      </trkpt>
      <trkpt lat="47.84391" lon="7.12232">
        <ele>689.4</ele>
        <time>2015-01-08T13:53:01Z</time>
      </trkpt>
      <trkpt lat="47.84383" lon="7.12239">
        <ele>687</ele>
        <time>2015-01-08T13:53:11Z</time>
      </trkpt>
      <trkpt lat="47.84375" lon="7.12244">
        <ele>685.56</ele>
        <time>2015-01-08T13:53:20Z</time>
      </trkpt>
      <trkpt lat="47.84366" lon="7.12247">
        <ele>683.63</ele>
        <time>2015-01-08T13:53:29Z</time>
      </trkpt>
      <trkpt lat="47.8436" lon="7.12249">
        <ele>683.63</ele>
        <time>2015-01-08T13:53:37Z</time>
      </trkpt>
      <trkpt lat="47.84354" lon="7.12252">
        <ele>683.63</ele>
        <time>2015-01-08T13:53:45Z</time>
      </trkpt>
      <trkpt lat="47.84347" lon="7.12256">
        <ele>684.12</ele>
        <time>2015-01-08T13:53:52Z</time>
      </trkpt>
      <trkpt lat="47.84339" lon="7.12263">
        <ele>684.6</ele>
        <time>2015-01-08T13:54:01Z</time>
      </trkpt>
      <trkpt lat="47.84334" lon="7.12267">
        <ele>686.52</ele>
        <time>2015-01-08T13:54:05Z</time>
      </trkpt>
      <trkpt lat="47.84328" lon="7.12271">
        <ele>686.04</ele>
        <time>2015-01-08T13:54:12Z</time>
      </trkpt>
      <trkpt lat="47.84323" lon="7.12272">
        <ele>685.56</ele>
        <time>2015-01-08T13:54:18Z</time>
      </trkpt>
      <trkpt lat="47.84317" lon="7.12276">
        <ele>685.56</ele>
        <time>2015-01-08T13:54:24Z</time>
      </trkpt>
      <trkpt lat="47.84312" lon="7.12277">
        <ele>685.08</ele>
        <time>2015-01-08T13:54:30Z</time>
      </trkpt>
      <trkpt lat="47.84304" lon="7.12278">
        <ele>684.12</ele>
        <time>2015-01-08T13:54:39Z</time>
      </trkpt>
      <trkpt lat="47.84301" lon="7.12278">
        <ele>683.63</ele>
        <time>2015-01-08T13:54:45Z</time>
      </trkpt>
      <trkpt lat="47.84297" lon="7.12279">
        <ele>683.15</ele>
        <time>2015-01-08T13:54:50Z</time>
      </trkpt>
      <trkpt lat="47.84279" lon="7.12282">
        <ele>679.79</ele>
        <time>2015-01-08T13:55:07Z</time>
      </trkpt>
      <trkpt lat="47.8427" lon="7.12284">
        <ele>678.83</ele>
        <time>2015-01-08T13:55:14Z</time>
      </trkpt>
      <trkpt lat="47.8426" lon="7.12282">
        <ele>677.39</ele>
        <time>2015-01-08T13:55:22Z</time>
      </trkpt>
      <trkpt lat="47.84254" lon="7.12281">
        <ele>674.98</ele>
        <time>2015-01-08T13:55:28Z</time>
      </trkpt>
      <trkpt lat="47.84247" lon="7.12283">
        <ele>671.62</ele>
        <time>2015-01-08T13:55:36Z</time>
      </trkpt>
      <trkpt lat="47.84241" lon="7.12282">
        <ele>669.7</ele>
        <time>2015-01-08T13:55:43Z</time>
      </trkpt>
      <trkpt lat="47.84234" lon="7.12282">
        <ele>669.22</ele>
        <time>2015-01-08T13:55:51Z</time>
      </trkpt>
      <trkpt lat="47.84229" lon="7.12282">
        <ele>668.25</ele>
        <time>2015-01-08T13:55:59Z</time>
      </trkpt>
      <trkpt lat="47.84222" lon="7.12285">
        <ele>666.81</ele>
        <time>2015-01-08T13:56:06Z</time>
      </trkpt>
      <trkpt lat="47.84213" lon="7.12285">
        <ele>664.89</ele>
        <time>2015-01-08T13:56:14Z</time>
      </trkpt>
      <trkpt lat="47.84205" lon="7.12285">
        <ele>663.45</ele>
        <time>2015-01-08T13:56:21Z</time>
      </trkpt>
      <trkpt lat="47.842" lon="7.12285">
        <ele>662.01</ele>
        <time>2015-01-08T13:56:28Z</time>
      </trkpt>
      <trkpt lat="47.84194" lon="7.12285">
        <ele>662.01</ele>
        <time>2015-01-08T13:56:36Z</time>
      </trkpt>
      <trkpt lat="47.84187" lon="7.12284">
        <ele>662.49</ele>
        <time>2015-01-08T13:56:43Z</time>
      </trkpt>
      <trkpt lat="47.84182" lon="7.12285">
        <ele>662.49</ele>
        <time>2015-01-08T13:56:49Z</time>
      </trkpt>
      <trkpt lat="47.84178" lon="7.12287">
        <ele>663.93</ele>
        <time>2015-01-08T13:56:59Z</time>
      </trkpt>
      <trkpt lat="47.84179" lon="7.12281">
        <ele>665.85</ele>
        <time>2015-01-08T13:57:17Z</time>
      </trkpt>
      <trkpt lat="47.84181" lon="7.12273">
        <ele>661.04</ele>
        <time>2015-01-08T13:57:31Z</time>
      </trkpt>
      <trkpt lat="47.8418" lon="7.12279">
        <ele>662.49</ele>
        <time>2015-01-08T13:57:43Z</time>
      </trkpt>
      <trkpt lat="47.8417" lon="7.12281">
        <ele>661.52</ele>
        <time>2015-01-08T13:57:52Z</time>
      </trkpt>
      <trkpt lat="47.84164" lon="7.12284">
        <ele>659.6</ele>
        <time>2015-01-08T13:57:57Z</time>
      </trkpt>
      <trkpt lat="47.84154" lon="7.1229">
        <ele>658.16</ele>
        <time>2015-01-08T13:58:07Z</time>
      </trkpt>
      <trkpt lat="47.84147" lon="7.12294">
        <ele>656.72</ele>
        <time>2015-01-08T13:58:14Z</time>
      </trkpt>
      <trkpt lat="47.84141" lon="7.12302">
        <ele>653.35</ele>
        <time>2015-01-08T13:58:21Z</time>
      </trkpt>
      <trkpt lat="47.84135" lon="7.12312">
        <ele>649.03</ele>
        <time>2015-01-08T13:58:29Z</time>
      </trkpt>
      <trkpt lat="47.84129" lon="7.1232">
        <ele>647.1</ele>
        <time>2015-01-08T13:58:37Z</time>
      </trkpt>
      <trkpt lat="47.84124" lon="7.12328">
        <ele>645.66</ele>
        <time>2015-01-08T13:58:44Z</time>
      </trkpt>
      <trkpt lat="47.84116" lon="7.12337">
        <ele>643.26</ele>
        <time>2015-01-08T13:58:53Z</time>
      </trkpt>
      <trkpt lat="47.84109" lon="7.12344">
        <ele>641.34</ele>
        <time>2015-01-08T13:59:00Z</time>
      </trkpt>
      <trkpt lat="47.84102" lon="7.12355">
        <ele>638.93</ele>
        <time>2015-01-08T13:59:09Z</time>
      </trkpt>
      <trkpt lat="47.84095" lon="7.12362">
        <ele>639.41</ele>
        <time>2015-01-08T13:59:15Z</time>
      </trkpt>
      <trkpt lat="47.84089" lon="7.12372">
        <ele>643.74</ele>
        <time>2015-01-08T13:59:21Z</time>
      </trkpt>
      <trkpt lat="47.84081" lon="7.12379">
        <ele>646.14</ele>
        <time>2015-01-08T13:59:30Z</time>
      </trkpt>
      <trkpt lat="47.84072" lon="7.1239">
        <ele>649.03</ele>
        <time>2015-01-08T13:59:39Z</time>
      </trkpt>
      <trkpt lat="47.84064" lon="7.12405">
        <ele>651.91</ele>
        <time>2015-01-08T13:59:48Z</time>
      </trkpt>
      <trkpt lat="47.84056" lon="7.12418">
        <ele>652.39</ele>
        <time>2015-01-08T13:59:57Z</time>
      </trkpt>
      <trkpt lat="47.8405" lon="7.12427">
        <ele>652.87</ele>
        <time>2015-01-08T14:00:05Z</time>
      </trkpt>
      <trkpt lat="47.84043" lon="7.12437">
        <ele>652.87</ele>
        <time>2015-01-08T14:00:13Z</time>
      </trkpt>
      <trkpt lat="47.84036" lon="7.12452">
        <ele>651.91</ele>
        <time>2015-01-08T14:00:22Z</time>
      </trkpt>
      <trkpt lat="47.84031" lon="7.12464">
        <ele>650.95</ele>
        <time>2015-01-08T14:00:30Z</time>
      </trkpt>
      <trkpt lat="47.84028" lon="7.12473">
        <ele>649.99</ele>
        <time>2015-01-08T14:00:38Z</time>
      </trkpt>
      <trkpt lat="47.84026" lon="7.12482">
        <ele>649.51</ele>
        <time>2015-01-08T14:00:46Z</time>
      </trkpt>
      <trkpt lat="47.84022" lon="7.12493">
        <ele>647.59</ele>
        <time>2015-01-08T14:00:56Z</time>
      </trkpt>
      <trkpt lat="47.84021" lon="7.12506">
        <ele>645.18</ele>
        <time>2015-01-08T14:01:04Z</time>
      </trkpt>
      <trkpt lat="47.8402" lon="7.12516">
        <ele>644.7</ele>
        <time>2015-01-08T14:01:13Z</time>
      </trkpt>
      <trkpt lat="47.84021" lon="7.12524">
        <ele>644.7</ele>
        <time>2015-01-08T14:01:20Z</time>
      </trkpt>
      <trkpt lat="47.84021" lon="7.12532">
        <ele>644.7</ele>
        <time>2015-01-08T14:01:27Z</time>
      </trkpt>
      <trkpt lat="47.84023" lon="7.12543">
        <ele>643.26</ele>
        <time>2015-01-08T14:01:35Z</time>
      </trkpt>
      <trkpt lat="47.84025" lon="7.1255">
        <ele>641.82</ele>
        <time>2015-01-08T14:01:40Z</time>
      </trkpt>
      <trkpt lat="47.84029" lon="7.1256">
        <ele>640.86</ele>
        <time>2015-01-08T14:01:49Z</time>
      </trkpt>
      <trkpt lat="47.84034" lon="7.1257">
        <ele>638.93</ele>
        <time>2015-01-08T14:01:57Z</time>
      </trkpt>
      <trkpt lat="47.84037" lon="7.12579">
        <ele>636.53</ele>
        <time>2015-01-08T14:02:05Z</time>
      </trkpt>
      <trkpt lat="47.84039" lon="7.12586">
        <ele>634.61</ele>
        <time>2015-01-08T14:02:11Z</time>
      </trkpt>
      <trkpt lat="47.84042" lon="7.12594">
        <ele>632.2</ele>
        <time>2015-01-08T14:02:18Z</time>
      </trkpt>
      <trkpt lat="47.84045" lon="7.12602">
        <ele>629.8</ele>
        <time>2015-01-08T14:02:25Z</time>
      </trkpt>
      <trkpt lat="47.84049" lon="7.12611">
        <ele>627.88</ele>
        <time>2015-01-08T14:02:32Z</time>
      </trkpt>
      <trkpt lat="47.84052" lon="7.12618">
        <ele>626.44</ele>
        <time>2015-01-08T14:02:39Z</time>
      </trkpt>
      <trkpt lat="47.84052" lon="7.12625">
        <ele>624.03</ele>
        <time>2015-01-08T14:02:46Z</time>
      </trkpt>
      <trkpt lat="47.84049" lon="7.12632">
        <ele>623.55</ele>
        <time>2015-01-08T14:02:52Z</time>
      </trkpt>
      <trkpt lat="47.84044" lon="7.12641">
        <ele>625.47</ele>
        <time>2015-01-08T14:02:59Z</time>
      </trkpt>
      <trkpt lat="47.84041" lon="7.12642">
        <ele>625.47</ele>
        <time>2015-01-08T14:03:03Z</time>
      </trkpt>
      <trkpt lat="47.84033" lon="7.12649">
        <ele>625.96</ele>
        <time>2015-01-08T14:03:13Z</time>
      </trkpt>
      <trkpt lat="47.84026" lon="7.12648">
        <ele>625.96</ele>
        <time>2015-01-08T14:03:21Z</time>
      </trkpt>
      <trkpt lat="47.84022" lon="7.12646">
        <ele>624.51</ele>
        <time>2015-01-08T14:03:28Z</time>
      </trkpt>
      <trkpt lat="47.84017" lon="7.12642">
        <ele>622.11</ele>
        <time>2015-01-08T14:03:36Z</time>
      </trkpt>
      <trkpt lat="47.84011" lon="7.12637">
        <ele>620.67</ele>
        <time>2015-01-08T14:03:44Z</time>
      </trkpt>
      <trkpt lat="47.84004" lon="7.12633">
        <ele>618.75</ele>
        <time>2015-01-08T14:03:51Z</time>
      </trkpt>
      <trkpt lat="47.84" lon="7.1263">
        <ele>616.34</ele>
        <time>2015-01-08T14:03:58Z</time>
      </trkpt>
      <trkpt lat="47.83995" lon="7.12626">
        <ele>612.98</ele>
        <time>2015-01-08T14:04:06Z</time>
      </trkpt>
      <trkpt lat="47.83989" lon="7.12623">
        <ele>608.17</ele>
        <time>2015-01-08T14:04:13Z</time>
      </trkpt>
      <trkpt lat="47.8398" lon="7.12619">
        <ele>605.77</ele>
        <time>2015-01-08T14:04:22Z</time>
      </trkpt>
      <trkpt lat="47.83974" lon="7.12617">
        <ele>602.88</ele>
        <time>2015-01-08T14:04:29Z</time>
      </trkpt>
      <trkpt lat="47.83973" lon="7.12615">
        <ele>602.4</ele>
        <time>2015-01-08T14:04:31Z</time>
      </trkpt>
      <trkpt lat="47.83965" lon="7.1261">
        <ele>600</ele>
        <time>2015-01-08T14:04:40Z</time>
      </trkpt>
      <trkpt lat="47.83958" lon="7.12609">
        <ele>597.6</ele>
        <time>2015-01-08T14:04:48Z</time>
      </trkpt>
      <trkpt lat="47.83951" lon="7.12608">
        <ele>596.15</ele>
        <time>2015-01-08T14:04:55Z</time>
      </trkpt>
      <trkpt lat="47.83943" lon="7.12608">
        <ele>594.71</ele>
        <time>2015-01-08T14:05:03Z</time>
      </trkpt>
      <trkpt lat="47.83932" lon="7.12606">
        <ele>598.08</ele>
        <time>2015-01-08T14:05:13Z</time>
      </trkpt>
      <trkpt lat="47.83928" lon="7.12608">
        <ele>597.6</ele>
        <time>2015-01-08T14:05:19Z</time>
      </trkpt>
      <trkpt lat="47.83922" lon="7.1261">
        <ele>597.6</ele>
        <time>2015-01-08T14:05:26Z</time>
      </trkpt>
      <trkpt lat="47.83919" lon="7.12612">
        <ele>597.12</ele>
        <time>2015-01-08T14:05:32Z</time>
      </trkpt>
      <trkpt lat="47.83914" lon="7.12613">
        <ele>597.12</ele>
        <time>2015-01-08T14:05:39Z</time>
      </trkpt>
      <trkpt lat="47.83909" lon="7.12615">
        <ele>596.15</ele>
        <time>2015-01-08T14:05:45Z</time>
      </trkpt>
      <trkpt lat="47.83902" lon="7.12621">
        <ele>597.6</ele>
        <time>2015-01-08T14:05:53Z</time>
      </trkpt>
      <trkpt lat="47.83895" lon="7.12623">
        <ele>597.12</ele>
        <time>2015-01-08T14:06:00Z</time>
      </trkpt>
      <trkpt lat="47.83888" lon="7.12623">
        <ele>594.23</ele>
        <time>2015-01-08T14:06:07Z</time>
      </trkpt>
      <trkpt lat="47.83883" lon="7.12621">
        <ele>591.83</ele>
        <time>2015-01-08T14:06:13Z</time>
      </trkpt>
      <trkpt lat="47.83876" lon="7.12622">
        <ele>590.39</ele>
        <time>2015-01-08T14:06:20Z</time>
      </trkpt>
      <trkpt lat="47.83869" lon="7.12622">
        <ele>588.46</ele>
        <time>2015-01-08T14:06:27Z</time>
      </trkpt>
      <trkpt lat="47.83869" lon="7.12622">
        <ele>587.98</ele>
        <time>2015-01-08T14:06:28Z</time>
      </trkpt>
      <trkpt lat="47.83862" lon="7.12621">
        <ele>587.5</ele>
        <time>2015-01-08T14:06:36Z</time>
      </trkpt>
      <trkpt lat="47.83853" lon="7.1262">
        <ele>587.5</ele>
        <time>2015-01-08T14:06:46Z</time>
      </trkpt>
      <trkpt lat="47.83847" lon="7.1262">
        <ele>586.06</ele>
        <time>2015-01-08T14:06:53Z</time>
      </trkpt>
      <trkpt lat="47.83841" lon="7.12622">
        <ele>586.54</ele>
        <time>2015-01-08T14:06:59Z</time>
      </trkpt>
      <trkpt lat="47.83837" lon="7.12623">
        <ele>584.62</ele>
        <time>2015-01-08T14:07:05Z</time>
      </trkpt>
      <trkpt lat="47.8383" lon="7.12625">
        <ele>581.73</ele>
        <time>2015-01-08T14:07:12Z</time>
      </trkpt>
      <trkpt lat="47.83824" lon="7.12624">
        <ele>579.33</ele>
        <time>2015-01-08T14:07:19Z</time>
      </trkpt>
      <trkpt lat="47.83817" lon="7.12624">
        <ele>578.37</ele>
        <time>2015-01-08T14:07:25Z</time>
      </trkpt>
      <trkpt lat="47.83811" lon="7.12624">
        <ele>576.45</ele>
        <time>2015-01-08T14:07:32Z</time>
      </trkpt>
      <trkpt lat="47.83807" lon="7.12624">
        <ele>573.56</ele>
        <time>2015-01-08T14:07:38Z</time>
      </trkpt>
      <trkpt lat="47.83802" lon="7.12623">
        <ele>574.53</ele>
        <time>2015-01-08T14:07:45Z</time>
      </trkpt>
      <trkpt lat="47.83796" lon="7.1262">
        <ele>577.89</ele>
        <time>2015-01-08T14:07:54Z</time>
      </trkpt>
      <trkpt lat="47.83789" lon="7.12618">
        <ele>579.81</ele>
        <time>2015-01-08T14:08:02Z</time>
      </trkpt>
      <trkpt lat="47.8378" lon="7.12614">
        <ele>581.73</ele>
        <time>2015-01-08T14:08:09Z</time>
      </trkpt>
      <trkpt lat="47.83778" lon="7.12612">
        <ele>582.7</ele>
        <time>2015-01-08T14:08:11Z</time>
      </trkpt>
      <trkpt lat="47.83771" lon="7.12609">
        <ele>584.62</ele>
        <time>2015-01-08T14:08:18Z</time>
      </trkpt>
      <trkpt lat="47.83761" lon="7.12607">
        <ele>586.54</ele>
        <time>2015-01-08T14:08:26Z</time>
      </trkpt>
      <trkpt lat="47.83755" lon="7.12607">
        <ele>587.5</ele>
        <time>2015-01-08T14:08:34Z</time>
      </trkpt>
      <trkpt lat="47.8374" lon="7.12606">
        <ele>587.02</ele>
        <time>2015-01-08T14:08:43Z</time>
      </trkpt>
      <trkpt lat="47.83733" lon="7.12608">
        <ele>587.5</ele>
        <time>2015-01-08T14:08:50Z</time>
      </trkpt>
      <trkpt lat="47.83728" lon="7.12614">
        <ele>585.58</ele>
        <time>2015-01-08T14:08:58Z</time>
      </trkpt>
      <trkpt lat="47.83721" lon="7.12616">
        <ele>586.54</ele>
        <time>2015-01-08T14:09:06Z</time>
      </trkpt>
      <trkpt lat="47.83718" lon="7.12619">
        <ele>586.06</ele>
        <time>2015-01-08T14:09:09Z</time>
      </trkpt>
      <trkpt lat="47.8371" lon="7.12627">
        <ele>585.58</ele>
        <time>2015-01-08T14:09:18Z</time>
      </trkpt>
      <trkpt lat="47.83704" lon="7.1263">
        <ele>585.58</ele>
        <time>2015-01-08T14:09:25Z</time>
      </trkpt>
      <trkpt lat="47.837" lon="7.12631">
        <ele>583.66</ele>
        <time>2015-01-08T14:09:33Z</time>
      </trkpt>
      <trkpt lat="47.83697" lon="7.12633">
        <ele>582.22</ele>
        <time>2015-01-08T14:09:39Z</time>
      </trkpt>
      <trkpt lat="47.83692" lon="7.12636">
        <ele>579.33</ele>
        <time>2015-01-08T14:09:46Z</time>
      </trkpt>
      <trkpt lat="47.83688" lon="7.12639">
        <ele>577.89</ele>
        <time>2015-01-08T14:09:53Z</time>
      </trkpt>
      <trkpt lat="47.83682" lon="7.12644">
        <ele>578.37</ele>
        <time>2015-01-08T14:10:01Z</time>
      </trkpt>
      <trkpt lat="47.83678" lon="7.12649">
        <ele>578.85</ele>
        <time>2015-01-08T14:10:09Z</time>
      </trkpt>
      <trkpt lat="47.83674" lon="7.12651">
        <ele>577.89</ele>
        <time>2015-01-08T14:10:16Z</time>
      </trkpt>
      <trkpt lat="47.83671" lon="7.12653">
        <ele>576.93</ele>
        <time>2015-01-08T14:10:23Z</time>
      </trkpt>
      <trkpt lat="47.83666" lon="7.12658">
        <ele>576.45</ele>
        <time>2015-01-08T14:10:32Z</time>
      </trkpt>
      <trkpt lat="47.83666" lon="7.12656">
        <ele>575.97</ele>
        <time>2015-01-08T14:10:35Z</time>
      </trkpt>
      <trkpt lat="47.83667" lon="7.12651">
        <ele>574.53</ele>
        <time>2015-01-08T14:10:40Z</time>
      </trkpt>
      <trkpt lat="47.83668" lon="7.12647">
        <ele>573.56</ele>
        <time>2015-01-08T14:10:46Z</time>
      </trkpt>
      <trkpt lat="47.8367" lon="7.12641">
        <ele>571.16</ele>
        <time>2015-01-08T14:10:53Z</time>
      </trkpt>
      <trkpt lat="47.83671" lon="7.12634">
        <ele>570.68</ele>
        <time>2015-01-08T14:10:59Z</time>
      </trkpt>
      <trkpt lat="47.83672" lon="7.1263">
        <ele>569.72</ele>
        <time>2015-01-08T14:11:06Z</time>
      </trkpt>
      <trkpt lat="47.83672" lon="7.12627">
        <ele>569.24</ele>
        <time>2015-01-08T14:11:13Z</time>
      </trkpt>
      <trkpt lat="47.83673" lon="7.12624">
        <ele>568.76</ele>
        <time>2015-01-08T14:11:18Z</time>
      </trkpt>
      <trkpt lat="47.83672" lon="7.12622">
        <ele>568.28</ele>
        <time>2015-01-08T14:11:25Z</time>
      </trkpt>
      <trkpt lat="47.8367" lon="7.12622">
        <ele>568.28</ele>
        <time>2015-01-08T14:11:32Z</time>
      </trkpt>
      <trkpt lat="47.83668" lon="7.12621">
        <ele>567.32</ele>
        <time>2015-01-08T14:11:39Z</time>
      </trkpt>
      <trkpt lat="47.83669" lon="7.12619">
        <ele>566.35</ele>
        <time>2015-01-08T14:11:47Z</time>
      </trkpt>
      <trkpt lat="47.83671" lon="7.12617">
        <ele>564.43</ele>
        <time>2015-01-08T14:11:55Z</time>
      </trkpt>
      <trkpt lat="47.83673" lon="7.12612">
        <ele>562.99</ele>
        <time>2015-01-08T14:12:02Z</time>
      </trkpt>
      <trkpt lat="47.83672" lon="7.12606">
        <ele>561.55</ele>
        <time>2015-01-08T14:12:11Z</time>
      </trkpt>
      <trkpt lat="47.8367" lon="7.12607">
        <ele>560.59</ele>
        <time>2015-01-08T14:12:20Z</time>
      </trkpt>
      <trkpt lat="47.83669" lon="7.12608">
        <ele>558.66</ele>
        <time>2015-01-08T14:12:29Z</time>
      </trkpt>
      <trkpt lat="47.83668" lon="7.12609">
        <ele>558.66</ele>
        <time>2015-01-08T14:12:35Z</time>
      </trkpt>
      <trkpt lat="47.83666" lon="7.12607">
        <ele>557.7</ele>
        <time>2015-01-08T14:12:42Z</time>
      </trkpt>
      <trkpt lat="47.83667" lon="7.12608">
        <ele>554.34</ele>
        <time>2015-01-08T14:12:49Z</time>
      </trkpt>
      <trkpt lat="47.83665" lon="7.12608">
        <ele>552.9</ele>
        <time>2015-01-08T14:13:00Z</time>
      </trkpt>
      <trkpt lat="47.83661" lon="7.12608">
        <ele>552.9</ele>
        <time>2015-01-08T14:13:08Z</time>
      </trkpt>
      <trkpt lat="47.83657" lon="7.12609">
        <ele>554.34</ele>
        <time>2015-01-08T14:13:16Z</time>
      </trkpt>
      <trkpt lat="47.83657" lon="7.12608">
        <ele>554.82</ele>
        <time>2015-01-08T14:13:23Z</time>
      </trkpt>
      <trkpt lat="47.83653" lon="7.12606">
        <ele>554.82</ele>
        <time>2015-01-08T14:13:31Z</time>
      </trkpt>
      <trkpt lat="47.83651" lon="7.12609">
        <ele>552.9</ele>
        <time>2015-01-08T14:13:42Z</time>
      </trkpt>
      <trkpt lat="47.83649" lon="7.1261">
        <ele>550.01</ele>
        <time>2015-01-08T14:13:48Z</time>
      </trkpt>
      <trkpt lat="47.83644" lon="7.12611">
        <ele>548.09</ele>
        <time>2015-01-08T14:13:57Z</time>
      </trkpt>
      <trkpt lat="47.83643" lon="7.12611">
        <ele>547.13</ele>
        <time>2015-01-08T14:14:04Z</time>
      </trkpt>
      <trkpt lat="47.83643" lon="7.12612">
        <ele>547.13</ele>
        <time>2015-01-08T14:14:13Z</time>
      </trkpt>
      <trkpt lat="47.83637" lon="7.12608">
        <ele>545.69</ele>
        <time>2015-01-08T14:14:23Z</time>
      </trkpt>
      <trkpt lat="47.83633" lon="7.1261">
        <ele>547.13</ele>
        <time>2015-01-08T14:14:32Z</time>
      </trkpt>
      <trkpt lat="47.83632" lon="7.12614">
        <ele>547.13</ele>
        <time>2015-01-08T14:14:41Z</time>
      </trkpt>
      <trkpt lat="47.8363" lon="7.12613">
        <ele>545.69</ele>
        <time>2015-01-08T14:14:48Z</time>
      </trkpt>
      <trkpt lat="47.8363" lon="7.12614">
        <ele>545.2</ele>
        <time>2015-01-08T14:14:49Z</time>
      </trkpt>
      <trkpt lat="47.83625" lon="7.12616">
        <ele>545.2</ele>
        <time>2015-01-08T14:14:55Z</time>
      </trkpt>
      <trkpt lat="47.83618" lon="7.12615">
        <ele>544.24</ele>
        <time>2015-01-08T14:15:04Z</time>
      </trkpt>
      <trkpt lat="47.83613" lon="7.12616">
        <ele>543.28</ele>
        <time>2015-01-08T14:15:12Z</time>
      </trkpt>
      <trkpt lat="47.83607" lon="7.12613">
        <ele>541.36</ele>
        <time>2015-01-08T14:15:20Z</time>
      </trkpt>
      <trkpt lat="47.83602" lon="7.1261">
        <ele>540.88</ele>
        <time>2015-01-08T14:15:27Z</time>
      </trkpt>
      <trkpt lat="47.83596" lon="7.1261">
        <ele>539.44</ele>
        <time>2015-01-08T14:15:35Z</time>
      </trkpt>
      <trkpt lat="47.83592" lon="7.12615">
        <ele>538.96</ele>
        <time>2015-01-08T14:15:45Z</time>
      </trkpt>
      <trkpt lat="47.83588" lon="7.12615">
        <ele>538.96</ele>
        <time>2015-01-08T14:15:54Z</time>
      </trkpt>
      <trkpt lat="47.83581" lon="7.12617">
        <ele>540.4</ele>
        <time>2015-01-08T14:16:02Z</time>
      </trkpt>
      <trkpt lat="47.83574" lon="7.12615">
        <ele>540.88</ele>
        <time>2015-01-08T14:16:10Z</time>
      </trkpt>
      <trkpt lat="47.83564" lon="7.12611">
        <ele>537.51</ele>
        <time>2015-01-08T14:16:20Z</time>
      </trkpt>
      <trkpt lat="47.83558" lon="7.1261">
        <ele>535.59</ele>
        <time>2015-01-08T14:16:28Z</time>
      </trkpt>
      <trkpt lat="47.83551" lon="7.1261">
        <ele>535.59</ele>
        <time>2015-01-08T14:16:38Z</time>
      </trkpt>
      <trkpt lat="47.83544" lon="7.12611">
        <ele>535.11</ele>
        <time>2015-01-08T14:16:46Z</time>
      </trkpt>
      <trkpt lat="47.83542" lon="7.1261">
        <ele>534.63</ele>
        <time>2015-01-08T14:16:53Z</time>
      </trkpt>
      <trkpt lat="47.83542" lon="7.12607">
        <ele>533.19</ele>
        <time>2015-01-08T14:17:07Z</time>
      </trkpt>
      <trkpt lat="47.83541" lon="7.12601">
        <ele>536.07</ele>
        <time>2015-01-08T14:17:25Z</time>
      </trkpt>
      <trkpt lat="47.83539" lon="7.12605">
        <ele>534.63</ele>
        <time>2015-01-08T14:17:38Z</time>
      </trkpt>
      <trkpt lat="47.83535" lon="7.12607">
        <ele>532.71</ele>
        <time>2015-01-08T14:17:45Z</time>
      </trkpt>
      <trkpt lat="47.83531" lon="7.12608">
        <ele>531.27</ele>
        <time>2015-01-08T14:17:52Z</time>
      </trkpt>
      <trkpt lat="47.83524" lon="7.12604">
        <ele>530.3</ele>
        <time>2015-01-08T14:18:01Z</time>
      </trkpt>
      <trkpt lat="47.83517" lon="7.12597">
        <ele>527.9</ele>
        <time>2015-01-08T14:18:10Z</time>
      </trkpt>
      <trkpt lat="47.83512" lon="7.12594">
        <ele>524.54</ele>
        <time>2015-01-08T14:18:19Z</time>
      </trkpt>
      <trkpt lat="47.83508" lon="7.12598">
        <ele>524.54</ele>
        <time>2015-01-08T14:18:26Z</time>
      </trkpt>
      <trkpt lat="47.83507" lon="7.12607">
        <ele>523.58</ele>
        <time>2015-01-08T14:18:35Z</time>
      </trkpt>
      <trkpt lat="47.83509" lon="7.12615">
        <ele>521.17</ele>
        <time>2015-01-08T14:18:45Z</time>
      </trkpt>
      <trkpt lat="47.83508" lon="7.1262">
        <ele>519.73</ele>
        <time>2015-01-08T14:18:54Z</time>
      </trkpt>
      <trkpt lat="47.83505" lon="7.12629">
        <ele>520.21</ele>
        <time>2015-01-08T14:19:04Z</time>
      </trkpt>
      <trkpt lat="47.83502" lon="7.12636">
        <ele>521.17</ele>
        <time>2015-01-08T14:19:12Z</time>
      </trkpt>
      <trkpt lat="47.835" lon="7.12643">
        <ele>522.13</ele>
        <time>2015-01-08T14:19:22Z</time>
      </trkpt>
      <trkpt lat="47.83497" lon="7.12647">
        <ele>523.09</ele>
        <time>2015-01-08T14:19:29Z</time>
      </trkpt>
      <trkpt lat="47.83494" lon="7.12652">
        <ele>521.17</ele>
        <time>2015-01-08T14:19:38Z</time>
      </trkpt>
      <trkpt lat="47.83493" lon="7.12653">
        <ele>520.21</ele>
        <time>2015-01-08T14:19:46Z</time>
      </trkpt>
      <trkpt lat="47.83491" lon="7.12655">
        <ele>518.77</ele>
        <time>2015-01-08T14:19:53Z</time>
      </trkpt>
      <trkpt lat="47.83488" lon="7.12658">
        <ele>516.85</ele>
        <time>2015-01-08T14:20:00Z</time>
      </trkpt>
      <trkpt lat="47.83485" lon="7.12663">
        <ele>514.44</ele>
        <time>2015-01-08T14:20:09Z</time>
      </trkpt>
      <trkpt lat="47.83485" lon="7.12669">
        <ele>514.44</ele>
        <time>2015-01-08T14:20:18Z</time>
      </trkpt>
      <trkpt lat="47.83485" lon="7.12678">
        <ele>519.25</ele>
        <time>2015-01-08T14:20:27Z</time>
      </trkpt>
      <trkpt lat="47.83484" lon="7.12685">
        <ele>520.69</ele>
        <time>2015-01-08T14:20:36Z</time>
      </trkpt>
      <trkpt lat="47.8348" lon="7.12692">
        <ele>521.65</ele>
        <time>2015-01-08T14:20:43Z</time>
      </trkpt>
      <trkpt lat="47.83473" lon="7.127">
        <ele>519.25</ele>
        <time>2015-01-08T14:20:53Z</time>
      </trkpt>
      <trkpt lat="47.83467" lon="7.12707">
        <ele>516.37</ele>
        <time>2015-01-08T14:21:01Z</time>
      </trkpt>
      <trkpt lat="47.83465" lon="7.12715">
        <ele>515.4</ele>
        <time>2015-01-08T14:21:10Z</time>
      </trkpt>
      <trkpt lat="47.8346" lon="7.12724">
        <ele>512.52</ele>
        <time>2015-01-08T14:21:19Z</time>
      </trkpt>
      <trkpt lat="47.83455" lon="7.12733">
        <ele>508.67</ele>
        <time>2015-01-08T14:21:28Z</time>
      </trkpt>
      <trkpt lat="47.83452" lon="7.12741">
        <ele>505.79</ele>
        <time>2015-01-08T14:21:35Z</time>
      </trkpt>
      <trkpt lat="47.83449" lon="7.12747">
        <ele>502.43</ele>
        <time>2015-01-08T14:21:42Z</time>
      </trkpt>
      <trkpt lat="47.83445" lon="7.12758">
        <ele>502.43</ele>
        <time>2015-01-08T14:21:50Z</time>
      </trkpt>
      <trkpt lat="47.83441" lon="7.12765">
        <ele>501.95</ele>
        <time>2015-01-08T14:21:59Z</time>
      </trkpt>
      <trkpt lat="47.83436" lon="7.12773">
        <ele>500.98</ele>
        <time>2015-01-08T14:22:08Z</time>
      </trkpt>
      <trkpt lat="47.83432" lon="7.12776">
        <ele>500.02</ele>
        <time>2015-01-08T14:22:15Z</time>
      </trkpt>
      <trkpt lat="47.83428" lon="7.12782">
        <ele>499.06</ele>
        <time>2015-01-08T14:22:22Z</time>
      </trkpt>
      <trkpt lat="47.83421" lon="7.12788">
        <ele>499.06</ele>
        <time>2015-01-08T14:22:31Z</time>
      </trkpt>
      <trkpt lat="47.83411" lon="7.1279">
        <ele>499.54</ele>
        <time>2015-01-08T14:22:41Z</time>
      </trkpt>
      <trkpt lat="47.83405" lon="7.12792">
        <ele>499.06</ele>
        <time>2015-01-08T14:22:49Z</time>
      </trkpt>
      <trkpt lat="47.83398" lon="7.12793">
        <ele>499.06</ele>
        <time>2015-01-08T14:22:57Z</time>
      </trkpt>
      <trkpt lat="47.83393" lon="7.12793">
        <ele>499.54</ele>
        <time>2015-01-08T14:23:04Z</time>
      </trkpt>
      <trkpt lat="47.83384" lon="7.12795">
        <ele>499.06</ele>
        <time>2015-01-08T14:23:13Z</time>
      </trkpt>
      <trkpt lat="47.83378" lon="7.12796">
        <ele>499.54</ele>
        <time>2015-01-08T14:23:21Z</time>
      </trkpt>
      <trkpt lat="47.83372" lon="7.12794">
        <ele>497.62</ele>
        <time>2015-01-08T14:23:28Z</time>
      </trkpt>
      <trkpt lat="47.83367" lon="7.12791">
        <ele>494.74</ele>
        <time>2015-01-08T14:23:35Z</time>
      </trkpt>
      <trkpt lat="47.83359" lon="7.12788">
        <ele>492.33</ele>
        <time>2015-01-08T14:23:44Z</time>
      </trkpt>
      <trkpt lat="47.83354" lon="7.12785">
        <ele>491.85</ele>
        <time>2015-01-08T14:23:50Z</time>
      </trkpt>
      <trkpt lat="47.8335" lon="7.12782">
        <ele>491.85</ele>
        <time>2015-01-08T14:23:56Z</time>
      </trkpt>
      <trkpt lat="47.83345" lon="7.12777">
        <ele>492.33</ele>
        <time>2015-01-08T14:24:03Z</time>
      </trkpt>
      <trkpt lat="47.83341" lon="7.12772">
        <ele>491.37</ele>
        <time>2015-01-08T14:24:11Z</time>
      </trkpt>
      <trkpt lat="47.83335" lon="7.12768">
        <ele>491.37</ele>
        <time>2015-01-08T14:24:18Z</time>
      </trkpt>
      <trkpt lat="47.83329" lon="7.12763">
        <ele>491.85</ele>
        <time>2015-01-08T14:24:25Z</time>
      </trkpt>
      <trkpt lat="47.83323" lon="7.1276">
        <ele>492.33</ele>
        <time>2015-01-08T14:24:32Z</time>
      </trkpt>
      <trkpt lat="47.83316" lon="7.12757">
        <ele>491.85</ele>
        <time>2015-01-08T14:24:39Z</time>
      </trkpt>
      <trkpt lat="47.83307" lon="7.12753">
        <ele>491.85</ele>
        <time>2015-01-08T14:24:48Z</time>
      </trkpt>
      <trkpt lat="47.83298" lon="7.12752">
        <ele>493.29</ele>
        <time>2015-01-08T14:24:58Z</time>
      </trkpt>
      <trkpt lat="47.83289" lon="7.1275">
        <ele>494.26</ele>
        <time>2015-01-08T14:25:07Z</time>
      </trkpt>
      <trkpt lat="47.83282" lon="7.12744">
        <ele>496.18</ele>
        <time>2015-01-08T14:25:15Z</time>
      </trkpt>
      <trkpt lat="47.83277" lon="7.12737">
        <ele>496.18</ele>
        <time>2015-01-08T14:25:23Z</time>
      </trkpt>
      <trkpt lat="47.83273" lon="7.12735">
        <ele>496.18</ele>
        <time>2015-01-08T14:25:30Z</time>
      </trkpt>
      <trkpt lat="47.83267" lon="7.12734">
        <ele>494.26</ele>
        <time>2015-01-08T14:25:37Z</time>
      </trkpt>
      <trkpt lat="47.83263" lon="7.12734">
        <ele>493.77</ele>
        <time>2015-01-08T14:25:43Z</time>
      </trkpt>
      <trkpt lat="47.83255" lon="7.12734">
        <ele>492.81</ele>
        <time>2015-01-08T14:25:52Z</time>
      </trkpt>
      <trkpt lat="47.83246" lon="7.12735">
        <ele>492.33</ele>
        <time>2015-01-08T14:26:01Z</time>
      </trkpt>
      <trkpt lat="47.83236" lon="7.12736">
        <ele>494.26</ele>
        <time>2015-01-08T14:26:10Z</time>
      </trkpt>
      <trkpt lat="47.83231" lon="7.12737">
        <ele>494.74</ele>
        <time>2015-01-08T14:26:17Z</time>
      </trkpt>
      <trkpt lat="47.83228" lon="7.12738">
        <ele>495.7</ele>
        <time>2015-01-08T14:26:25Z</time>
      </trkpt>
      <trkpt lat="47.83221" lon="7.12739">
        <ele>497.14</ele>
        <time>2015-01-08T14:26:32Z</time>
      </trkpt>
      <trkpt lat="47.83215" lon="7.1274">
        <ele>501.46</ele>
        <time>2015-01-08T14:26:40Z</time>
      </trkpt>
      <trkpt lat="47.83216" lon="7.12739">
        <ele>501.95</ele>
        <time>2015-01-08T14:26:50Z</time>
      </trkpt>
      <trkpt lat="47.83211" lon="7.12734">
        <ele>499.54</ele>
        <time>2015-01-08T14:26:58Z</time>
      </trkpt>
      <trkpt lat="47.83211" lon="7.1273">
        <ele>499.06</ele>
        <time>2015-01-08T14:27:03Z</time>
      </trkpt>
      <trkpt lat="47.83209" lon="7.12723">
        <ele>499.54</ele>
        <time>2015-01-08T14:27:10Z</time>
      </trkpt>
      <trkpt lat="47.83207" lon="7.12715">
        <ele>500.5</ele>
        <time>2015-01-08T14:27:18Z</time>
      </trkpt>
      <trkpt lat="47.83206" lon="7.12714">
        <ele>500.5</ele>
        <time>2015-01-08T14:27:19Z</time>
      </trkpt>
      <trkpt lat="47.83204" lon="7.12706">
        <ele>503.87</ele>
        <time>2015-01-08T14:27:26Z</time>
      </trkpt>
      <trkpt lat="47.83203" lon="7.12699">
        <ele>505.31</ele>
        <time>2015-01-08T14:27:33Z</time>
      </trkpt>
      <trkpt lat="47.83201" lon="7.12691">
        <ele>506.27</ele>
        <time>2015-01-08T14:27:40Z</time>
      </trkpt>
      <trkpt lat="47.83198" lon="7.12684">
        <ele>507.23</ele>
        <time>2015-01-08T14:27:46Z</time>
      </trkpt>
      <trkpt lat="47.83195" lon="7.12674">
        <ele>507.23</ele>
        <time>2015-01-08T14:27:56Z</time>
      </trkpt>
      <trkpt lat="47.83192" lon="7.1267">
        <ele>506.27</ele>
        <time>2015-01-08T14:28:07Z</time>
      </trkpt>
      <trkpt lat="47.83193" lon="7.12665">
        <ele>506.75</ele>
        <time>2015-01-08T14:28:16Z</time>
      </trkpt>
      <trkpt lat="47.83194" lon="7.12663">
        <ele>506.75</ele>
        <time>2015-01-08T14:28:30Z</time>
      </trkpt>
      <trkpt lat="47.83193" lon="7.12659">
        <ele>507.23</ele>
        <time>2015-01-08T14:28:40Z</time>
      </trkpt>
      <trkpt lat="47.83187" lon="7.12652">
        <ele>505.79</ele>
        <time>2015-01-08T14:28:49Z</time>
      </trkpt>
      <trkpt lat="47.83182" lon="7.12651">
        <ele>505.31</ele>
        <time>2015-01-08T14:28:57Z</time>
      </trkpt>
      <trkpt lat="47.83174" lon="7.12655">
        <ele>501.95</ele>
        <time>2015-01-08T14:29:06Z</time>
      </trkpt>
      <trkpt lat="47.83171" lon="7.1266">
        <ele>500.02</ele>
        <time>2015-01-08T14:29:13Z</time>
      </trkpt>
      <trkpt lat="47.83167" lon="7.12666">
        <ele>496.66</ele>
        <time>2015-01-08T14:29:22Z</time>
      </trkpt>
      <trkpt lat="47.83166" lon="7.1267">
        <ele>493.77</ele>
        <time>2015-01-08T14:29:29Z</time>
      </trkpt>
      <trkpt lat="47.83163" lon="7.12677">
        <ele>491.37</ele>
        <time>2015-01-08T14:29:37Z</time>
      </trkpt>
      <trkpt lat="47.83156" lon="7.12687">
        <ele>486.56</ele>
        <time>2015-01-08T14:29:48Z</time>
      </trkpt>
      <trkpt lat="47.83153" lon="7.12692">
        <ele>482.72</ele>
        <time>2015-01-08T14:29:56Z</time>
      </trkpt>
      <trkpt lat="47.83147" lon="7.12697">
        <ele>479.84</ele>
        <time>2015-01-08T14:30:03Z</time>
      </trkpt>
      <trkpt lat="47.83142" lon="7.12704">
        <ele>477.91</ele>
        <time>2015-01-08T14:30:11Z</time>
      </trkpt>
      <trkpt lat="47.83137" lon="7.12711">
        <ele>476.95</ele>
        <time>2015-01-08T14:30:19Z</time>
      </trkpt>
      <trkpt lat="47.8313" lon="7.12717">
        <ele>476.95</ele>
        <time>2015-01-08T14:30:28Z</time>
      </trkpt>
      <trkpt lat="47.83122" lon="7.12722">
        <ele>475.99</ele>
        <time>2015-01-08T14:30:38Z</time>
      </trkpt>
      <trkpt lat="47.83116" lon="7.12724">
        <ele>475.99</ele>
        <time>2015-01-08T14:30:45Z</time>
      </trkpt>
      <trkpt lat="47.83111" lon="7.12726">
        <ele>476.95</ele>
        <time>2015-01-08T14:30:53Z</time>
      </trkpt>
      <trkpt lat="47.83106" lon="7.1273">
        <ele>478.39</ele>
        <time>2015-01-08T14:31:00Z</time>
      </trkpt>
      <trkpt lat="47.83102" lon="7.12737">
        <ele>477.91</ele>
        <time>2015-01-08T14:31:07Z</time>
      </trkpt>
      <trkpt lat="47.83101" lon="7.12744">
        <ele>475.99</ele>
        <time>2015-01-08T14:31:15Z</time>
      </trkpt>
      <trkpt lat="47.83098" lon="7.12753">
        <ele>476.95</ele>
        <time>2015-01-08T14:31:24Z</time>
      </trkpt>
      <trkpt lat="47.83097" lon="7.12767">
        <ele>478.39</ele>
        <time>2015-01-08T14:31:33Z</time>
      </trkpt>
      <trkpt lat="47.83096" lon="7.12776">
        <ele>476.47</ele>
        <time>2015-01-08T14:31:41Z</time>
      </trkpt>
      <trkpt lat="47.83092" lon="7.12784">
        <ele>475.51</ele>
        <time>2015-01-08T14:31:49Z</time>
      </trkpt>
      <trkpt lat="47.83089" lon="7.12791">
        <ele>473.11</ele>
        <time>2015-01-08T14:31:57Z</time>
      </trkpt>
      <trkpt lat="47.83089" lon="7.12797">
        <ele>470.22</ele>
        <time>2015-01-08T14:32:04Z</time>
      </trkpt>
      <trkpt lat="47.83085" lon="7.12804">
        <ele>468.3</ele>
        <time>2015-01-08T14:32:12Z</time>
      </trkpt>
      <trkpt lat="47.83079" lon="7.12814">
        <ele>468.3</ele>
        <time>2015-01-08T14:32:19Z</time>
      </trkpt>
      <trkpt lat="47.83073" lon="7.12823">
        <ele>467.82</ele>
        <time>2015-01-08T14:32:27Z</time>
      </trkpt>
      <trkpt lat="47.83067" lon="7.12834">
        <ele>465.42</ele>
        <time>2015-01-08T14:32:36Z</time>
      </trkpt>
      <trkpt lat="47.83064" lon="7.12838">
        <ele>465.42</ele>
        <time>2015-01-08T14:32:45Z</time>
      </trkpt>
      <trkpt lat="47.83064" lon="7.12845">
        <ele>463.97</ele>
        <time>2015-01-08T14:32:53Z</time>
      </trkpt>
      <trkpt lat="47.83061" lon="7.12851">
        <ele>462.53</ele>
        <time>2015-01-08T14:33:00Z</time>
      </trkpt>
      <trkpt lat="47.83056" lon="7.12859">
        <ele>462.53</ele>
        <time>2015-01-08T14:33:06Z</time>
      </trkpt>
      <trkpt lat="47.83054" lon="7.12861">
        <ele>462.53</ele>
        <time>2015-01-08T14:33:08Z</time>
      </trkpt>
      <trkpt lat="47.83047" lon="7.12868">
        <ele>462.53</ele>
        <time>2015-01-08T14:33:18Z</time>
      </trkpt>
      <trkpt lat="47.83038" lon="7.12878">
        <ele>463.01</ele>
        <time>2015-01-08T14:33:27Z</time>
      </trkpt>
      <trkpt lat="47.83034" lon="7.12882">
        <ele>463.01</ele>
        <time>2015-01-08T14:33:35Z</time>
      </trkpt>
      <trkpt lat="47.83033" lon="7.12882">
        <ele>465.9</ele>
        <time>2015-01-08T14:33:48Z</time>
      </trkpt>
      <trkpt lat="47.83031" lon="7.12884">
        <ele>466.38</ele>
        <time>2015-01-08T14:33:57Z</time>
      </trkpt>
      <trkpt lat="47.83027" lon="7.12889">
        <ele>468.3</ele>
        <time>2015-01-08T14:34:04Z</time>
      </trkpt>
      <trkpt lat="47.83025" lon="7.12892">
        <ele>468.78</ele>
        <time>2015-01-08T14:34:06Z</time>
      </trkpt>
      <trkpt lat="47.83017" lon="7.12905">
        <ele>470.22</ele>
        <time>2015-01-08T14:34:14Z</time>
      </trkpt>
      <trkpt lat="47.83008" lon="7.12917">
        <ele>472.63</ele>
        <time>2015-01-08T14:34:23Z</time>
      </trkpt>
      <trkpt lat="47.82998" lon="7.1293">
        <ele>474.07</ele>
        <time>2015-01-08T14:34:30Z</time>
      </trkpt>
      <trkpt lat="47.82987" lon="7.12942">
        <ele>474.07</ele>
        <time>2015-01-08T14:34:38Z</time>
      </trkpt>
      <trkpt lat="47.82982" lon="7.12949">
        <ele>472.14</ele>
        <time>2015-01-08T14:34:45Z</time>
      </trkpt>
      <trkpt lat="47.82977" lon="7.12958">
        <ele>471.66</ele>
        <time>2015-01-08T14:34:52Z</time>
      </trkpt>
      <trkpt lat="47.82973" lon="7.12968">
        <ele>472.14</ele>
        <time>2015-01-08T14:35:01Z</time>
      </trkpt>
      <trkpt lat="47.82971" lon="7.12974">
        <ele>471.18</ele>
        <time>2015-01-08T14:35:08Z</time>
      </trkpt>
      <trkpt lat="47.82968" lon="7.12982">
        <ele>469.74</ele>
        <time>2015-01-08T14:35:15Z</time>
      </trkpt>
      <trkpt lat="47.82963" lon="7.12989">
        <ele>468.3</ele>
        <time>2015-01-08T14:35:23Z</time>
      </trkpt>
      <trkpt lat="47.8296" lon="7.12992">
        <ele>467.82</ele>
        <time>2015-01-08T14:35:31Z</time>
      </trkpt>
      <trkpt lat="47.82956" lon="7.12995">
        <ele>466.38</ele>
        <time>2015-01-08T14:35:38Z</time>
      </trkpt>
      <trkpt lat="47.8295" lon="7.13">
        <ele>465.42</ele>
        <time>2015-01-08T14:35:46Z</time>
      </trkpt>
      <trkpt lat="47.82946" lon="7.13003">
        <ele>464.93</ele>
        <time>2015-01-08T14:35:52Z</time>
      </trkpt>
      <trkpt lat="47.82943" lon="7.13005">
        <ele>464.45</ele>
        <time>2015-01-08T14:35:55Z</time>
      </trkpt>
      <trkpt lat="47.82936" lon="7.1301">
        <ele>464.93</ele>
        <time>2015-01-08T14:36:03Z</time>
      </trkpt>
      <trkpt lat="47.82929" lon="7.13013">
        <ele>465.42</ele>
        <time>2015-01-08T14:36:10Z</time>
      </trkpt>
      <trkpt lat="47.82924" lon="7.13019">
        <ele>466.38</ele>
        <time>2015-01-08T14:36:17Z</time>
      </trkpt>
      <trkpt lat="47.82918" lon="7.13028">
        <ele>469.74</ele>
        <time>2015-01-08T14:36:25Z</time>
      </trkpt>
      <trkpt lat="47.82915" lon="7.13037">
        <ele>474.07</ele>
        <time>2015-01-08T14:36:34Z</time>
      </trkpt>
      <trkpt lat="47.82912" lon="7.13041">
        <ele>475.99</ele>
        <time>2015-01-08T14:36:41Z</time>
      </trkpt>
      <trkpt lat="47.82909" lon="7.13047">
        <ele>478.87</ele>
        <time>2015-01-08T14:36:48Z</time>
      </trkpt>
      <trkpt lat="47.82906" lon="7.13052">
        <ele>480.8</ele>
        <time>2015-01-08T14:36:56Z</time>
      </trkpt>
      <trkpt lat="47.82903" lon="7.13056">
        <ele>480.8</ele>
        <time>2015-01-08T14:37:02Z</time>
      </trkpt>
      <trkpt lat="47.82899" lon="7.13061">
        <ele>480.8</ele>
        <time>2015-01-08T14:37:08Z</time>
      </trkpt>
      <trkpt lat="47.82898" lon="7.13067">
        <ele>479.84</ele>
        <time>2015-01-08T14:37:15Z</time>
      </trkpt>
      <trkpt lat="47.82899" lon="7.13074">
        <ele>478.39</ele>
        <time>2015-01-08T14:37:23Z</time>
      </trkpt>
      <trkpt lat="47.82902" lon="7.13078">
        <ele>475.99</ele>
        <time>2015-01-08T14:37:32Z</time>
      </trkpt>
      <trkpt lat="47.82899" lon="7.13081">
        <ele>471.66</ele>
        <time>2015-01-08T14:37:42Z</time>
      </trkpt>
      <trkpt lat="47.82901" lon="7.1308">
        <ele>469.26</ele>
        <time>2015-01-08T14:37:52Z</time>
      </trkpt>
      <trkpt lat="47.82896" lon="7.13088">
        <ele>468.78</ele>
        <time>2015-01-08T14:38:08Z</time>
      </trkpt>
      <trkpt lat="47.82894" lon="7.1308">
        <ele>468.3</ele>
        <time>2015-01-08T14:38:22Z</time>
      </trkpt>
      <trkpt lat="47.82893" lon="7.13078">
        <ele>464.93</ele>
        <time>2015-01-08T14:38:31Z</time>
      </trkpt>
      <trkpt lat="47.82893" lon="7.13077">
        <ele>462.53</ele>
        <time>2015-01-08T14:38:42Z</time>
      </trkpt>
      <trkpt lat="47.82895" lon="7.13074">
        <ele>462.05</ele>
        <time>2015-01-08T14:38:57Z</time>
      </trkpt>
      <trkpt lat="47.82896" lon="7.13072">
        <ele>463.01</ele>
        <time>2015-01-08T14:39:09Z</time>
      </trkpt>
      <trkpt lat="47.82891" lon="7.1307">
        <ele>462.05</ele>
        <time>2015-01-08T14:39:22Z</time>
      </trkpt>
      <trkpt lat="47.82885" lon="7.13076">
        <ele>456.76</ele>
        <time>2015-01-08T14:39:31Z</time>
      </trkpt>
      <trkpt lat="47.82881" lon="7.13083">
        <ele>454.36</ele>
        <time>2015-01-08T14:39:39Z</time>
      </trkpt>
      <trkpt lat="47.82879" lon="7.13093">
        <ele>451.48</ele>
        <time>2015-01-08T14:39:49Z</time>
      </trkpt>
      <trkpt lat="47.82879" lon="7.13099">
        <ele>450.03</ele>
        <time>2015-01-08T14:39:57Z</time>
      </trkpt>
      <trkpt lat="47.8288" lon="7.13111">
        <ele>446.19</ele>
        <time>2015-01-08T14:40:04Z</time>
      </trkpt>
      <trkpt lat="47.82879" lon="7.13121">
        <ele>442.82</ele>
        <time>2015-01-08T14:40:12Z</time>
      </trkpt>
      <trkpt lat="47.82879" lon="7.13131">
        <ele>439.94</ele>
        <time>2015-01-08T14:40:20Z</time>
      </trkpt>
      <trkpt lat="47.82879" lon="7.13141">
        <ele>438.98</ele>
        <time>2015-01-08T14:40:27Z</time>
      </trkpt>
      <trkpt lat="47.82879" lon="7.13152">
        <ele>438.02</ele>
        <time>2015-01-08T14:40:35Z</time>
      </trkpt>
      <trkpt lat="47.82875" lon="7.13158">
        <ele>434.65</ele>
        <time>2015-01-08T14:40:44Z</time>
      </trkpt>
      <trkpt lat="47.82871" lon="7.13168">
        <ele>432.73</ele>
        <time>2015-01-08T14:40:54Z</time>
      </trkpt>
      <trkpt lat="47.8287" lon="7.13175">
        <ele>431.77</ele>
        <time>2015-01-08T14:41:00Z</time>
      </trkpt>
      <trkpt lat="47.82868" lon="7.13188">
        <ele>430.81</ele>
        <time>2015-01-08T14:41:08Z</time>
      </trkpt>
      <trkpt lat="47.82869" lon="7.13198">
        <ele>431.29</ele>
        <time>2015-01-08T14:41:15Z</time>
      </trkpt>
      <trkpt lat="47.82869" lon="7.13205">
        <ele>430.81</ele>
        <time>2015-01-08T14:41:22Z</time>
      </trkpt>
      <trkpt lat="47.82868" lon="7.13215">
        <ele>429.85</ele>
        <time>2015-01-08T14:41:30Z</time>
      </trkpt>
      <trkpt lat="47.82867" lon="7.13223">
        <ele>427.44</ele>
        <time>2015-01-08T14:41:38Z</time>
      </trkpt>
      <trkpt lat="47.82867" lon="7.13231">
        <ele>425.52</ele>
        <time>2015-01-08T14:41:44Z</time>
      </trkpt>
      <trkpt lat="47.82865" lon="7.13237">
        <ele>424.08</ele>
        <time>2015-01-08T14:41:51Z</time>
      </trkpt>
      <trkpt lat="47.82861" lon="7.13244">
        <ele>423.6</ele>
        <time>2015-01-08T14:41:57Z</time>
      </trkpt>
      <trkpt lat="47.82858" lon="7.13252">
        <ele>423.6</ele>
        <time>2015-01-08T14:42:03Z</time>
      </trkpt>
      <trkpt lat="47.82857" lon="7.1326">
        <ele>422.64</ele>
        <time>2015-01-08T14:42:09Z</time>
      </trkpt>
      <trkpt lat="47.82853" lon="7.13276">
        <ele>420.23</ele>
        <time>2015-01-08T14:42:19Z</time>
      </trkpt>
      <trkpt lat="47.82853" lon="7.13284">
        <ele>419.27</ele>
        <time>2015-01-08T14:42:27Z</time>
      </trkpt>
      <trkpt lat="47.8285" lon="7.13299">
        <ele>419.27</ele>
        <time>2015-01-08T14:42:36Z</time>
      </trkpt>
      <trkpt lat="47.82849" lon="7.13309">
        <ele>420.23</ele>
        <time>2015-01-08T14:42:42Z</time>
      </trkpt>
      <trkpt lat="47.82848" lon="7.13316">
        <ele>420.71</ele>
        <time>2015-01-08T14:42:49Z</time>
      </trkpt>
      <trkpt lat="47.82846" lon="7.1333">
        <ele>420.23</ele>
        <time>2015-01-08T14:42:58Z</time>
      </trkpt>
      <trkpt lat="47.82845" lon="7.13344">
        <ele>419.27</ele>
        <time>2015-01-08T14:43:07Z</time>
      </trkpt>
      <trkpt lat="47.8284" lon="7.13357">
        <ele>420.23</ele>
        <time>2015-01-08T14:43:16Z</time>
      </trkpt>
      <trkpt lat="47.82838" lon="7.13366">
        <ele>422.16</ele>
        <time>2015-01-08T14:43:22Z</time>
      </trkpt>
      <trkpt lat="47.82835" lon="7.13376">
        <ele>423.6</ele>
        <time>2015-01-08T14:43:30Z</time>
      </trkpt>
      <trkpt lat="47.82831" lon="7.13384">
        <ele>423.12</ele>
        <time>2015-01-08T14:43:37Z</time>
      </trkpt>
      <trkpt lat="47.8283" lon="7.13385">
        <ele>423.12</ele>
        <time>2015-01-08T14:43:38Z</time>
      </trkpt>
      <trkpt lat="47.82824" lon="7.13396">
        <ele>423.12</ele>
        <time>2015-01-08T14:43:47Z</time>
      </trkpt>
      <trkpt lat="47.82818" lon="7.13405">
        <ele>421.68</ele>
        <time>2015-01-08T14:43:56Z</time>
      </trkpt>
      <trkpt lat="47.82811" lon="7.13417">
        <ele>421.68</ele>
        <time>2015-01-08T14:44:05Z</time>
      </trkpt>
      <trkpt lat="47.82805" lon="7.13428">
        <ele>421.19</ele>
        <time>2015-01-08T14:44:13Z</time>
      </trkpt>
      <trkpt lat="47.82799" lon="7.13438">
        <ele>420.71</ele>
        <time>2015-01-08T14:44:21Z</time>
      </trkpt>
      <trkpt lat="47.82794" lon="7.13448">
        <ele>421.68</ele>
        <time>2015-01-08T14:44:29Z</time>
      </trkpt>
      <trkpt lat="47.8279" lon="7.13456">
        <ele>421.68</ele>
        <time>2015-01-08T14:44:37Z</time>
      </trkpt>
      <trkpt lat="47.82787" lon="7.13466">
        <ele>421.19</ele>
        <time>2015-01-08T14:44:46Z</time>
      </trkpt>
      <trkpt lat="47.82781" lon="7.13483">
        <ele>416.87</ele>
        <time>2015-01-08T14:44:57Z</time>
      </trkpt>
      <trkpt lat="47.82775" lon="7.13496">
        <ele>413.02</ele>
        <time>2015-01-08T14:45:06Z</time>
      </trkpt>
      <trkpt lat="47.82771" lon="7.13506">
        <ele>411.58</ele>
        <time>2015-01-08T14:45:14Z</time>
      </trkpt>
      <trkpt lat="47.82767" lon="7.13517">
        <ele>408.22</ele>
        <time>2015-01-08T14:45:23Z</time>
      </trkpt>
      <trkpt lat="47.82765" lon="7.13528">
        <ele>408.22</ele>
        <time>2015-01-08T14:45:31Z</time>
      </trkpt>
      <trkpt lat="47.82763" lon="7.13536">
        <ele>407.74</ele>
        <time>2015-01-08T14:45:38Z</time>
      </trkpt>
      <trkpt lat="47.82762" lon="7.13543">
        <ele>407.26</ele>
        <time>2015-01-08T14:45:43Z</time>
      </trkpt>
      <trkpt lat="47.82758" lon="7.13551">
        <ele>407.26</ele>
        <time>2015-01-08T14:45:50Z</time>
      </trkpt>
      <trkpt lat="47.82753" lon="7.13559">
        <ele>406.29</ele>
        <time>2015-01-08T14:45:58Z</time>
      </trkpt>
      <trkpt lat="47.8275" lon="7.13566">
        <ele>405.33</ele>
        <time>2015-01-08T14:46:06Z</time>
      </trkpt>
      <trkpt lat="47.82743" lon="7.13578">
        <ele>403.89</ele>
        <time>2015-01-08T14:46:16Z</time>
      </trkpt>
      <trkpt lat="47.82738" lon="7.13587">
        <ele>404.85</ele>
        <time>2015-01-08T14:46:25Z</time>
      </trkpt>
      <trkpt lat="47.82733" lon="7.13594">
        <ele>404.85</ele>
        <time>2015-01-08T14:46:32Z</time>
      </trkpt>
      <trkpt lat="47.82729" lon="7.13604">
        <ele>405.81</ele>
        <time>2015-01-08T14:46:41Z</time>
      </trkpt>
      <trkpt lat="47.82726" lon="7.13612">
        <ele>404.85</ele>
        <time>2015-01-08T14:46:49Z</time>
      </trkpt>
      <trkpt lat="47.82722" lon="7.13622">
        <ele>403.41</ele>
        <time>2015-01-08T14:46:58Z</time>
      </trkpt>
      <trkpt lat="47.82718" lon="7.13629">
        <ele>401.49</ele>
        <time>2015-01-08T14:47:06Z</time>
      </trkpt>
      <trkpt lat="47.82713" lon="7.13635">
        <ele>401.49</ele>
        <time>2015-01-08T14:47:14Z</time>
      </trkpt>
      <trkpt lat="47.82707" lon="7.13647">
        <ele>402.93</ele>
        <time>2015-01-08T14:47:23Z</time>
      </trkpt>
      <trkpt lat="47.82703" lon="7.13657">
        <ele>402.93</ele>
        <time>2015-01-08T14:47:31Z</time>
      </trkpt>
      <trkpt lat="47.82698" lon="7.13666">
        <ele>402.93</ele>
        <time>2015-01-08T14:47:40Z</time>
      </trkpt>
      <trkpt lat="47.82696" lon="7.13676">
        <ele>402.45</ele>
        <time>2015-01-08T14:47:48Z</time>
      </trkpt>
      <trkpt lat="47.82691" lon="7.13686">
        <ele>401.01</ele>
        <time>2015-01-08T14:47:57Z</time>
      </trkpt>
      <trkpt lat="47.82688" lon="7.13693">
        <ele>400.05</ele>
        <time>2015-01-08T14:48:03Z</time>
      </trkpt>
      <trkpt lat="47.82685" lon="7.137">
        <ele>399.57</ele>
        <time>2015-01-08T14:48:10Z</time>
      </trkpt>
      <trkpt lat="47.82681" lon="7.13707">
        <ele>406.77</ele>
        <time>2015-01-08T14:48:24Z</time>
      </trkpt>
      <trkpt lat="47.8268" lon="7.13712">
        <ele>408.7</ele>
        <time>2015-01-08T14:48:34Z</time>
      </trkpt>
      <trkpt lat="47.82678" lon="7.13719">
        <ele>408.7</ele>
        <time>2015-01-08T14:48:41Z</time>
      </trkpt>
      <trkpt lat="47.82673" lon="7.13723">
        <ele>408.7</ele>
        <time>2015-01-08T14:48:48Z</time>
      </trkpt>
      <trkpt lat="47.8267" lon="7.1373">
        <ele>406.77</ele>
        <time>2015-01-08T14:48:55Z</time>
      </trkpt>
      <trkpt lat="47.82666" lon="7.13737">
        <ele>402.93</ele>
        <time>2015-01-08T14:49:03Z</time>
      </trkpt>
      <trkpt lat="47.82659" lon="7.13742">
        <ele>401.97</ele>
        <time>2015-01-08T14:49:13Z</time>
      </trkpt>
      <trkpt lat="47.82652" lon="7.13747">
        <ele>399.57</ele>
        <time>2015-01-08T14:49:22Z</time>
      </trkpt>
      <trkpt lat="47.82647" lon="7.13752">
        <ele>399.08</ele>
        <time>2015-01-08T14:49:29Z</time>
      </trkpt>
      <trkpt lat="47.82645" lon="7.13756">
        <ele>400.53</ele>
        <time>2015-01-08T14:49:37Z</time>
      </trkpt>
      <trkpt lat="47.82644" lon="7.13758">
        <ele>400.53</ele>
        <time>2015-01-08T14:49:49Z</time>
      </trkpt>
      <trkpt lat="47.8264" lon="7.13758">
        <ele>400.53</ele>
        <time>2015-01-08T14:49:59Z</time>
      </trkpt>
      <trkpt lat="47.82644" lon="7.13757">
        <ele>399.08</ele>
        <time>2015-01-08T14:50:10Z</time>
      </trkpt>
      <trkpt lat="47.82646" lon="7.1376">
        <ele>400.53</ele>
        <time>2015-01-08T14:50:22Z</time>
      </trkpt>
      <trkpt lat="47.82642" lon="7.1376">
        <ele>402.45</ele>
        <time>2015-01-08T14:50:29Z</time>
      </trkpt>
      <trkpt lat="47.82638" lon="7.13759">
        <ele>403.41</ele>
        <time>2015-01-08T14:50:39Z</time>
      </trkpt>
      <trkpt lat="47.82633" lon="7.1376">
        <ele>408.22</ele>
        <time>2015-01-08T14:50:50Z</time>
      </trkpt>
      <trkpt lat="47.82627" lon="7.13763">
        <ele>410.14</ele>
        <time>2015-01-08T14:50:58Z</time>
      </trkpt>
      <trkpt lat="47.82624" lon="7.13764">
        <ele>411.58</ele>
        <time>2015-01-08T14:51:04Z</time>
      </trkpt>
      <trkpt lat="47.82621" lon="7.13768">
        <ele>414.47</ele>
        <time>2015-01-08T14:51:13Z</time>
      </trkpt>
      <trkpt lat="47.8262" lon="7.13771">
        <ele>415.43</ele>
        <time>2015-01-08T14:51:21Z</time>
      </trkpt>
    </trkseg>
  </trk>
</gpx>